GFSSGP_850_spd_000.txt.gz
Wind_Speed
15 17 17 3 4 4 6 4 1 1 1 4 10 7 7 9 5 4 5 3 4 2 2 7 10 10 7 6 5 10 9 9 7 3 2 1 4 6 3 1 4 5 3 5 7 6 5 6 8
13 16 9 2 4 6 5 1 2 3 12 16 7 4 6 2 2 2 3 2 3 3 4 8 10 9 7 8 5 6 7 7 6 2 3 4 4 4 5 4 5 6 9 11 8 5 7 7 7
12 13 5 2 1 5 2 2 7 12 14 6 4 3 3 1 1 1 2 1 2 3 5 6 12 11 10 6 5 4 5 7 6 4 6 4 4 5 6 9 7 9 11 10 8 8 8 5 9
9 4 0 4 3 2 4 7 10 13 4 3 7 8 3 5 0 2 2 1 2 3 4 4 11 10 10 8 6 6 5 5 4 2 7 4 5 4 9 8 7 8 11 10 7 6 6 8 9
7 3 5 4 4 3 6 7 8 8 9 10 7 2 3 4 4 5 3 1 2 3 4 4 9 10 8 8 8 6 3 4 3 2 3 3 4 6 6 12 10 11 12 14 8 6 8 9 9
5 3 7 8 5 5 9 5 5 8 8 8 7 10 1 8 7 4 3 3 2 3 3 4 6 6 5 6 4 3 3 4 3 3 6 4 6 7 8 12 11 11 11 13 9 9 9 13 14
8 6 11 10 10 9 4 3 4 10 10 1 12 5 1 7 13 4 4 4 4 4 4 4 5 6 5 5 4 4 4 5 4 6 4 4 9 10 7 8 9 9 12 12 11 9 9 12 14
6 5 9 8 9 7 2 3 7 8 8 11 4 2 0 8 18 10 6 7 7 6 5 5 5 6 6 6 3 4 6 6 5 5 4 4 5 6 7 7 9 11 12 13 14 14 11 10 14
6 7 11 14 9 3 2 5 7 9 12 9 9 7 7 13 15 13 8 9 10 7 7 5 5 6 7 6 6 3 4 4 3 3 3 2 4 6 7 8 10 11 12 13 14 14 14 15 16
13 11 16 9 10 8 4 10 12 9 13 15 11 7 10 12 14 13 8 8 10 9 7 7 6 7 7 6 4 4 5 4 4 3 3 3 4 6 7 9 11 12 13 14 14 14 15 16 14
14 17 12 11 11 7 9 13 8 13 13 9 15 16 16 17 13 12 11 9 10 9 9 7 8 9 9 7 5 5 4 3 3 2 3 5 6 8 10 11 13 14 15 14 15 16 15 16 17
14 19 16 13 9 8 12 11 16 19 25 20 20 19 17 11 13 13 14 11 9 10 9 9 9 10 10 9 7 5 4 3 2 3 4 6 8 10 11 12 12 13 13 15 16 16 17 19 20
21 17 17 16 14 13 12 16 19 24 28 23 21 17 13 15 15 14 14 13 10 11 10 11 11 12 10 10 8 5 4 4 3 3 5 6 8 9 11 12 13 14 15 16 18 19 19 20 22
17 22 17 16 16 13 14 19 6 28 22 21 15 14 13 15 16 12 11 10 11 10 9 9 11 12 11 10 8 5 4 4 4 4 6 7 8 10 12 14 15 17 17 19 20 21 24 25 24
24 14 15 18 17 14 9 18 19 21 15 12 8 6 7 9 8 8 9 7 8 7 6 7 9 13 14 13 10 7 6 5 5 6 7 8 9 11 13 15 16 15 17 21 21 21 21 21 21
21 16 17 18 15 15 9 16 10 3 1 2 2 1 2 1 1 3 4 4 3 1 2 4 6 9 13 14 12 9 8 8 8 7 7 8 9 11 12 14 14 17 19 18 18 18 20 20 20
17 16 22 17 14 12 12 12 6 7 14 15 7 2 4 5 5 5 5 5 5 4 4 4 2 3 7 10 10 9 8 6 5 5 5 6 8 9 10 11 13 15 15 15 17 18 19 23 21
13 19 11 17 11 11 11 16 14 11 10 7 6 5 7 7 8 10 11 11 11 12 13 11 10 9 8 8 7 6 4 3 2 2 3 5 6 8 10 11 13 15 17 18 19 19 19 19 20
18 19 15 13 6 5 13 15 14 18 11 10 8 10 10 9 10 14 16 17 16 16 16 16 15 14 11 10 9 8 9 9 7 7 8 8 9 10 12 14 16 17 20 21 22 20 21 20 20
19 16 16 12 6 6 13 16 16 14 11 9 13 14 14 13 11 14 17 18 19 19 18 16 15 14 13 11 11 10 10 11 10 10 9 10 11 12 14 16 19 22 23 23 25 24 24 20 21
17 17 15 9 5 7 9 18 11 5 5 4 12 14 15 16 15 15 18 20 19 19 17 17 16 14 15 15 14 13 12 12 10 9 10 11 13 16 19 21 23 24 24 23 23 22 21 20 20
18 11 9 8 1 5 3 5 8 8 5 8 15 17 17 17 15 15 17 19 19 18 17 16 15 15 16 14 13 11 10 9 10 11 12 13 16 20 22 23 23 23 23 23 23 23 21 19 19
11 12 9 3 5 6 9 6 4 3 7 11 16 18 17 16 16 16 18 19 18 16 14 14 13 14 13 11 10 10 10 11 11 11 14 17 20 22 25 26 25 24 23 22 22 22 22 20 19
16 14 9 4 2 7 10 9 5 4 2 12 17 19 19 18 17 17 19 18 16 14 12 12 10 12 11 10 10 10 10 11 12 15 18 21 24 25 25 23 22 20 19 20 22 24 24 24 24
16 15 3 6 5 6 3 6 10 4 4 11 19 23 22 20 19 18 19 18 16 13 12 11 10 10 9 8 8 9 10 11 14 17 19 21 22 22 21 20 18 18 19 21 23 25 25 23 25
16 15 4 5 6 5 4 6 2 5 2 9 21 25 23 22 19 18 18 17 16 14 12 11 10 9 7 5 4 5 7 10 12 15 18 19 19 19 19 18 17 18 20 22 24 25 24 23 22
4 6 1 3 2 3 5 4 6 3 4 8 17 25 25 23 20 19 19 17 17 15 13 11 9 7 5 3 2 3 7 9 13 15 17 18 18 18 17 17 17 19 21 24 26 27 26 27 22
10 11 5 2 5 5 4 3 2 4 1 7 15 26 25 22 20 18 18 18 18 16 14 12 10 7 5 2 1 4 7 11 13 16 17 17 17 17 16 17 18 20 23 26 28 27 28 24 24
12 7 5 3 3 3 3 4 3 3 3 5 13 25 25 24 22 20 18 19 19 17 15 13 10 7 5 3 3 6 9 12 15 16 17 17 16 16 17 18 20 23 26 28 30 30 28 25 24
11 11 12 7 5 2 3 2 4 2 4 4 12 23 22 23 21 19 19 21 20 18 16 14 11 8 6 4 4 7 10 13 16 18 17 16 16 16 17 19 23 26 29 31 33 29 25 25 26

GFSSGP_850_spd_003.txt.gz
Wind_Speed
13 16 16 5 5 5 10 6 4 4 3 5 11 9 10 11 8 4 1 2 3 5 6 5 9 8 8 6 6 5 7 6 6 3 3 0 5 8 6 2 4 4 4 8 3 8 8 5 6
12 13 10 3 6 8 9 6 10 2 10 14 9 6 6 3 5 5 3 1 4 6 7 8 7 8 6 5 5 5 5 5 4 1 2 2 3 3 6 4 6 6 10 11 6 7 11 8 7
13 10 9 4 3 9 7 3 7 11 12 7 6 3 5 7 6 3 2 1 5 7 7 10 6 8 7 6 5 3 4 4 4 3 5 3 3 2 5 7 6 8 11 12 9 7 6 5 8
8 7 7 8 10 4 8 8 8 10 8 5 9 10 3 6 2 3 2 3 7 6 7 3 10 9 8 6 4 5 5 5 3 2 7 2 2 4 4 9 7 9 11 11 9 7 7 7 7
8 10 9 10 10 5 7 8 6 8 9 11 7 5 5 6 5 2 3 4 6 7 6 2 9 9 8 6 7 6 4 4 3 1 6 5 5 5 5 7 11 8 10 11 12 8 7 10 11
9 8 11 11 12 5 7 7 8 10 8 10 6 10 2 8 6 3 2 3 5 7 7 4 5 7 6 5 5 4 3 4 4 3 5 6 6 6 6 9 9 11 9 10 11 11 5 7 10
13 10 15 16 13 9 9 2 10 7 12 7 8 7 6 6 10 7 1 4 5 7 6 7 3 4 6 7 6 5 5 4 6 6 3 4 7 6 7 9 9 7 9 11 13 12 11 10 10
12 11 19 16 12 16 5 4 6 11 12 9 6 5 1 8 8 9 1 4 6 7 6 8 8 6 4 3 3 6 7 8 5 5 3 0 3 3 6 7 9 9 10 10 11 10 10 10 10
11 11 14 19 16 11 5 9 8 8 15 14 13 13 7 8 6 7 4 5 7 8 9 9 8 8 8 7 9 8 5 6 2 3 2 0 1 4 7 7 6 8 9 10 10 11 12 12 13
15 13 21 16 13 11 12 9 12 11 15 15 15 13 9 8 9 9 6 7 9 10 10 10 10 8 8 7 7 4 5 4 2 3 3 2 3 4 5 5 6 7 8 10 10 12 14 15 15
22 20 17 20 14 15 15 14 17 13 15 17 11 13 14 14 14 9 8 7 9 11 11 11 10 9 10 8 6 6 6 5 5 6 4 3 3 3 5 5 7 10 11 13 13 15 15 13 16
24 25 28 23 15 13 15 17 19 19 20 20 19 20 20 16 12 11 10 8 8 10 11 10 10 10 11 9 8 7 6 5 5 4 4 3 3 5 5 6 7 9 8 11 12 13 14 17 18
24 24 26 25 20 17 16 19 19 25 24 22 20 18 19 17 14 12 10 7 6 8 9 10 10 12 11 11 8 7 6 5 5 4 4 4 4 5 6 8 8 9 10 12 13 14 15 17 18
16 31 28 20 25 22 17 20 20 23 22 20 18 18 16 15 13 12 9 5 5 6 7 8 10 12 11 10 10 7 6 5 5 4 4 6 6 7 8 8 8 10 10 12 15 16 18 17 18
31 17 21 25 22 19 17 20 21 25 23 15 14 11 8 10 9 7 8 5 6 4 6 7 9 12 12 10 9 7 5 5 3 2 3 5 6 7 7 7 9 10 13 13 14 14 14 15 16
23 19 16 20 24 24 14 19 14 5 7 6 4 3 4 5 4 4 6 5 5 3 2 3 5 7 11 10 8 6 4 3 1 2 3 3 4 6 6 7 9 11 10 11 12 15 17 18 19
15 18 25 20 22 19 19 15 18 11 11 13 14 8 5 3 3 2 3 5 6 5 4 4 5 6 10 11 9 7 6 6 6 6 6 5 5 6 6 7 10 10 11 12 15 16 16 19 20
19 24 19 24 19 15 18 20 18 16 10 11 11 7 7 6 4 5 7 9 10 10 9 10 10 11 12 12 11 10 9 9 8 8 7 7 9 9 10 11 13 15 15 16 19 18 18 20 20
21 20 24 17 21 19 17 19 18 19 16 12 10 10 10 9 8 8 11 12 14 14 15 14 14 14 12 12 12 11 10 9 9 9 9 9 10 11 13 14 16 18 18 17 19 18 21 21 19
19 20 26 11 16 10 14 18 18 14 18 16 16 14 14 13 12 12 13 15 15 16 16 15 15 14 13 13 14 13 12 12 12 11 10 10 11 13 16 18 19 20 20 18 20 21 22 18 19
28 23 21 14 13 11 11 17 19 21 12 10 14 16 16 16 16 16 16 16 16 18 18 16 16 17 16 16 15 15 14 12 10 10 10 11 13 16 19 21 20 19 18 18 19 19 18 18 18
26 20 16 12 12 9 13 5 12 14 13 10 15 19 19 18 17 17 18 17 18 20 18 16 16 16 16 14 14 13 11 10 10 9 10 12 16 20 22 22 20 19 17 18 18 18 19 17 18
17 27 17 15 9 3 13 6 15 14 15 11 15 21 21 19 19 19 18 18 19 19 18 16 15 15 15 13 12 11 10 9 8 9 12 14 18 23 24 24 21 19 18 18 19 20 20 18 17
3 12 10 11 6 7 13 12 9 12 14 16 17 22 23 22 20 18 17 18 19 19 17 15 14 14 13 11 11 9 9 8 8 11 13 15 18 21 24 22 20 18 18 18 19 20 19 19 18
18 16 6 6 7 7 6 10 13 8 5 8 17 25 25 23 22 20 18 17 17 17 16 14 13 13 11 9 7 5 4 5 6 8 11 15 18 21 22 21 19 18 18 19 20 21 21 19 19
19 20 8 9 10 12 7 7 4 7 3 11 23 26 26 24 21 19 18 16 16 16 14 13 12 11 10 7 4 2 1 2 5 8 12 15 18 19 20 18 17 17 18 19 20 22 18 18 24
10 21 2 6 7 9 8 9 8 6 7 10 20 26 28 25 22 20 18 16 15 15 14 13 11 10 8 6 4 2 1 4 7 11 14 16 18 18 18 17 17 17 19 21 22 23 25 24 26
7 10 5 2 7 6 7 7 6 10 8 11 15 25 27 25 22 21 18 16 14 15 15 13 12 10 9 6 4 2 3 6 9 12 15 17 17 18 17 16 17 19 21 23 24 26 26 25 24
3 7 5 4 2 3 6 5 11 6 4 9 14 25 28 27 24 22 19 16 15 15 15 14 12 11 9 7 5 5 6 8 10 13 16 17 17 17 17 18 20 22 24 23 25 26 25 23 27
14 10 14 6 5 4 5 5 7 7 6 5 13 21 26 25 24 22 19 17 16 16 16 14 13 12 10 8 7 7 8 10 12 15 17 17 16 17 18 20 22 23 24 26 27 26 24 26 29

GFSSGP_850_spd_006.txt.gz
Wind_Speed
14 14 19 11 2 2 6 8 5 3 3 12 14 7 8 12 4 3 8 2 3 1 4 6 10 8 5 4 4 3 6 6 5 3 6 3 4 2 6 3 2 3 5 10 3 7 2 5 7
14 14 13 5 1 3 5 9 6 9 13 13 13 6 5 5 12 10 7 5 6 4 2 8 9 8 6 4 3 3 4 4 4 2 3 2 3 1 3 6 3 4 9 11 5 6 10 11 10
14 11 8 2 3 4 3 8 9 12 14 9 7 7 5 6 10 6 3 6 7 7 3 2 5 9 6 6 4 2 5 4 3 3 6 3 3 1 2 2 3 5 9 11 10 5 4 4 6
8 8 7 3 11 9 2 7 7 8 14 8 13 8 8 6 3 5 4 9 6 7 5 4 8 9 10 6 3 2 4 5 4 2 7 5 3 2 2 3 7 12 8 8 10 7 5 5 6
7 8 4 6 10 5 4 4 7 4 7 7 8 8 8 9 6 5 6 9 7 8 4 3 5 9 8 6 4 4 2 4 4 1 8 6 3 2 5 3 9 12 11 8 10 12 9 8 9
9 8 6 9 11 12 4 8 3 7 14 6 1 9 5 6 3 3 6 10 8 11 7 3 5 7 8 6 5 2 2 2 4 3 5 7 7 5 4 4 9 12 9 10 10 11 10 8 9
10 5 9 12 13 12 4 6 3 8 7 9 5 3 11 7 8 6 4 6 11 9 7 3 4 6 6 5 3 4 3 2 2 4 2 5 6 5 4 7 8 6 7 8 8 8 9 9 9
17 7 13 12 11 13 8 5 4 5 7 12 5 3 4 3 7 5 1 6 8 9 8 6 3 3 4 2 1 3 5 6 4 2 2 1 3 2 3 5 6 6 8 9 9 9 10 11 12
12 6 11 15 14 14 11 4 9 4 6 13 16 17 5 2 6 8 8 3 9 10 11 10 6 6 2 4 4 5 5 3 1 1 3 3 4 4 6 6 8 8 8 9 10 10 12 13 14
16 8 15 11 13 11 11 7 8 10 11 14 15 14 14 10 2 4 6 8 11 11 12 13 11 11 10 10 10 5 3 2 2 3 4 3 3 5 6 6 5 7 8 10 11 13 16 17 18
22 18 12 19 25 24 12 12 13 10 9 14 15 15 12 8 9 10 8 7 10 12 11 14 13 13 10 10 7 3 3 3 2 5 5 2 3 2 5 7 11 13 13 15 17 18 19 20 22
20 26 24 25 27 11 5 12 17 20 17 17 19 18 18 18 14 13 10 7 6 12 14 14 15 14 13 11 8 7 6 5 4 4 4 4 2 5 6 8 10 12 13 14 14 15 16 18 18
23 19 28 27 27 28 14 13 18 22 21 21 23 22 23 18 17 15 10 12 9 11 16 17 13 14 15 13 8 10 6 6 4 7 4 5 2 3 5 5 7 9 10 11 14 17 18 19 18
13 27 26 27 26 23 18 13 21 22 18 23 24 20 16 17 16 17 15 7 6 10 12 10 13 14 12 13 13 9 10 4 7 5 3 5 4 4 5 6 7 10 12 13 13 14 15 15 16
25 16 16 25 26 17 24 19 17 25 26 26 26 17 15 11 10 13 12 13 14 14 15 15 16 13 13 12 11 10 11 10 5 4 2 2 1 3 3 4 7 9 7 8 10 11 13 15 17
7 11 14 19 16 24 16 15 11 26 29 24 12 8 7 8 7 10 16 12 11 10 9 10 11 16 16 11 12 10 9 8 5 5 5 4 2 5 3 2 3 4 6 9 13 16 18 20 22
10 13 22 15 18 16 15 17 11 31 17 12 11 15 13 9 6 8 7 10 9 9 6 8 8 15 18 14 15 13 12 11 11 9 5 3 4 4 3 4 6 9 11 14 17 19 21 24 24
12 12 13 18 17 18 22 15 13 24 19 17 13 15 13 11 8 5 7 9 11 10 10 12 13 18 21 19 16 17 16 14 10 8 6 7 7 7 8 9 11 13 15 17 20 21 21 20 20
18 19 16 16 16 18 18 18 15 19 20 14 15 9 13 12 7 10 11 14 17 15 15 16 17 17 17 19 18 14 12 11 11 10 9 8 8 9 11 13 15 17 17 18 18 19 21 20 21
20 20 19 16 17 21 19 18 14 12 18 22 16 15 20 16 12 15 14 15 17 19 20 22 22 22 22 18 15 13 12 14 12 10 8 8 9 12 15 17 19 18 17 17 18 19 21 21 21
21 23 19 17 18 8 8 11 12 14 22 19 25 22 25 20 18 18 18 19 19 19 18 19 17 17 17 15 16 17 15 13 10 7 7 9 11 15 18 20 21 19 17 17 17 19 20 23 22
21 23 20 18 20 7 10 4 18 22 15 8 13 19 28 25 21 21 20 19 20 21 20 20 21 20 18 16 15 12 12 11 8 7 7 8 12 17 21 22 22 20 19 18 19 19 20 20 21
22 13 17 22 11 4 10 5 8 14 19 8 10 22 29 27 26 23 21 20 21 21 21 21 20 21 20 18 14 13 11 9 7 6 7 10 14 18 21 23 24 23 21 19 19 19 20 20 20
21 13 14 17 8 7 12 11 6 9 15 14 11 26 30 29 26 24 22 22 23 21 20 19 19 20 18 16 14 11 9 7 5 5 6 8 12 17 20 23 23 22 20 19 19 20 21 22 22
20 11 9 7 7 4 15 9 3 6 10 16 15 26 31 29 28 26 25 22 23 22 20 19 18 19 17 15 13 10 7 5 2 2 5 9 13 18 22 23 22 21 19 19 20 22 23 24 25
21 16 3 4 3 5 14 7 3 7 10 25 27 32 32 31 28 26 24 23 22 21 20 19 18 17 16 13 10 7 4 2 2 5 8 11 15 19 22 22 21 19 19 21 23 25 26 27 28
5 11 19 6 8 4 4 4 6 8 7 11 21 29 31 31 29 27 23 22 22 21 19 18 17 15 14 11 8 6 4 3 4 7 10 13 17 19 20 20 19 19 21 23 25 28 30 31 31
9 11 12 7 6 6 6 9 6 9 8 9 15 23 29 31 30 27 25 23 21 20 19 17 15 14 12 10 8 6 4 5 7 8 12 15 18 19 18 18 19 21 23 26 28 31 32 32 32
7 6 9 3 2 6 5 1 10 9 12 9 13 27 31 33 32 30 26 23 22 22 20 18 16 14 12 11 9 7 6 7 8 10 14 16 18 19 18 19 21 23 26 29 31 33 33 33 31
5 10 17 2 2 2 5 2 8 9 8 10 14 29 33 33 31 30 27 26 24 22 20 18 16 14 13 11 9 8 7 7 9 12 15 18 18 18 18 21 23 26 29 32 33 34 34 31 32

GFSSGP_850_spd_009.txt.gz
Wind_Speed
16 15 17 9 4 4 3 5 1 6 4 4 6 3 3 5 2 3 9 7 3 6 7 9 11 11 9 9 9 5 5 4 3 4 6 5 4 1 4 3 1 4 7 8 1 7 2 5 5
15 14 10 4 3 2 5 3 6 5 3 9 9 6 2 2 7 13 9 4 1 5 7 8 11 12 8 6 7 3 2 2 2 4 4 4 4 2 2 3 2 4 8 8 5 3 6 9 10
13 10 6 2 2 4 3 1 1 7 13 9 6 10 3 3 9 9 7 9 4 4 8 7 9 10 10 9 5 1 2 2 1 4 9 4 4 3 1 1 7 11 10 9 9 4 4 4 5
8 6 4 1 8 8 5 5 3 2 7 9 7 4 5 7 4 7 9 10 4 3 4 3 5 9 9 8 4 2 2 3 2 5 9 8 5 3 2 1 3 11 12 9 10 8 8 7 6
7 5 1 2 7 7 7 1 2 2 2 3 5 1 4 5 5 7 11 8 4 5 4 3 6 8 9 7 5 2 1 3 4 4 7 6 6 4 5 4 6 11 10 8 8 9 8 8 8
4 2 1 4 7 8 6 6 4 1 4 8 2 2 3 7 4 8 14 10 8 6 5 6 8 8 9 7 5 3 3 1 3 4 5 4 6 3 2 3 6 9 7 8 9 9 9 9 9
4 1 4 5 8 8 5 5 6 2 2 3 6 3 6 6 5 8 13 14 10 10 8 7 8 8 8 5 4 3 3 1 1 2 2 2 5 4 2 3 4 6 8 9 9 9 9 10 10
8 3 5 5 8 11 6 6 4 3 4 6 4 3 4 6 4 4 9 11 14 12 10 7 7 7 5 4 4 2 2 3 2 2 2 2 4 2 1 2 3 5 8 9 10 10 11 12 13
14 2 8 8 9 11 21 4 5 3 5 4 8 14 8 5 4 3 3 5 14 14 12 9 7 7 5 3 3 0 2 2 1 1 4 6 5 2 2 4 6 8 9 9 11 10 12 13 15
8 5 7 5 10 9 19 7 7 4 2 5 12 10 4 10 6 3 5 6 8 10 14 14 11 7 5 5 3 2 2 0 4 4 3 4 2 2 4 5 5 7 9 10 13 14 15 16 18
6 11 5 7 23 25 18 9 6 2 3 8 11 16 8 7 6 7 9 12 10 9 11 17 15 11 9 9 7 6 2 2 4 2 0 1 3 1 3 4 7 10 12 14 14 13 15 16 16
13 18 19 19 29 23 10 13 7 9 9 12 17 18 18 15 14 12 10 12 14 14 12 11 16 18 15 14 9 5 2 2 2 1 3 4 2 1 3 3 5 6 9 12 13 14 15 14 14
12 15 22 28 30 32 26 18 15 14 19 17 21 23 21 21 22 17 14 11 14 11 14 14 14 19 18 14 9 10 7 5 8 6 6 7 5 3 4 4 4 7 10 12 12 12 12 11 13
12 15 24 31 24 25 22 13 19 21 19 19 24 27 25 23 15 16 17 16 12 14 17 18 17 19 19 17 12 14 11 8 8 7 6 5 6 5 3 3 7 8 9 11 11 12 11 12 14
11 13 16 21 27 16 21 18 15 25 19 23 31 30 27 18 15 17 21 21 16 18 20 20 18 16 16 18 16 13 15 11 9 10 7 5 5 5 5 6 7 7 8 7 8 11 13 15 16
4 6 13 9 10 13 15 21 13 31 27 31 33 31 17 16 14 17 17 18 19 20 21 19 19 19 17 15 17 14 13 14 12 11 8 7 6 9 7 5 4 4 6 9 12 16 18 19 20
3 10 7 7 8 6 15 21 9 23 21 25 28 28 19 16 13 16 17 18 20 22 20 20 23 22 20 18 20 19 17 15 12 11 9 7 7 5 2 1 4 7 11 13 16 17 18 19 19
11 6 13 9 5 11 16 16 9 21 27 24 25 18 19 19 14 12 10 12 15 16 14 16 22 26 25 24 23 19 18 16 14 11 8 8 6 4 3 6 9 12 14 16 17 17 17 18 19
9 15 14 12 10 12 20 17 17 20 19 16 24 15 25 21 14 7 9 13 14 13 17 19 27 28 27 27 27 23 19 16 12 10 10 8 5 4 7 10 13 16 17 17 18 18 18 19 23
15 15 21 15 16 9 13 21 18 14 19 22 25 20 30 23 17 14 17 17 17 18 20 24 27 27 25 22 20 18 17 15 13 11 9 6 4 7 11 15 17 19 18 17 17 18 20 20 22
17 18 18 16 14 14 7 16 21 11 22 28 28 25 35 30 25 22 21 22 23 22 23 24 24 24 22 18 18 19 19 17 13 10 6 4 5 9 13 16 18 20 19 18 17 18 20 22 21
18 15 14 17 11 11 4 8 20 19 13 12 21 30 36 30 28 28 26 24 25 25 23 24 25 22 16 14 16 17 16 15 12 7 4 2 5 9 13 16 19 20 19 18 17 17 18 20 23
16 11 13 13 15 15 18 7 12 14 17 14 9 32 38 35 36 33 28 25 25 25 25 25 24 23 21 19 17 17 16 12 10 6 3 1 5 9 14 18 20 20 19 18 18 18 18 20 21
3 5 11 9 9 13 15 9 6 13 20 26 10 28 39 38 37 33 29 28 28 27 26 24 23 22 20 18 17 16 13 11 9 6 2 3 8 11 14 17 20 20 18 18 18 19 20 21 22
4 4 4 7 6 11 8 9 16 8 13 20 18 29 37 41 40 37 34 32 30 29 27 25 24 25 23 21 19 16 13 10 8 5 1 4 8 13 16 19 20 19 18 18 19 20 22 24 26
10 14 6 7 7 6 6 6 9 15 13 23 35 42 43 43 41 37 34 33 31 29 28 26 25 25 23 21 19 15 12 9 6 3 2 6 10 14 17 20 20 18 18 19 21 23 25 27 29
7 12 21 5 5 3 5 6 11 6 9 14 25 32 35 42 42 37 33 32 31 29 27 26 25 23 22 20 17 14 10 8 5 3 5 8 12 15 18 19 18 17 19 21 23 26 28 30 31
11 11 11 5 5 7 5 11 8 7 14 16 18 26 31 39 39 35 33 32 30 28 26 24 22 20 20 18 15 12 9 7 5 5 7 10 14 17 18 18 18 18 20 23 26 28 30 31 32
11 8 7 4 9 2 5 5 7 12 15 19 19 29 35 42 40 37 34 31 30 28 26 24 22 21 19 17 14 12 10 7 6 7 9 13 16 17 18 18 18 20 23 25 28 30 31 33 32
16 14 11 8 8 9 3 3 1 10 13 17 23 30 34 39 38 36 34 32 31 29 26 24 22 20 18 16 14 12 10 8 7 8 11 14 16 17 17 17 19 22 25 28 30 31 32 31 33

GFSSGP_850_spd_012.txt.gz
Wind_Speed
15 15 17 8 3 4 3 4 3 6 6 3 3 1 3 3 2 3 8 3 2 7 10 10 15 15 14 12 10 8 6 4 2 5 14 11 6 3 2 3 2 4 5 5 1 6 1 5 6
14 15 10 3 3 1 4 4 0 2 5 9 3 7 3 3 1 6 9 8 6 7 9 10 13 15 13 11 9 6 4 3 1 7 7 7 6 4 2 3 7 7 8 8 6 2 3 5 8
11 12 4 2 2 4 4 4 5 3 6 6 2 9 3 3 5 7 4 8 7 7 10 9 13 13 11 9 8 4 1 0 2 6 10 9 7 4 1 1 4 11 12 8 7 4 3 2 2
7 3 0 2 7 6 4 7 7 3 3 4 4 7 5 1 5 6 6 7 7 8 9 8 10 11 11 9 6 4 1 1 3 8 11 9 7 4 3 5 5 11 10 6 7 7 6 5 5
4 2 0 2 7 6 4 9 9 3 1 5 7 4 4 4 5 8 9 9 6 8 8 7 9 9 9 8 5 4 2 3 3 7 8 7 7 6 5 4 5 7 6 7 8 8 8 8 8
2 2 2 5 7 7 7 15 13 4 0 4 3 2 4 7 6 9 10 9 6 5 7 7 9 10 8 8 7 5 4 3 4 4 6 4 5 4 3 5 4 4 5 6 7 8 8 9 9
5 3 5 5 6 7 5 10 5 6 5 2 4 2 4 10 9 12 12 12 10 8 7 7 10 10 10 9 8 6 5 4 3 3 2 4 4 4 2 1 1 3 5 7 8 8 9 9 10
4 4 4 5 5 10 6 5 8 5 5 4 1 4 3 11 12 14 15 13 13 12 10 10 10 11 10 8 7 5 4 2 1 1 2 4 5 4 3 1 2 5 6 6 7 7 8 9 10
4 2 6 9 8 10 7 3 15 14 6 5 3 3 11 8 14 16 18 16 16 17 15 14 11 11 10 9 7 5 3 2 2 3 4 6 7 5 4 1 2 4 5 5 7 7 7 8 10
7 6 10 7 11 7 10 5 11 6 3 4 4 3 9 14 16 15 15 14 15 17 17 17 14 13 12 10 8 5 4 3 5 7 6 5 4 2 0 2 3 5 4 6 8 10 10 12 12
6 10 6 7 21 18 12 8 17 10 5 8 5 4 2 12 12 15 12 13 13 11 16 16 16 15 13 12 9 6 6 6 7 6 4 4 2 1 1 2 4 4 7 8 8 10 11 13 12
8 10 16 10 18 14 4 9 9 13 13 9 9 10 9 12 15 18 17 16 16 19 17 16 17 17 15 11 10 7 7 6 7 5 5 3 2 2 1 2 4 4 6 8 11 12 13 13 14
6 6 17 21 23 26 29 19 14 21 24 19 16 17 19 21 21 20 21 21 18 20 21 20 18 20 18 14 11 11 10 5 5 6 4 4 5 3 5 5 6 7 9 11 12 15 14 15 13
9 12 13 18 22 21 19 24 21 26 25 24 17 18 22 21 25 24 19 23 23 20 20 21 20 19 19 17 15 13 10 8 7 7 8 7 7 10 8 8 9 9 10 13 15 14 12 14 16
8 9 9 9 10 7 20 24 22 23 25 24 19 23 26 26 27 25 23 24 25 26 20 22 22 20 22 21 16 14 14 14 14 14 12 10 8 9 10 9 9 10 13 11 11 13 16 18 19
3 3 4 4 9 7 9 28 9 20 23 28 27 32 32 32 31 27 25 25 25 21 22 23 23 22 22 22 19 17 18 17 16 14 11 9 8 8 6 8 10 8 8 11 14 16 18 18 18
4 6 6 4 7 4 12 26 14 26 25 25 31 32 32 31 25 23 22 21 20 20 23 26 25 23 23 23 23 21 20 19 15 13 10 9 9 8 8 7 5 8 11 13 15 16 16 16 15
12 7 6 6 4 8 18 23 10 17 29 26 31 31 33 24 28 22 20 19 21 22 22 23 24 27 28 27 25 23 20 18 13 12 11 9 6 5 3 4 7 10 13 14 14 13 13 15 17
6 8 11 4 6 11 14 19 17 19 23 19 33 34 24 27 25 20 16 15 18 20 21 24 28 31 31 31 28 24 21 18 16 13 10 9 7 3 2 6 9 12 15 16 16 15 14 16 20
14 16 14 9 10 12 11 16 16 17 20 24 28 28 26 26 26 21 17 16 18 17 18 22 29 33 32 27 29 26 21 18 15 14 14 9 5 1 4 8 11 14 16 16 15 16 16 16 20
16 16 10 12 12 18 14 22 16 15 21 28 27 34 31 35 31 24 21 20 18 19 21 24 28 29 28 27 27 24 21 18 19 17 12 8 3 2 5 9 13 16 16 15 15 15 17 18 18
17 7 13 13 8 8 2 11 9 9 16 15 23 24 33 37 31 27 26 25 22 22 24 26 27 27 26 24 24 23 22 23 19 14 10 6 2 2 7 11 14 17 17 15 14 15 16 18 20
8 8 10 10 9 7 18 8 8 11 12 18 20 28 36 43 37 35 32 28 26 26 27 27 26 24 22 19 19 20 22 20 17 13 9 6 2 4 8 12 15 17 16 15 14 15 16 18 19
2 6 5 5 4 10 17 11 12 12 15 10 9 28 34 42 40 37 34 32 30 28 27 28 28 26 22 21 23 22 21 19 15 12 9 5 3 6 10 13 16 16 15 14 15 16 17 19 20
11 6 3 4 6 9 9 12 18 8 15 17 16 23 32 42 43 41 39 36 35 33 31 30 29 28 26 25 23 22 18 15 12 10 7 5 4 7 10 13 15 15 15 15 16 18 19 21 24
14 15 4 6 3 6 6 9 6 15 23 23 24 32 38 41 46 45 41 39 38 35 34 32 31 30 28 25 24 22 18 15 13 10 7 5 6 9 12 14 15 15 15 16 18 20 22 24 26
5 11 19 6 6 4 6 4 7 12 9 7 13 31 37 43 47 46 42 40 39 36 34 32 31 29 28 26 24 21 18 15 13 10 6 5 7 10 13 14 15 16 16 18 20 23 25 26 27
10 7 6 7 5 6 5 5 7 8 14 7 13 22 32 37 42 45 42 40 37 35 33 31 29 28 28 26 22 20 17 15 12 8 6 6 8 11 14 15 16 16 17 19 22 25 26 27 28
11 13 6 8 7 3 5 6 8 14 10 12 14 27 34 39 45 45 42 38 37 35 33 31 30 28 27 24 22 19 16 13 10 7 6 7 10 13 15 15 16 16 19 22 24 25 27 28 28
17 18 17 8 8 9 1 7 5 15 10 17 19 27 29 34 43 43 41 39 36 34 32 30 29 26 24 22 20 17 15 12 9 7 6 8 12 14 15 15 16 18 21 24 26 27 27 29 30

GFSSGP_850_spd_015.txt.gz
Wind_Speed
14 14 15 8 3 4 3 4 1 7 2 1 8 5 4 3 3 3 11 8 4 7 11 12 16 14 13 11 8 5 5 5 2 10 13 8 6 4 5 4 2 4 5 4 4 5 1 7 6
13 13 8 1 3 2 5 4 2 3 5 7 1 3 3 0 1 5 9 8 8 7 9 11 16 15 13 11 8 6 7 4 0 9 15 11 8 4 4 6 9 8 6 6 3 1 2 4 7
10 9 4 3 3 4 5 4 3 8 9 4 1 4 1 3 3 10 6 9 10 10 10 11 14 15 12 10 8 6 5 3 4 8 10 8 6 3 2 3 9 9 8 6 6 5 3 2 1
6 3 1 3 7 6 5 4 3 8 4 3 4 2 1 3 3 4 8 10 10 10 10 9 12 13 11 10 7 5 3 3 6 8 9 9 6 5 5 3 6 7 7 7 7 7 7 6 5
6 2 1 3 6 5 5 7 5 7 8 0 2 2 2 2 6 6 8 10 8 10 10 9 11 11 9 10 7 5 3 2 5 9 9 9 6 4 5 4 4 5 5 6 7 8 8 8 8
4 2 2 7 6 4 6 10 6 4 8 1 4 3 3 5 4 6 8 9 8 7 9 9 10 10 9 9 7 6 4 3 4 7 7 7 7 5 5 5 3 2 3 5 6 7 7 7 7
4 3 5 5 5 6 6 3 3 5 6 3 6 4 2 8 6 7 7 9 8 8 8 8 9 10 10 9 8 7 6 5 4 4 5 6 7 6 6 4 2 1 3 5 6 6 6 6 6
4 3 3 6 6 11 4 2 4 3 6 2 3 4 2 6 9 11 10 9 11 11 10 8 9 12 12 10 10 8 6 4 4 3 3 5 7 6 4 3 2 3 4 5 5 5 5 5 6
5 1 7 8 8 8 2 1 4 6 5 6 4 6 2 4 12 15 14 14 16 16 14 12 11 13 13 12 10 9 6 5 4 4 4 6 8 6 5 3 3 4 4 4 5 6 6 8 9
6 5 7 4 4 5 2 6 9 5 14 7 4 3 4 6 15 16 17 16 17 17 18 16 14 14 14 14 13 9 6 6 6 6 7 7 7 5 3 2 2 2 2 4 4 5 8 9 11
4 10 7 4 11 14 7 6 12 6 6 13 9 5 2 5 16 16 14 14 13 14 18 18 16 16 16 15 13 10 7 7 8 9 7 6 5 4 3 2 0 2 4 6 8 10 10 13 14
5 5 11 7 12 7 4 5 5 10 9 14 13 9 6 9 14 15 16 16 20 18 20 18 17 19 18 15 13 9 8 7 8 8 7 5 3 3 1 1 3 5 5 7 10 12 14 17 16
5 3 10 16 19 22 24 20 13 19 26 28 24 22 18 15 16 16 18 18 24 26 26 24 21 20 19 17 14 11 9 7 8 8 6 5 4 6 3 4 5 5 8 10 13 15 18 18 16
4 7 10 10 15 17 15 20 22 17 23 25 27 25 24 22 25 22 19 22 26 27 26 27 25 21 20 19 15 11 11 9 8 8 7 7 7 7 6 6 6 8 10 13 17 17 16 17 18
6 6 6 7 8 7 8 21 23 26 27 25 28 28 26 24 24 23 23 22 23 25 25 24 27 24 21 19 15 12 12 13 12 11 10 8 9 10 8 8 9 11 13 15 14 16 18 20 20
3 2 2 3 10 8 10 23 4 22 31 31 31 32 28 31 30 29 26 25 24 27 28 26 28 26 22 20 18 18 18 17 15 14 12 11 10 9 9 8 8 11 10 13 16 19 20 20 20
5 7 4 5 7 5 12 13 6 24 25 25 28 29 30 32 31 28 27 26 26 28 27 26 28 26 24 24 22 21 19 19 18 15 12 10 9 8 8 7 6 7 11 13 15 16 18 19 17
4 4 3 5 4 3 13 19 11 22 23 24 27 35 36 34 29 26 26 23 21 21 22 25 30 29 28 27 25 23 21 19 18 14 12 9 8 8 6 4 6 8 11 13 14 15 16 17 18
5 5 5 4 7 6 8 15 13 16 21 23 27 30 34 37 30 23 23 23 21 21 20 25 31 32 32 31 29 25 23 20 15 12 11 10 9 7 3 4 6 10 14 16 17 15 14 16 19
11 13 16 7 9 9 12 21 15 12 18 21 25 31 39 35 30 22 25 24 22 22 24 27 29 32 35 34 28 26 22 19 16 13 13 12 9 5 2 5 9 12 15 16 15 14 14 15 19
10 12 10 13 9 13 12 29 21 18 23 28 31 34 38 38 34 26 29 27 23 22 23 26 30 33 35 33 27 27 23 19 17 16 16 13 9 4 2 6 10 12 15 15 14 14 15 15 15
19 9 13 12 5 6 5 12 8 6 16 19 25 29 36 35 32 31 33 28 25 21 21 21 24 31 33 30 25 26 24 21 20 20 17 12 8 4 4 7 10 13 15 14 13 14 14 16 17
10 7 10 10 7 7 15 8 6 11 18 14 10 24 33 35 33 32 34 30 25 22 22 21 24 30 30 26 24 25 24 22 23 21 16 12 7 5 6 8 11 13 15 14 13 13 15 17 18
1 9 7 7 8 14 11 12 16 12 12 8 9 25 32 34 31 35 35 29 26 24 24 25 27 28 26 23 22 22 23 25 25 21 16 11 8 6 7 9 12 14 14 14 14 15 16 17 19
12 5 3 4 7 8 8 11 24 6 7 12 13 24 31 33 35 38 37 33 30 30 30 29 28 27 25 22 22 22 24 23 20 17 13 10 8 7 8 11 13 14 15 15 15 16 17 19 21
16 15 5 6 4 4 12 10 9 15 24 32 31 25 21 32 37 42 42 38 36 35 34 33 30 28 27 25 26 26 24 22 19 15 12 10 8 8 10 12 14 15 15 15 17 18 20 21 23
5 11 19 8 8 4 5 7 6 9 11 11 14 21 26 31 37 45 45 41 38 36 36 34 33 31 29 28 28 26 24 21 17 14 12 10 8 9 10 12 14 15 16 17 18 20 22 23 24
17 7 4 6 5 7 7 6 8 5 15 14 12 12 26 31 38 44 48 45 40 37 35 33 31 31 30 28 26 25 22 19 16 14 11 9 9 10 11 13 15 15 17 18 21 23 23 25 25
7 13 7 4 5 4 4 8 4 8 12 10 10 18 27 33 38 42 47 42 38 36 35 33 32 31 30 28 26 24 22 19 16 13 10 9 9 10 12 14 15 17 18 21 23 24 25 26 27
13 14 17 4 5 7 5 10 2 9 15 7 7 18 24 28 33 43 45 42 39 37 34 33 31 30 29 27 25 22 19 17 14 11 9 9 9 11 13 15 16 18 20 22 24 25 26 28 28

GFSSGP_850_spd_018.txt.gz
Wind_Speed
13 13 13 7 3 5 3 5 2 4 2 2 3 4 4 2 4 4 11 11 8 9 13 16 17 12 11 7 6 3 2 4 2 12 9 7 6 3 6 3 3 4 4 2 6 5 4 9 7
12 11 7 1 4 2 5 4 3 4 6 9 4 4 1 2 2 4 11 11 11 10 12 14 16 13 11 8 6 4 4 2 2 16 12 9 5 3 7 9 9 8 5 5 3 2 2 4 5
10 8 2 4 4 6 5 3 4 8 14 5 2 2 1 2 2 9 6 11 12 13 12 13 16 14 10 8 6 3 2 2 4 12 12 6 5 6 6 8 9 9 7 8 7 6 5 4 2
5 2 3 3 7 6 6 3 3 10 8 2 1 0 0 2 3 5 5 9 11 14 13 12 14 14 9 8 6 3 2 2 5 7 9 9 5 5 3 2 4 6 7 8 9 9 9 8 7
5 1 1 2 6 4 4 4 6 6 5 5 3 2 2 3 6 4 6 9 10 14 13 12 12 12 10 9 6 4 2 2 5 8 10 9 6 2 2 2 3 4 5 6 6 7 7 7 6
4 3 2 6 6 3 5 8 6 4 7 8 3 3 3 3 3 5 7 7 9 10 11 11 11 10 9 9 6 5 3 2 4 8 9 10 7 5 4 4 2 2 4 5 6 6 6 6 6
5 4 5 4 5 4 5 5 4 5 5 5 4 4 3 5 5 5 8 8 7 8 9 8 9 9 9 8 7 5 4 3 4 7 8 8 8 6 5 4 1 2 3 4 5 5 6 6 7
3 3 3 5 5 8 4 4 4 3 4 4 3 3 2 3 7 7 9 10 10 8 9 8 9 10 9 9 9 6 4 4 4 4 6 7 8 8 6 3 3 3 4 4 4 5 6 5 5
4 2 5 6 7 5 2 1 2 4 4 9 3 4 2 4 9 10 10 12 13 13 12 11 10 11 11 10 9 8 6 6 5 4 5 6 7 6 5 4 4 3 3 1 2 3 5 7 8
5 3 6 5 5 4 5 5 9 5 10 11 11 6 6 5 11 14 13 12 13 12 13 14 12 12 13 13 12 10 8 8 7 6 5 7 8 7 5 4 3 2 0 3 4 6 8 8 10
4 6 3 4 5 9 6 6 6 4 5 11 12 11 7 6 14 16 15 13 11 10 12 13 14 14 14 15 13 12 10 8 8 9 8 7 7 5 5 4 3 2 3 5 6 7 9 11 14
2 7 7 4 10 7 3 6 8 10 16 10 14 13 13 10 14 15 15 14 12 13 14 14 16 16 15 15 14 12 10 9 9 10 8 7 5 5 5 3 1 3 4 6 7 10 13 16 17
4 3 6 8 12 15 18 16 14 18 26 28 28 27 22 19 16 16 15 15 17 19 18 21 19 19 17 17 16 14 10 9 9 9 7 6 5 5 3 3 4 5 5 8 12 13 15 17 15
2 3 7 8 10 11 10 16 16 22 20 23 22 26 25 24 23 22 22 21 21 22 23 25 24 24 21 19 18 15 12 10 10 8 8 8 6 7 5 6 6 7 9 11 14 15 15 16 18
4 4 6 8 10 7 10 15 17 28 30 33 39 33 30 29 25 27 22 18 20 24 24 28 27 26 26 22 19 16 13 14 12 10 10 8 6 7 8 9 9 10 12 13 13 15 17 18 18
3 2 3 5 4 7 12 20 3 17 22 31 38 39 36 32 28 29 26 26 24 24 22 22 26 26 28 25 21 20 18 16 13 12 11 10 8 7 9 9 9 11 10 11 14 17 18 18 17
5 5 5 6 3 4 11 4 2 4 12 16 24 27 27 31 32 31 31 28 25 24 24 23 26 26 29 26 26 22 19 18 16 14 13 11 9 10 9 8 9 8 10 12 14 17 18 17 15
4 4 4 5 3 5 9 15 13 21 26 23 26 29 28 30 33 30 27 23 25 24 22 21 25 25 30 29 28 23 21 19 19 16 14 12 9 10 8 8 6 7 10 13 15 16 17 18 18
2 3 7 4 8 9 14 19 17 15 20 20 27 29 33 36 32 28 28 24 24 21 19 19 22 26 32 32 30 26 25 22 21 18 14 10 8 10 8 5 5 7 11 14 17 17 17 18 20
8 10 13 9 10 11 13 25 18 15 19 26 22 29 27 34 35 33 25 26 24 22 21 20 23 29 33 32 33 29 24 24 21 18 13 10 12 10 7 5 5 9 13 16 18 17 17 18 21
6 10 7 11 7 12 13 28 19 22 31 33 36 36 38 34 36 35 28 23 25 25 24 23 24 29 33 33 33 28 24 24 21 18 14 14 13 10 7 4 6 10 14 17 18 18 18 17 17
14 7 12 11 5 6 4 11 9 8 11 14 28 28 33 36 36 35 28 28 27 27 24 24 26 29 32 33 33 26 26 23 19 18 17 17 14 10 6 5 7 11 14 16 17 17 17 17 17
6 6 9 10 7 8 10 6 5 4 8 9 10 25 32 35 36 37 32 28 30 28 25 23 24 28 32 34 30 26 25 21 20 20 19 18 14 10 6 6 9 11 14 15 16 16 16 17 18
1 6 6 5 8 10 12 10 17 7 11 9 11 28 31 30 31 34 32 29 31 28 25 22 23 26 31 33 29 25 25 23 22 23 22 18 14 9 6 8 10 12 14 15 16 16 16 17 19
10 3 3 5 6 8 9 12 21 7 6 10 12 21 28 31 28 32 33 31 32 30 27 25 25 28 32 31 28 25 25 23 21 23 21 17 12 8 8 8 11 13 14 15 16 16 17 19 20
12 11 5 4 4 4 5 7 6 13 20 28 32 27 28 23 25 28 33 33 34 33 30 29 30 31 33 30 27 24 22 21 22 21 18 15 11 9 8 9 12 13 15 16 16 17 18 20 21
5 11 14 7 7 4 4 8 11 9 11 11 18 24 29 27 21 25 30 36 37 35 33 32 33 33 33 29 27 25 24 25 23 21 17 13 10 8 9 11 13 14 16 17 18 19 20 22 23
9 3 3 5 4 5 6 10 11 13 8 9 13 11 25 26 27 27 32 40 40 37 36 34 33 32 30 28 26 26 26 24 21 18 15 11 10 9 10 11 14 16 17 17 19 20 22 23 24
6 8 7 1 4 4 3 6 7 7 4 15 17 22 26 29 28 31 34 42 42 38 37 36 35 32 30 28 28 27 25 22 19 16 13 11 10 10 11 12 15 16 17 18 20 22 23 25 27
13 11 19 8 6 5 4 14 2 5 7 11 15 18 11 22 27 32 36 41 40 38 37 36 36 33 29 28 27 25 23 20 17 14 12 11 10 10 11 14 15 17 17 20 22 24 25 27 28

GFSSGP_850_spd_021.txt.gz
Wind_Speed
11 11 11 6 1 2 2 4 2 3 1 2 6 4 3 2 3 2 8 12 10 13 16 19 18 16 14 7 6 3 1 3 6 11 9 7 8 3 6 3 2 4 3 3 7 8 11 8 7
9 9 6 1 2 1 3 3 3 1 6 12 3 3 1 2 3 1 12 11 13 14 15 18 19 15 12 7 5 2 1 3 9 12 8 7 3 6 11 9 8 7 5 4 3 4 4 6 5
8 6 2 3 2 5 4 4 3 6 11 2 3 4 2 2 3 8 5 10 13 15 14 16 16 13 10 7 5 2 0 3 9 16 14 7 10 8 7 8 10 10 8 9 8 6 5 5 3
2 1 3 2 7 4 5 3 1 7 5 2 3 4 3 3 3 7 7 12 14 16 16 16 16 14 9 7 5 3 1 2 8 13 11 9 5 2 4 5 7 6 7 8 8 8 7 6 5
4 2 1 2 6 3 4 5 4 3 5 7 5 2 2 3 5 4 7 9 12 15 16 17 16 14 10 8 6 4 2 2 6 10 13 9 5 4 2 1 4 4 5 5 5 6 5 5 4
5 4 2 7 8 3 5 9 3 3 7 7 3 4 2 2 4 6 10 9 9 12 14 15 16 14 10 8 7 4 3 2 5 10 12 11 7 5 5 3 1 2 3 4 4 5 5 6 7
6 4 5 4 6 4 4 6 5 5 4 4 3 2 2 3 5 7 10 10 10 12 11 12 13 13 11 9 7 5 4 4 5 10 11 11 9 6 5 3 2 1 2 3 4 5 6 5 5
6 3 5 5 8 9 3 5 3 3 2 3 2 2 2 1 6 7 10 11 10 11 11 11 12 12 12 10 8 5 5 5 6 9 9 9 9 9 7 5 4 3 3 4 3 4 3 3 5
7 3 5 7 8 5 1 1 1 4 4 6 3 6 4 5 8 9 10 11 12 12 12 12 11 11 11 11 9 7 6 6 6 6 7 9 9 8 7 7 5 4 3 2 1 3 5 7 7
4 4 8 5 5 3 3 3 4 4 7 7 14 7 6 8 10 12 12 10 12 12 14 14 12 12 12 13 11 9 8 8 7 6 6 8 9 9 8 6 5 3 1 1 3 5 7 9 10
3 5 4 4 5 3 3 4 4 5 6 13 11 9 6 7 9 15 15 12 9 8 11 13 14 13 13 13 13 11 10 9 9 8 8 9 9 9 7 6 5 3 2 4 5 7 9 11 14
2 7 5 3 8 5 3 5 6 10 16 15 11 14 15 13 12 13 17 14 12 10 9 11 13 15 14 14 14 12 12 10 10 10 10 9 8 7 7 5 3 3 3 5 6 9 12 15 17
3 2 5 6 8 10 12 15 13 20 26 27 24 24 27 24 18 15 14 17 16 15 12 13 14 16 16 16 16 15 13 11 11 12 11 10 7 7 6 4 5 4 4 6 9 13 15 15 15
3 3 7 10 13 12 13 20 10 22 22 28 30 31 29 26 23 20 20 20 20 17 17 17 18 19 20 19 18 16 15 13 13 13 10 9 9 8 7 6 6 6 7 8 12 14 14 16 17
5 5 7 9 11 8 8 15 14 30 29 30 32 35 37 37 32 28 24 24 22 20 19 21 22 24 24 24 20 19 17 16 13 12 12 11 8 8 8 8 8 7 9 12 11 14 16 17 16
2 3 3 3 1 7 11 13 9 15 17 24 31 32 37 39 39 35 29 27 23 21 21 22 24 27 26 26 25 22 20 17 16 14 12 12 12 10 7 8 8 8 9 9 12 15 17 17 16
3 4 5 5 4 3 9 6 2 3 6 11 15 18 23 27 32 37 35 31 27 26 27 25 27 25 24 27 27 25 23 20 19 17 16 15 14 10 7 9 9 8 7 10 13 15 16 15 12
4 4 4 5 1 4 12 18 16 20 21 23 24 26 30 27 24 22 25 31 27 25 26 25 27 25 23 26 31 29 27 23 22 21 19 18 14 9 7 9 8 6 7 10 12 14 14 15 15
1 3 6 3 6 10 15 23 20 25 26 26 27 28 30 33 33 29 25 25 27 24 23 26 26 27 27 29 35 33 30 26 25 23 22 18 13 9 8 9 7 6 6 9 11 12 14 15 17
12 13 15 10 5 7 14 27 19 19 24 30 31 29 30 37 36 34 31 29 24 25 24 24 23 23 25 31 36 35 32 29 27 27 24 19 13 9 11 8 6 5 7 9 11 13 15 17 19
10 11 12 16 7 12 16 26 17 15 28 33 34 38 36 36 37 39 34 30 28 25 25 26 24 24 26 32 36 34 32 30 31 29 24 19 14 13 12 9 6 6 7 10 12 14 14 16 17
15 8 13 13 7 7 2 10 6 7 13 11 17 27 34 36 39 41 37 32 28 23 25 26 23 24 26 32 37 35 33 32 30 28 24 19 16 16 12 9 6 6 8 11 13 15 16 16 16
7 5 7 8 9 12 13 7 7 2 4 9 10 25 30 32 33 36 39 34 28 28 26 27 25 24 27 33 36 34 30 30 27 26 21 19 19 17 13 9 6 6 9 11 14 16 16 17 17
4 3 8 4 7 9 11 11 19 7 6 5 8 20 27 27 29 30 32 34 31 29 29 27 26 26 28 32 36 31 30 31 28 23 22 22 21 16 12 8 6 7 10 12 14 15 16 17 17
11 3 3 4 6 7 6 11 19 8 16 18 18 21 28 25 24 30 31 31 35 33 31 30 28 28 30 33 36 32 31 26 23 22 24 25 21 16 12 8 8 9 11 13 15 15 16 17 17
16 10 5 5 5 4 1 8 8 14 18 22 22 27 31 32 27 21 25 29 35 34 33 31 30 30 32 35 37 36 30 24 23 23 26 24 19 15 10 9 9 10 12 14 15 15 16 18 19
5 10 9 7 11 8 8 12 9 12 10 4 11 18 24 31 29 26 24 28 34 35 34 33 31 31 33 35 37 33 28 26 27 27 26 22 18 13 10 9 9 11 13 14 15 16 17 18 19
6 3 4 5 4 8 6 7 11 4 7 3 7 12 25 24 22 23 21 25 33 37 37 33 30 32 33 36 34 30 28 26 28 27 24 20 15 12 9 9 10 12 13 15 16 17 18 18 20
7 6 6 2 5 4 5 7 7 11 6 6 7 14 27 30 18 24 27 26 33 39 38 35 33 34 35 33 30 29 29 29 28 24 20 16 13 10 9 9 10 12 14 15 16 17 18 20 22
18 16 19 9 12 5 3 13 2 4 5 6 10 19 25 27 16 18 25 28 33 37 36 36 36 36 35 32 30 29 30 30 26 22 17 14 12 10 9 9 11 12 14 16 17 18 20 22 23

GFSSGP_850_spd_024.txt.gz
Wind_Speed
8 7 7 4 6 5 7 4 4 3 4 1 5 6 4 6 3 1 3 14 14 16 18 18 15 13 12 9 8 5 2 3 9 12 9 8 8 7 3 1 2 2 3 10 10 9 5 5 6
6 5 3 3 6 8 7 6 7 1 5 8 6 8 8 2 1 2 10 11 16 17 17 17 19 15 11 7 7 5 3 6 12 11 8 5 3 10 8 7 7 6 5 4 6 8 6 10 7
5 2 5 4 8 12 6 7 6 2 4 3 3 4 3 1 1 5 5 11 17 18 17 18 19 16 12 8 6 4 4 7 14 12 7 11 12 10 8 8 8 8 7 7 7 6 4 3 3
4 3 3 9 14 10 9 2 3 3 2 1 3 5 2 3 3 5 7 13 18 17 17 17 18 15 12 9 7 4 5 8 16 15 12 10 7 5 5 5 6 6 6 6 7 6 5 4 4
7 5 9 12 18 13 9 7 8 6 5 4 4 1 1 1 4 6 7 9 15 17 16 16 16 14 11 9 7 5 4 7 10 12 12 10 5 3 3 0 3 3 4 4 4 5 5 5 5
9 8 8 15 17 10 11 12 11 11 7 7 5 5 0 2 3 6 9 11 14 16 16 15 16 15 11 8 7 5 4 6 10 13 15 11 8 5 5 4 0 0 2 2 4 5 6 6 5
14 10 16 17 14 14 12 8 13 12 10 8 3 5 2 2 3 8 13 14 15 15 14 14 15 16 12 9 8 6 5 5 10 13 13 12 10 5 7 5 3 2 2 3 4 5 3 2 3
10 7 15 13 14 18 6 8 6 9 6 3 3 5 4 2 6 9 12 13 14 16 14 14 15 14 13 11 9 6 5 5 8 12 12 11 10 7 7 5 5 3 3 3 3 1 3 4 6
6 8 12 20 16 11 5 9 9 4 7 3 4 3 1 4 8 10 12 13 13 14 15 15 15 14 13 12 11 9 7 7 7 10 11 11 9 10 7 7 5 4 3 2 1 3 4 8 9
12 11 16 10 12 7 9 6 4 6 10 12 8 3 2 3 6 11 12 13 14 15 16 15 15 15 15 13 12 11 10 9 9 8 10 10 11 10 10 8 6 4 3 2 3 4 5 8 10
10 14 11 7 10 6 11 11 11 12 13 15 14 7 4 2 2 10 13 13 12 13 14 15 16 15 16 15 14 12 12 11 10 10 10 11 12 11 8 6 4 3 3 4 4 6 8 10 13
9 14 13 7 9 7 12 11 14 18 23 12 10 11 12 11 10 8 11 13 13 14 15 14 15 15 16 15 15 14 13 13 12 11 11 11 10 11 7 6 7 5 4 5 6 10 11 14 15
12 9 8 10 10 13 15 21 22 23 25 24 23 21 20 19 18 13 11 12 14 15 15 16 16 16 16 17 16 16 15 15 13 13 14 12 11 10 10 8 5 5 6 6 9 13 14 14 15
2 6 10 10 14 14 17 24 21 29 27 28 29 31 30 27 25 20 16 13 15 16 16 16 17 18 19 19 18 17 17 15 14 14 16 14 12 10 8 7 8 7 7 8 11 15 13 15 16
6 10 12 15 15 14 12 19 20 34 28 31 28 28 27 29 28 28 24 19 16 16 16 18 19 20 21 22 21 19 19 18 16 15 16 15 12 11 10 9 8 8 8 10 13 12 13 16 17
4 5 5 4 3 6 9 16 6 13 17 23 24 27 30 30 31 32 30 25 21 17 18 19 19 19 22 22 22 21 21 19 17 17 17 15 12 11 11 9 8 9 10 10 10 12 14 15 15
8 8 9 10 8 7 12 12 6 3 7 13 16 18 19 22 25 28 30 28 26 23 20 24 23 22 22 22 22 23 22 22 23 20 18 15 15 15 13 9 8 11 9 7 9 12 13 13 12
6 10 10 11 2 8 16 21 19 24 27 25 25 25 25 24 23 19 22 25 27 29 27 27 27 25 25 21 23 24 23 27 26 22 21 19 20 18 14 11 9 10 7 6 8 10 12 12 13
5 8 11 10 9 17 19 23 23 26 31 31 32 32 32 33 29 25 23 21 20 27 31 28 27 26 26 24 30 35 35 33 30 26 24 23 21 18 14 12 10 9 6 5 6 9 11 13 14
13 15 17 16 14 13 19 32 25 27 33 34 34 35 35 35 33 32 29 27 25 23 27 30 27 27 28 28 27 32 38 35 31 29 27 27 25 19 17 13 12 8 5 4 6 9 12 14 15
16 17 15 17 17 19 21 26 12 5 13 21 28 33 34 33 33 33 33 32 28 26 26 30 30 28 27 26 27 37 38 38 34 32 31 29 26 21 17 15 12 8 5 5 6 9 11 12 14
15 12 14 13 11 6 2 11 16 14 14 11 14 18 22 24 28 32 35 32 32 29 31 30 32 29 29 31 33 37 40 39 36 34 33 31 25 21 18 16 12 9 6 6 7 10 11 12 11
7 5 7 9 12 13 17 7 11 5 11 10 14 19 21 20 22 27 29 33 30 31 34 33 32 30 31 28 30 36 38 36 36 36 34 30 25 22 19 17 13 9 7 6 8 10 12 12 12
3 6 10 10 8 9 18 15 20 15 12 9 8 12 18 20 17 21 23 24 27 27 34 34 33 32 30 29 31 36 40 37 36 38 34 29 25 23 21 17 13 9 7 7 9 11 12 14 13
12 4 3 4 6 8 2 11 21 6 6 10 19 22 18 20 21 19 18 22 23 27 33 35 35 33 32 31 32 36 36 33 36 34 32 27 25 24 22 16 12 9 7 8 9 11 13 14 14
15 13 6 6 6 7 2 12 8 10 12 15 10 16 14 19 20 23 21 20 23 28 31 34 36 35 33 33 34 34 36 33 36 32 29 25 25 25 21 15 12 9 8 8 10 12 13 14 15
6 10 14 15 22 14 15 23 26 26 24 17 16 8 11 19 20 17 20 19 20 25 32 36 36 34 33 33 34 34 37 36 37 33 29 28 27 24 19 14 11 9 8 9 10 12 14 14 15
13 1 5 6 6 12 14 17 14 13 11 8 9 4 12 16 22 15 15 16 20 23 30 33 32 32 33 33 36 35 34 35 33 32 29 26 26 21 17 13 10 9 9 10 11 13 14 14 17
9 7 7 8 10 8 17 14 8 9 12 16 4 7 9 16 20 20 9 10 15 20 26 30 30 31 33 34 35 36 35 34 35 31 29 27 23 19 15 11 9 9 9 10 12 13 15 16 19
17 13 20 9 11 8 12 18 7 5 2 4 6 7 8 12 16 19 5 8 14 21 25 28 31 32 33 35 36 34 32 33 31 30 28 24 20 17 13 10 9 8 9 11 12 14 16 18 20

GFSSGP_850_spd_027.txt.gz
Wind_Speed
7 7 7 8 6 7 12 9 11 5 5 8 3 7 8 12 9 2 9 5 13 18 17 16 15 12 11 8 7 5 2 2 7 11 10 9 4 1 0 3 4 4 3 7 7 4 2 3 3
5 6 7 11 7 12 11 12 8 9 3 5 10 11 10 8 5 5 11 9 16 18 17 17 16 13 10 7 6 4 3 8 12 12 7 3 5 5 5 6 7 6 5 5 8 7 6 7 6
4 6 10 6 13 14 12 5 7 4 6 6 4 6 4 2 3 7 6 13 17 16 15 17 17 16 10 6 6 4 5 10 11 9 4 10 14 12 9 9 9 9 8 7 5 4 2 1 2
6 10 10 11 17 15 16 1 2 6 5 3 2 6 5 2 3 5 12 15 17 16 15 18 17 14 10 7 5 4 5 11 12 10 12 11 10 8 7 7 7 7 7 7 6 6 5 5 5
11 12 11 15 21 20 9 10 7 8 3 6 4 8 2 4 7 8 12 14 17 16 15 15 17 13 10 8 6 4 5 9 13 11 10 8 6 5 4 4 4 4 4 5 5 5 5 5 6
13 13 12 16 20 19 17 12 12 13 11 8 9 10 3 6 7 9 11 14 16 17 14 14 16 13 10 8 7 5 6 8 10 12 12 9 6 3 4 3 1 1 2 3 5 5 5 5 5
17 11 17 20 18 18 15 14 13 15 16 14 7 8 8 7 5 9 11 13 15 15 15 12 15 15 11 8 7 6 5 7 11 14 14 10 7 3 7 6 2 1 1 2 4 4 3 3 4
19 14 21 19 18 21 13 10 14 15 16 4 5 7 4 6 6 9 10 12 14 15 15 15 15 15 14 12 10 7 7 7 12 13 12 10 8 5 6 4 4 2 3 2 2 2 3 5 7
13 13 16 21 22 15 13 8 15 11 14 8 11 11 4 5 8 9 10 11 13 14 15 16 15 16 14 13 12 10 9 9 11 13 12 11 6 6 4 6 3 3 3 1 1 3 5 8 6
13 13 20 16 15 16 15 12 16 10 17 17 13 8 2 3 8 11 11 12 14 15 17 17 19 16 17 15 14 11 10 10 9 11 12 11 9 8 10 7 5 4 3 2 2 4 6 5 4
16 18 14 17 11 10 14 14 16 13 15 17 20 15 9 6 7 11 13 13 14 15 16 17 17 18 20 18 17 13 11 9 10 10 10 11 11 13 10 6 4 3 4 2 3 6 7 9 11
16 17 22 15 9 13 13 19 19 22 21 18 14 13 9 11 13 11 14 16 15 16 17 18 18 18 17 19 17 15 15 13 12 12 13 12 11 9 8 5 10 6 5 3 4 6 11 13 12
13 17 15 16 17 16 17 21 21 22 22 22 24 20 19 19 18 16 14 14 17 18 18 18 19 20 18 17 15 14 15 15 14 13 13 12 12 11 9 11 8 6 4 4 8 8 11 13 13
2 13 15 16 18 18 19 23 24 21 28 29 29 28 28 28 25 21 19 16 17 19 18 18 20 20 19 19 17 16 16 16 19 15 16 15 13 13 14 11 9 7 5 7 8 11 13 13 14
9 14 14 19 21 15 14 20 24 33 30 30 30 29 31 32 30 30 26 23 19 18 19 19 20 20 21 20 19 17 17 17 20 16 16 16 16 18 12 10 7 7 8 9 9 11 11 13 13
6 11 11 3 9 14 10 17 10 13 20 26 30 30 31 30 30 31 30 28 24 20 19 20 21 21 20 20 19 19 18 18 21 18 18 18 18 13 11 12 10 7 9 10 10 9 10 11 12
11 10 14 10 10 8 14 12 9 6 10 18 18 21 25 27 29 31 31 31 30 27 24 22 23 23 23 23 22 21 20 22 23 21 21 22 17 15 14 13 10 9 10 10 7 7 8 9 11
9 15 12 12 4 7 15 21 20 23 23 22 23 23 24 25 25 25 27 30 31 31 28 25 24 24 22 22 24 22 24 25 24 24 23 21 19 17 16 15 13 10 9 8 5 6 7 8 10
9 8 11 10 9 16 21 22 20 23 27 28 29 30 32 32 29 27 27 27 28 34 33 31 29 27 25 26 27 28 31 30 33 29 27 24 22 20 19 17 15 11 10 7 5 5 7 9 11
13 14 15 14 14 13 17 28 25 27 29 31 32 35 35 35 34 33 32 30 30 31 32 31 31 28 27 27 28 29 32 35 36 33 30 27 25 23 21 19 16 13 10 7 5 5 8 10 11
13 13 12 14 17 18 21 24 15 7 10 19 29 34 37 36 34 33 34 35 35 34 34 34 33 31 29 27 27 29 35 41 40 36 35 32 29 25 23 20 17 14 11 7 5 5 6 9 11
13 10 13 14 9 6 3 10 15 15 16 14 15 17 20 22 24 29 33 33 35 36 35 34 33 32 31 31 32 36 40 42 42 39 37 33 31 29 25 21 19 15 11 8 5 6 7 8 10
7 2 6 8 10 13 14 7 13 5 11 12 13 16 15 17 19 21 25 29 33 33 35 33 31 30 30 35 30 34 36 31 38 37 36 34 33 29 25 23 19 15 12 8 6 7 8 9 9
3 5 7 9 6 8 11 15 19 11 15 14 12 20 12 11 13 16 18 22 26 30 29 33 34 31 30 31 37 36 31 32 39 41 40 36 34 30 25 24 20 16 12 8 7 8 9 10 11
9 2 2 3 5 7 5 10 20 11 17 7 7 10 18 13 15 19 21 20 22 25 32 29 32 32 31 34 32 30 30 35 36 40 39 37 34 30 24 24 20 16 12 9 8 8 10 11 12
14 10 5 5 7 10 8 10 7 8 5 7 15 23 19 17 14 15 20 23 21 24 28 30 30 32 32 33 31 28 34 34 33 36 39 35 32 29 26 24 20 15 11 9 8 9 11 13 14
6 9 11 13 18 11 9 21 24 26 24 21 21 22 20 14 13 14 17 18 22 22 26 30 30 31 30 29 28 32 34 33 33 35 34 33 29 27 25 22 18 14 10 9 8 10 12 13 14
10 4 1 4 5 10 13 20 14 15 14 15 12 17 17 11 15 16 15 14 18 19 24 29 29 29 28 27 29 32 33 33 32 35 35 32 27 24 23 21 16 12 9 8 9 11 12 13 15
10 6 6 6 5 6 14 13 10 10 5 9 7 7 7 11 13 14 17 8 13 17 21 27 28 28 28 28 30 32 33 35 34 35 35 31 26 24 22 19 14 10 8 8 10 12 13 14 15
12 13 17 7 9 7 12 20 13 11 10 5 11 9 9 9 11 12 13 4 7 13 19 24 27 28 30 30 31 33 34 33 35 35 32 28 25 23 20 16 12 9 8 9 11 13 14 15 17

GFSSGP_850_spd_030.txt.gz
Wind_Speed
7 4 7 10 2 4 8 11 1 1 1 9 7 5 7 14 3 3 16 8 14 15 17 15 13 13 12 12 10 7 5 5 8 9 9 6 3 4 4 5 7 7 6 7 7 5 5 2 2
7 2 8 7 4 6 8 14 7 4 2 8 8 10 8 3 9 11 15 14 16 12 18 16 15 13 11 10 8 6 7 11 15 11 6 3 2 1 3 9 10 9 6 5 6 6 5 5 4
6 2 8 3 5 10 9 8 6 7 6 4 7 13 13 5 11 11 8 19 18 14 14 17 15 14 11 8 6 5 9 13 12 9 5 8 12 11 11 11 11 11 10 8 5 3 2 2 2
2 6 10 6 13 12 18 15 5 5 4 3 8 5 6 7 5 8 13 20 20 10 14 14 15 15 9 7 6 5 8 12 10 6 12 12 12 10 9 10 10 10 10 10 9 8 7 7 8
9 7 6 8 14 16 16 16 4 1 7 4 8 9 8 7 8 9 17 20 20 20 19 14 12 14 9 7 6 6 8 12 12 10 12 9 9 8 6 7 8 8 8 8 8 8 8 8 8
8 7 5 13 15 14 15 25 7 6 14 10 0 12 6 11 10 12 17 21 20 18 17 15 15 13 10 8 7 7 8 11 13 12 10 8 7 5 4 4 5 5 5 6 7 8 8 7 6
11 7 10 13 14 12 12 21 6 7 11 12 10 4 14 15 13 12 16 19 20 14 14 18 19 15 12 9 8 8 8 10 13 12 11 9 7 6 7 5 3 3 4 5 6 6 5 5 5
13 5 15 14 12 14 14 13 12 8 12 13 1 2 6 9 11 14 14 17 19 18 13 14 20 18 16 13 11 10 9 10 12 13 12 10 7 6 7 5 3 3 3 4 4 3 3 5 6
16 6 11 17 14 12 18 8 8 8 11 12 5 11 10 10 13 15 16 16 18 18 17 14 14 17 17 15 14 12 10 10 13 13 12 11 7 5 6 4 4 3 3 3 2 2 4 5 5
7 8 11 11 12 11 18 9 5 5 12 15 13 7 3 8 13 15 16 17 19 19 20 18 13 14 15 14 15 14 12 12 11 12 12 11 7 6 7 5 4 3 3 2 1 2 3 3 6
11 13 9 16 22 9 12 17 8 7 5 13 19 14 13 9 12 14 14 15 18 18 19 22 18 16 18 20 15 14 13 13 13 13 14 14 13 14 11 7 6 5 5 3 1 3 4 6 8
16 16 19 22 21 7 6 14 13 14 14 19 22 11 7 16 12 12 16 17 19 20 20 20 23 20 21 19 19 14 11 9 10 10 11 15 18 15 14 6 6 6 5 2 3 3 5 7 9
11 16 17 16 19 11 10 12 13 21 19 22 26 24 15 11 11 14 15 16 18 20 20 22 22 25 24 20 20 18 17 12 12 13 14 16 15 11 9 11 13 12 7 5 4 5 7 9 9
7 10 14 22 10 13 14 13 19 15 24 27 26 27 24 21 20 20 19 17 18 21 21 23 25 27 26 21 18 18 21 18 17 18 14 14 13 12 17 21 18 10 6 6 8 8 8 9 11
5 7 10 14 13 10 7 15 17 29 32 31 29 30 32 32 27 27 27 24 22 22 24 25 25 29 28 25 19 16 21 21 23 17 17 18 18 20 25 21 11 8 7 9 10 8 7 9 9
4 9 10 10 18 17 15 15 10 25 30 32 34 32 31 32 34 35 34 31 28 24 24 25 28 30 27 30 29 25 25 24 24 21 21 19 22 24 21 15 11 9 9 11 10 8 7 7 8
8 7 11 10 5 4 8 5 11 20 11 12 16 27 30 34 33 31 32 35 34 29 26 28 30 32 29 30 29 29 26 25 23 23 22 18 26 21 18 14 14 13 12 12 10 7 5 6 7
7 11 9 9 5 4 8 13 11 22 25 21 20 21 21 23 24 27 32 34 33 36 31 31 29 30 28 28 30 27 28 28 25 25 27 26 27 22 18 18 17 14 12 10 9 6 3 4 7
12 10 8 10 9 9 10 16 14 20 24 24 27 27 29 32 29 26 27 29 30 34 38 30 35 36 37 33 35 34 34 31 29 26 30 32 29 24 22 22 19 16 14 11 8 5 3 4 7
6 7 10 9 8 7 11 22 20 20 24 30 29 31 31 31 32 34 32 29 34 35 33 41 32 34 35 38 37 38 36 35 32 32 34 35 28 28 26 24 20 17 13 12 9 5 4 3 6
7 7 7 9 11 11 14 17 11 9 21 33 36 36 34 35 33 33 35 35 34 35 38 35 37 35 33 36 36 36 34 38 36 37 38 41 33 30 28 25 21 18 15 13 9 6 4 5 5
5 3 6 8 7 3 10 7 8 11 9 7 17 20 27 31 32 35 36 33 32 40 36 38 34 39 36 38 39 42 44 43 43 44 44 41 34 31 30 27 23 19 17 14 10 6 4 6 7
3 7 4 5 6 8 4 4 7 7 7 5 8 13 12 17 19 21 23 26 35 33 31 37 39 35 41 38 43 44 46 43 42 44 41 36 36 34 32 28 24 21 18 15 10 7 5 6 8
5 1 2 4 2 5 12 10 6 3 3 4 9 5 22 14 6 5 9 12 17 22 32 30 36 39 37 38 43 46 47 44 43 43 42 38 39 37 33 29 25 22 19 16 11 8 7 7 8
7 2 2 2 2 6 4 9 12 15 18 13 7 3 8 2 7 8 11 17 19 23 27 28 32 37 40 35 42 43 43 43 39 41 41 43 42 38 35 30 27 24 21 15 11 8 8 8 10
8 4 3 5 3 3 7 7 6 10 8 4 5 8 16 22 7 5 9 17 25 25 25 28 31 33 39 36 40 39 40 36 35 34 39 41 42 40 35 30 26 24 19 16 12 9 9 9 10
4 5 1 5 5 2 5 7 10 14 16 14 14 13 25 18 11 6 10 17 23 24 26 26 31 33 34 36 39 40 33 34 34 33 39 41 41 37 33 30 26 22 19 15 12 9 9 10 12
8 1 2 0 3 6 6 9 9 6 7 8 8 7 9 18 6 4 11 19 20 18 21 25 30 34 35 39 37 34 35 37 31 30 38 41 38 35 32 28 24 22 18 13 10 9 9 10 13
7 4 4 3 3 4 5 5 4 5 6 5 8 11 11 7 4 6 10 19 15 16 15 23 28 30 33 34 37 36 38 34 29 29 34 37 37 33 29 26 24 20 15 11 9 9 10 12 13
12 7 10 3 5 5 3 11 13 7 7 6 11 10 11 11 9 6 7 14 15 12 15 22 25 28 35 37 37 38 36 31 32 32 37 37 33 29 27 25 22 18 13 10 9 9 11 13 14

GFSSGP_850_spd_033.txt.gz
Wind_Speed
7 5 1 5 3 4 3 8 3 7 3 6 10 6 2 3 1 3 12 14 10 17 20 19 18 18 17 16 14 12 10 10 10 10 8 7 4 3 5 7 9 10 12 13 12 9 6 4 2
7 5 4 2 4 1 5 8 11 8 6 8 8 8 4 2 6 14 14 11 13 17 21 19 19 18 17 15 12 10 11 15 15 13 9 6 4 3 8 11 11 10 10 12 12 9 6 4 3
8 4 2 4 4 6 5 5 7 3 10 7 3 10 2 3 8 20 10 15 15 18 20 20 20 17 15 14 12 12 15 18 15 10 6 8 12 11 12 13 13 13 12 11 9 7 4 4 6
8 4 5 2 8 7 12 9 5 2 5 6 1 5 5 6 9 12 20 16 15 16 19 19 19 17 15 13 12 13 15 15 13 11 14 15 14 12 12 12 13 13 13 12 11 10 10 11 11
8 4 2 4 9 6 8 15 18 2 3 5 5 2 5 5 9 15 24 17 16 16 19 17 18 17 14 12 11 13 15 14 13 16 14 13 12 10 11 11 12 11 11 11 10 10 11 11 11
5 4 1 9 6 5 10 29 14 5 3 3 3 0 4 9 9 22 25 20 16 14 16 14 14 16 13 12 11 11 14 13 14 15 13 11 9 8 9 9 10 10 10 10 10 10 9 8 7
6 3 6 4 5 6 11 29 6 11 8 8 5 3 10 12 9 21 25 20 18 16 17 16 15 14 12 12 10 10 11 14 14 14 12 11 9 8 9 8 8 8 9 9 9 8 6 6 5
7 3 4 6 8 8 14 10 16 17 8 5 3 4 6 17 11 16 23 22 20 19 16 16 20 18 16 14 12 11 11 11 13 13 14 12 10 10 9 8 7 7 8 8 7 5 4 4 5
14 2 5 8 8 7 23 6 11 4 9 7 2 12 19 15 16 18 22 20 20 19 18 15 22 20 18 15 14 13 13 12 13 14 14 13 10 10 10 7 7 7 7 6 5 4 2 2 2
7 6 7 4 9 7 12 4 9 5 5 2 3 14 16 15 20 21 24 26 24 22 19 17 16 19 19 17 16 16 15 14 14 16 15 13 11 9 7 7 6 7 7 6 4 3 1 1 1
5 5 4 14 22 12 5 8 9 5 2 11 10 13 15 13 20 21 22 24 26 23 20 20 17 14 19 21 18 18 15 14 14 16 16 15 14 10 8 6 7 7 7 6 5 3 2 2 3
5 6 20 21 28 16 4 8 8 2 5 9 7 10 9 19 21 23 22 22 25 26 24 22 20 18 18 16 18 18 17 16 16 17 18 19 16 13 10 8 9 9 6 7 6 4 3 3 4
6 7 20 21 21 12 9 7 7 14 18 14 17 15 11 11 16 18 21 22 26 27 25 28 25 23 23 21 19 18 18 17 14 17 17 21 18 15 15 13 12 9 7 8 7 6 5 5 6
5 7 4 8 14 11 7 9 9 4 21 25 25 26 23 17 16 20 19 20 25 25 28 27 31 28 27 26 23 21 21 17 14 15 13 18 17 15 18 18 15 10 9 10 8 7 7 8 7
4 2 6 7 11 6 11 7 7 20 29 29 31 32 36 30 28 25 26 25 18 23 25 31 31 29 29 30 26 20 22 19 18 16 16 15 17 18 20 16 15 13 13 11 9 9 9 8 7
3 3 1 7 11 13 12 13 6 19 26 26 32 37 38 42 33 32 32 30 31 23 29 29 34 32 31 32 31 25 25 25 25 22 21 18 20 21 21 21 19 17 15 12 11 11 10 8 6
2 3 5 6 10 7 11 3 13 26 19 22 22 30 35 38 40 38 33 33 39 35 28 30 35 35 33 33 33 29 27 29 30 28 24 23 23 26 24 23 21 18 16 14 12 12 9 6 4
6 5 4 6 5 2 5 9 7 20 22 23 25 27 24 26 37 32 36 36 33 36 39 33 37 38 37 34 33 32 29 30 29 29 29 28 27 28 27 24 22 21 19 15 13 11 8 5 3
4 4 4 4 5 2 6 8 10 18 21 24 28 29 37 37 33 26 23 27 38 38 37 40 35 42 41 40 38 37 37 34 33 32 31 32 30 25 25 26 25 24 20 16 13 11 8 6 3
4 5 5 5 5 5 10 21 18 19 27 30 34 29 36 39 41 38 34 29 26 30 36 39 42 35 40 43 40 37 37 39 38 35 33 33 34 30 26 29 29 26 23 18 15 12 9 6 4
1 3 4 5 6 5 8 10 8 7 19 30 32 37 35 41 41 39 35 35 37 32 31 35 36 34 36 43 42 40 38 41 40 39 38 37 37 32 32 32 30 27 23 18 16 14 11 8 5
0 4 4 4 5 4 5 7 7 8 9 7 18 27 34 37 39 42 39 35 32 36 35 33 35 38 32 40 45 45 44 46 45 44 44 41 38 34 37 34 31 27 24 20 18 15 12 9 6
3 6 4 3 3 5 2 2 7 6 6 7 7 12 26 26 25 23 22 25 26 34 34 26 40 38 39 33 46 47 48 46 46 46 46 44 41 41 38 36 33 29 25 22 20 17 13 10 7
4 3 3 3 2 3 8 6 5 3 5 2 4 14 5 22 27 22 10 7 8 15 17 25 32 32 39 41 40 46 52 50 47 46 46 46 43 39 40 37 34 31 27 25 22 17 13 11 8
4 5 3 3 1 6 1 5 6 9 10 4 10 11 5 8 6 11 12 14 12 13 14 17 22 27 31 43 44 46 49 50 49 47 48 47 44 39 41 40 37 33 27 25 22 19 14 11 9
5 6 4 5 3 4 1 7 6 12 17 15 12 12 13 16 12 13 13 12 14 16 15 23 26 29 32 34 46 44 46 49 46 44 47 46 43 37 40 40 36 31 29 26 23 19 15 12 10
4 3 2 1 2 3 5 7 8 8 7 8 5 7 12 19 22 13 10 9 6 13 17 21 24 28 30 35 40 44 45 46 40 43 43 41 42 39 38 40 36 31 28 25 22 18 14 11 10
4 4 3 2 3 5 5 5 7 5 5 6 8 12 14 6 7 5 8 6 7 10 15 18 19 26 29 32 38 41 44 42 39 40 39 37 38 39 40 39 34 32 28 24 21 16 13 11 11
3 4 4 2 4 3 4 5 5 4 2 3 6 13 19 17 14 14 13 10 10 15 17 18 17 23 29 34 38 39 38 36 35 35 31 32 39 41 41 39 35 28 26 24 18 14 12 10 11
5 5 5 4 5 4 2 7 15 17 5 13 21 28 33 36 32 18 12 10 9 14 19 19 16 22 28 32 34 34 33 32 35 30 28 32 40 41 41 35 30 27 24 20 16 12 11 11 12

GFSSGP_850_spd_036.txt.gz
Wind_Speed
8 6 5 2 3 4 3 6 3 8 6 3 4 6 3 1 3 3 9 14 9 19 21 20 20 21 19 17 15 14 12 12 12 10 7 6 5 2 4 7 12 13 18 16 14 11 8 4 1
8 6 4 1 4 1 5 4 8 7 16 9 5 4 4 1 2 7 16 14 6 15 22 20 21 20 18 17 15 13 13 13 12 11 9 7 5 5 8 10 13 15 17 15 14 11 8 4 2
9 7 4 4 3 6 5 4 3 7 4 5 2 6 5 3 6 10 6 16 15 16 20 21 21 20 19 17 14 13 13 15 15 11 8 6 9 10 10 12 12 14 15 15 12 9 6 3 8
8 5 3 4 8 7 7 4 4 13 11 1 3 5 4 6 9 10 9 15 16 20 22 22 22 21 18 15 15 16 15 16 13 10 10 13 12 11 12 12 13 13 13 11 10 9 9 10 12
12 4 2 3 8 6 6 8 17 9 9 5 4 3 3 6 5 10 11 15 17 21 21 22 22 20 18 15 15 16 15 15 13 14 14 13 12 11 11 11 12 12 13 12 12 11 12 12 11
7 3 2 8 6 5 8 15 10 9 19 4 3 7 3 7 10 11 14 16 16 18 22 20 21 18 16 14 13 13 13 14 15 15 14 12 11 10 11 11 11 11 11 11 12 12 10 9 8
5 4 5 5 6 7 11 4 6 12 18 10 6 5 6 11 16 14 16 16 16 14 21 20 19 17 15 14 14 14 12 13 14 15 13 12 9 9 10 10 10 10 10 11 10 8 7 6 5
7 4 3 5 6 7 7 3 9 12 18 14 8 7 5 16 21 22 19 18 18 16 17 17 17 18 16 15 14 14 13 13 14 15 13 12 10 10 10 9 9 9 10 10 7 6 4 4 4
10 3 4 5 7 4 7 4 11 14 8 6 5 13 8 18 21 27 24 23 21 20 19 17 17 19 17 16 16 15 14 14 15 16 14 13 11 12 11 9 9 9 9 8 6 5 3 3 3
6 5 8 5 5 3 8 3 9 8 6 1 9 11 17 19 21 29 28 28 27 25 22 18 17 20 19 19 19 18 17 17 16 17 17 16 13 13 11 10 10 10 10 8 7 5 3 4 3
5 5 8 7 12 8 5 12 5 3 5 4 4 19 20 21 23 27 27 28 28 25 23 21 17 18 21 22 19 19 18 17 17 18 18 18 16 15 13 13 11 11 10 9 7 6 5 4 4
3 9 13 5 16 10 4 10 3 8 7 4 2 7 11 20 25 28 30 30 29 27 26 23 21 20 20 21 23 21 21 20 20 21 21 21 19 16 15 13 12 11 10 10 8 7 6 5 5
3 3 10 14 17 10 12 9 9 11 17 17 13 8 9 13 22 27 27 29 27 27 28 27 24 24 23 21 20 21 23 22 20 21 23 23 21 18 17 14 13 12 12 11 10 8 7 7 7
2 14 12 13 9 6 7 8 13 5 12 24 25 22 18 14 13 21 26 29 29 29 29 29 27 25 25 24 24 21 21 23 23 23 23 25 23 20 18 17 16 14 12 10 10 9 8 8 8
7 5 3 6 5 4 4 15 8 18 26 29 33 31 30 27 23 24 22 23 23 24 37 35 31 29 27 27 26 24 23 22 25 22 22 23 23 21 19 20 20 16 13 11 12 11 10 10 10
5 3 2 4 4 7 9 19 3 12 21 28 30 30 28 30 31 32 32 30 29 25 23 38 41 36 31 30 29 28 25 23 28 23 23 23 21 22 22 23 21 18 17 14 14 12 12 11 9
1 2 4 7 8 6 9 2 10 29 27 21 25 28 30 28 33 34 39 39 38 36 31 28 36 45 37 34 32 30 29 27 29 26 24 24 22 23 24 24 21 20 19 17 15 13 13 12 10
6 4 3 5 3 1 7 8 11 15 11 21 25 29 31 32 33 32 33 33 41 44 42 38 33 35 43 39 34 35 33 31 28 28 27 27 25 24 26 24 22 23 22 21 18 15 14 12 10
2 2 2 4 3 5 7 5 10 19 17 20 29 31 38 39 39 34 27 27 31 37 39 39 37 37 40 45 40 38 37 35 32 31 32 31 30 29 26 27 26 27 26 22 19 17 16 14 11
2 2 5 6 2 3 7 15 16 14 20 26 32 36 35 41 43 41 35 31 29 25 29 41 39 37 40 44 45 44 40 39 37 36 36 35 35 32 31 28 30 30 28 26 23 18 18 16 13
4 4 2 4 6 1 8 12 8 6 13 20 31 37 33 39 43 44 43 40 40 37 32 26 34 41 39 41 45 46 44 39 39 40 38 38 39 36 32 29 30 30 31 28 23 20 19 17 15
4 3 4 4 4 4 5 6 6 8 10 8 15 12 21 27 30 30 31 33 39 37 34 33 32 29 31 29 41 46 46 45 44 44 42 43 44 39 35 34 33 32 31 29 25 22 21 19 16
3 5 4 2 3 4 2 2 8 4 8 8 7 8 9 17 25 25 23 22 24 31 34 33 31 33 31 31 34 37 47 48 46 47 45 45 45 42 39 37 37 32 33 30 28 25 24 21 18
7 5 6 4 3 2 4 5 5 4 4 2 3 12 15 12 13 20 22 19 17 18 21 28 34 35 30 33 36 37 38 48 48 48 47 45 45 44 43 40 40 37 36 33 30 26 25 23 19
6 6 3 4 1 6 1 3 9 9 10 4 8 24 14 10 13 14 16 13 9 10 13 16 18 22 31 32 31 38 42 40 48 49 47 46 45 45 46 44 43 41 37 35 32 28 27 24 20
3 5 4 4 3 4 2 6 6 7 14 9 9 10 13 13 14 11 14 17 18 18 19 20 22 23 26 32 34 34 40 42 43 47 46 43 45 42 45 46 45 41 37 37 33 29 29 25 21
3 2 3 2 2 3 4 7 9 5 3 7 11 19 23 25 24 10 10 11 14 15 15 17 20 25 23 32 35 34 36 40 41 43 46 43 42 41 44 44 41 38 39 37 33 32 27 24 18
4 5 3 3 1 4 5 5 6 4 4 5 7 13 19 27 29 24 20 18 13 10 10 12 13 18 22 25 33 32 33 37 39 41 47 41 42 41 42 40 37 39 39 36 32 28 24 23 18
3 3 2 3 4 3 4 6 5 3 2 4 7 20 24 32 31 35 36 28 22 17 14 16 18 21 22 23 28 32 31 34 40 44 39 39 38 38 36 37 38 39 37 33 28 24 20 19 15
4 5 5 4 3 2 2 7 7 6 1 8 28 28 30 35 33 34 35 29 21 16 15 16 19 23 25 26 27 31 28 28 36 34 33 34 31 32 35 38 39 37 33 28 25 20 20 17 13

GFSSGP_850_spd_039.txt.gz
Wind_Speed
8 6 5 4 3 4 3 6 2 4 4 2 4 2 5 3 3 4 7 12 16 18 20 19 19 19 18 17 16 16 15 12 10 8 8 4 2 1 2 9 11 16 15 14 15 13 6 4 2
10 7 4 1 4 1 5 4 5 5 6 14 5 3 3 2 3 3 18 12 10 16 19 20 19 19 18 16 15 14 14 13 11 9 7 5 3 3 6 11 12 16 16 15 12 8 6 1 2
11 8 5 4 4 6 5 5 5 4 16 5 2 2 4 2 6 6 6 14 15 17 18 17 19 20 18 16 15 14 14 14 12 10 7 5 6 8 9 10 13 16 15 13 10 7 3 2 5
10 6 3 4 7 7 6 4 2 13 12 2 3 4 3 3 2 8 7 13 16 18 19 17 19 20 18 16 15 14 15 14 12 9 7 9 10 10 10 10 11 13 13 10 7 4 4 8 9
12 5 3 3 7 5 4 10 6 7 8 14 16 5 4 4 7 6 9 14 16 20 20 19 20 20 18 16 14 14 16 16 12 9 10 12 11 11 11 12 12 12 11 9 9 9 10 11 9
5 3 3 6 8 4 5 10 6 4 14 21 5 7 5 9 8 7 11 14 15 18 21 20 20 19 17 15 15 16 15 15 12 13 13 12 11 11 11 11 12 12 12 11 11 11 10 8 6
7 4 5 5 8 6 5 6 5 7 10 19 9 5 4 10 10 9 12 13 15 18 20 20 19 18 17 15 15 16 15 14 14 14 13 12 11 11 11 11 11 11 12 12 11 9 7 6 4
6 4 5 5 5 8 2 7 8 5 12 17 7 6 5 15 13 13 15 15 15 16 17 19 19 18 17 16 15 17 14 15 15 14 13 11 11 11 10 10 10 10 11 11 9 7 5 4 3
9 3 4 5 7 4 3 3 2 8 12 10 5 9 5 20 18 19 19 20 19 18 18 18 17 16 16 16 16 17 16 17 16 15 14 13 12 12 12 10 10 10 10 10 8 6 5 3 3
6 5 8 5 5 2 5 2 6 5 11 5 5 8 7 26 23 23 25 25 25 23 23 23 20 16 17 18 18 19 19 19 18 17 15 15 13 14 13 12 11 11 11 10 8 6 5 4 3
6 5 5 5 8 5 3 8 3 4 5 4 5 5 20 25 27 24 24 24 24 24 23 23 20 16 19 21 20 20 19 19 20 19 18 17 15 16 17 14 14 13 13 11 9 8 6 5 5
3 8 7 9 19 9 1 8 4 9 14 4 5 2 13 20 23 27 28 26 25 26 23 22 20 19 20 21 22 22 21 21 21 21 21 21 19 18 18 16 14 14 13 12 10 9 7 7 6
4 2 11 17 17 10 9 9 10 11 18 17 17 13 8 11 19 23 27 29 29 29 26 24 21 22 22 23 24 25 25 24 21 22 23 23 22 20 19 17 15 14 14 13 11 10 8 7 7
4 10 12 10 10 8 6 8 14 3 7 20 21 19 19 16 14 15 24 29 31 29 29 26 25 25 24 26 26 25 24 24 24 24 25 25 24 22 20 18 16 15 14 12 11 10 9 9 9
12 2 2 7 5 5 2 11 7 19 23 28 33 30 28 27 25 23 19 24 28 31 30 29 28 28 27 27 27 26 25 23 25 26 26 27 27 25 22 21 19 16 16 14 13 12 11 11 11
6 3 3 3 6 6 8 18 6 8 22 28 31 35 33 33 33 32 27 26 25 26 30 31 35 35 33 32 30 27 25 25 25 25 27 28 28 26 25 23 21 19 19 16 13 13 13 12 12
1 4 3 5 7 3 8 3 5 13 27 24 30 34 36 31 32 35 36 34 33 31 30 28 26 32 40 37 37 31 29 29 29 24 27 28 27 25 26 24 21 22 21 19 15 15 14 14 13
6 5 3 4 1 3 6 8 14 24 20 16 22 28 33 34 37 34 32 30 30 37 39 36 31 30 26 38 42 37 35 34 32 28 28 29 27 26 24 24 22 24 23 22 19 18 17 15 15
5 3 3 3 2 3 6 5 11 18 17 19 28 33 38 41 40 37 35 31 29 25 34 44 40 34 32 34 39 45 40 39 38 34 30 32 31 29 26 24 25 26 26 24 21 21 19 18 17
2 2 2 4 1 2 6 12 15 16 16 26 30 35 40 43 46 42 39 36 35 31 25 27 41 41 34 35 36 42 45 44 39 36 34 35 35 32 30 28 27 28 28 27 26 24 22 21 19
2 3 3 4 4 2 7 8 5 5 11 18 27 34 34 37 41 44 45 44 42 41 35 30 25 26 36 36 35 43 46 47 43 41 40 40 37 35 32 31 31 30 29 31 29 28 24 23 22
3 1 2 3 3 3 5 6 6 8 12 4 19 19 15 16 20 25 25 23 23 28 36 37 32 30 29 25 36 42 44 48 49 46 44 42 40 37 35 36 33 33 31 34 32 30 27 25 24
3 3 4 3 3 3 2 1 8 4 7 7 6 12 7 17 18 16 18 20 17 15 17 30 31 31 28 27 28 34 43 46 47 48 46 44 41 40 39 39 35 35 37 35 35 32 30 28 26
7 5 6 4 2 2 2 3 6 3 1 7 8 27 23 21 17 17 19 20 16 14 13 17 26 28 27 26 25 29 34 38 41 44 44 45 45 42 43 43 40 38 38 38 36 34 33 30 27
5 5 2 4 3 5 4 3 10 9 9 6 9 16 23 25 24 20 18 11 8 12 13 15 17 17 21 29 32 31 29 35 39 38 42 46 47 46 44 46 46 42 40 40 38 37 35 32 30
2 5 4 5 2 4 1 5 6 3 2 7 12 15 22 29 30 29 26 17 16 13 12 14 17 19 20 22 23 26 30 33 33 38 39 39 45 47 46 46 45 45 43 42 39 39 36 33 29
4 1 2 5 3 3 3 6 8 5 7 6 13 25 33 39 35 34 31 26 23 21 20 20 20 20 22 24 26 29 33 32 33 31 38 37 39 45 44 45 43 43 44 42 39 38 35 31 29
3 7 3 3 1 3 3 5 4 5 5 6 9 20 30 29 34 36 35 33 31 27 23 20 18 19 20 22 26 30 33 34 32 28 30 38 41 42 43 42 41 43 40 37 37 37 33 28 26
2 1 4 4 3 3 2 5 6 3 3 7 12 21 23 29 30 33 33 34 32 27 21 23 21 19 21 24 25 27 31 28 28 26 30 34 40 43 41 39 37 36 34 36 37 34 31 29 26
3 5 4 4 3 1 2 7 4 4 2 12 18 24 29 30 27 27 32 31 26 23 21 19 18 19 21 23 26 26 27 26 24 25 30 35 39 37 33 31 30 32 34 36 35 33 28 25 23

GFSSGP_850_spd_042.txt.gz
Wind_Speed
9 6 4 1 3 4 3 6 2 3 2 1 3 3 5 3 4 4 3 16 16 20 20 21 20 19 19 16 16 14 11 9 7 7 6 7 4 2 4 11 16 12 12 11 15 11 7 4 2
11 7 4 3 4 1 5 4 5 4 7 16 4 3 2 1 2 0 11 10 14 15 18 20 20 18 17 15 15 14 11 9 8 8 8 3 2 3 9 13 17 15 16 17 15 6 3 1 3
13 8 4 4 4 6 5 5 6 3 15 3 4 3 2 1 3 5 6 11 16 16 15 17 18 17 17 16 14 13 12 10 9 8 7 3 4 6 8 12 18 18 15 11 7 4 1 1 5
12 6 3 4 8 6 7 1 3 8 5 8 14 6 3 4 2 6 4 12 14 18 17 16 16 16 16 15 13 13 13 13 11 8 5 5 7 7 8 10 13 15 13 10 7 3 3 6 7
15 5 3 2 6 5 4 9 3 4 8 10 13 5 5 3 4 4 4 12 14 17 18 17 16 17 15 15 13 13 13 13 12 8 7 10 9 9 10 10 11 13 11 8 7 7 8 8 7
6 5 2 7 7 4 4 11 6 3 6 11 3 3 4 5 5 4 5 10 14 15 18 17 16 16 15 14 13 12 14 15 12 9 10 10 10 10 10 11 12 12 11 11 11 11 10 7 5
7 4 6 4 9 6 4 8 5 4 4 5 4 3 5 7 8 7 8 10 12 16 18 17 15 16 16 14 13 14 14 15 12 11 11 10 10 10 10 10 11 11 11 12 11 10 8 5 3
6 4 6 5 5 5 3 8 6 5 6 6 1 4 5 11 12 10 13 12 12 14 16 15 16 17 16 14 14 15 14 15 13 13 12 11 10 10 10 10 10 10 11 11 9 7 5 3 2
8 3 5 7 7 4 2 2 2 2 8 6 4 8 8 9 15 15 16 16 16 17 17 16 17 16 14 14 14 17 16 15 15 15 13 11 11 10 10 9 9 10 10 10 8 6 4 3 2
6 4 9 6 6 4 2 2 3 3 8 4 7 4 12 12 20 21 21 20 21 20 19 19 19 18 16 16 16 17 18 16 16 17 15 13 12 11 11 10 10 10 10 9 8 7 5 3 3
6 5 5 6 7 5 3 2 1 1 4 4 4 7 5 18 22 22 21 19 17 18 19 21 22 20 18 18 17 18 18 17 18 18 18 16 15 14 14 13 12 12 12 10 8 7 6 4 4
3 6 8 5 8 3 3 2 2 7 10 5 5 8 2 14 18 21 20 18 19 18 19 20 20 20 20 18 19 19 20 19 20 20 20 19 18 17 17 16 14 13 12 11 9 8 7 6 6
4 2 13 10 8 6 5 7 8 11 13 13 15 14 8 6 15 19 20 21 22 22 21 21 21 22 21 20 20 21 22 21 19 20 22 22 21 19 18 17 16 15 14 12 11 10 9 8 7
7 10 7 5 7 6 4 7 9 3 6 13 19 20 19 15 12 12 20 24 26 26 26 25 23 23 22 23 22 23 22 22 22 22 23 24 23 22 20 19 18 17 15 14 13 12 11 9 9
6 3 3 7 6 5 1 7 7 21 23 27 28 27 25 24 23 22 19 19 26 30 30 29 28 27 25 24 24 24 23 23 23 24 24 25 25 25 23 21 20 18 16 16 15 14 13 12 11
6 2 1 3 8 6 7 6 5 12 14 23 26 29 31 33 31 29 28 27 24 24 31 31 30 31 29 28 28 26 25 24 24 24 24 26 27 27 27 25 23 20 19 18 17 15 14 14 12
2 4 4 5 8 3 8 2 3 7 7 16 25 29 28 28 28 29 31 28 29 27 26 28 31 33 32 34 35 32 29 28 27 27 25 25 28 28 30 28 25 23 23 22 20 17 15 15 14
6 2 2 4 1 2 5 6 10 19 18 18 22 26 26 27 29 27 30 31 26 29 32 32 31 30 29 29 31 36 36 33 33 32 31 28 26 28 30 29 27 27 26 25 24 21 18 17 16
6 4 3 3 1 2 6 5 12 19 16 21 26 29 33 37 36 34 31 30 30 29 28 30 35 38 36 36 35 32 36 40 39 36 33 31 29 28 30 29 29 31 30 28 25 25 22 20 19
5 5 2 3 1 2 6 11 14 15 12 22 25 29 35 37 38 38 39 38 35 32 31 30 30 32 37 40 38 38 36 36 37 39 35 33 34 31 32 31 31 32 32 30 30 28 25 23 22
3 3 2 3 3 1 7 7 4 4 5 8 16 20 22 25 26 25 24 23 23 27 33 35 31 28 25 30 38 40 39 40 40 39 41 39 37 35 33 34 35 32 33 33 32 31 29 26 24
5 1 3 3 2 3 5 5 7 5 8 4 15 23 11 11 16 16 19 14 12 11 14 23 34 37 32 27 27 38 42 42 40 39 39 42 41 37 35 35 36 35 36 36 34 34 33 29 28
3 3 5 3 3 3 2 2 8 3 5 5 10 20 26 28 28 26 23 19 12 8 9 12 17 29 34 29 28 31 32 38 40 38 39 45 45 42 39 37 37 37 38 38 36 37 36 34 29
7 5 5 4 2 2 2 3 5 2 3 7 6 16 26 31 29 26 24 20 16 12 9 9 12 15 23 27 28 31 30 29 32 35 37 39 45 47 43 40 38 38 37 39 39 39 38 36 32
3 5 2 4 3 4 2 0 8 5 3 3 3 15 27 30 30 30 29 26 21 17 14 15 12 10 13 20 26 29 27 26 31 32 32 34 37 43 42 44 42 40 39 39 40 42 41 38 35
2 4 4 4 1 3 2 5 4 6 3 4 9 26 29 30 30 31 28 27 26 22 18 15 15 14 14 15 16 18 21 27 31 33 34 37 37 36 39 43 43 41 40 40 41 41 43 38 37
4 2 2 6 2 3 3 7 7 1 5 5 16 25 26 29 33 35 30 28 28 27 26 22 18 17 17 17 18 20 21 22 26 29 32 36 36 38 38 40 42 45 43 42 44 43 42 39 38
3 6 3 3 1 2 4 5 4 3 3 7 15 24 28 32 36 33 29 29 30 30 29 25 22 22 20 20 19 21 23 25 27 27 29 31 33 35 37 40 41 43 44 43 43 40 37 38 37
2 2 5 4 2 3 2 5 6 6 3 6 10 22 19 30 30 27 25 28 31 26 21 19 21 21 19 20 18 19 20 23 26 24 25 29 31 32 34 36 36 36 39 40 37 34 35 36 35
2 4 4 4 3 2 2 6 3 6 4 7 15 16 18 23 19 18 21 23 24 21 17 12 10 10 12 15 19 22 25 24 24 22 21 24 26 28 30 31 29 28 30 31 30 32 33 33 31

GFSSGP_850_spd_045.txt.gz
Wind_Speed
9 5 3 2 2 2 2 4 1 2 1 2 8 4 3 5 3 2 4 12 18 22 22 21 18 16 17 17 16 13 11 9 6 4 7 7 4 3 2 15 15 12 11 10 15 9 7 5 3
11 7 4 3 3 2 3 3 4 5 4 14 3 4 3 2 2 2 3 14 20 20 18 19 19 17 17 18 15 13 10 7 7 6 5 6 4 5 12 17 13 12 14 19 12 5 3 3 3
13 9 4 3 3 6 4 5 4 1 6 5 4 2 4 4 1 2 5 13 18 18 15 17 20 19 18 16 15 13 10 8 7 7 3 5 5 8 13 17 15 14 15 14 7 3 1 2 8
13 8 3 2 8 5 5 1 5 2 0 6 11 3 4 3 1 2 3 10 16 18 16 17 19 17 17 16 15 13 10 8 7 5 5 5 7 8 11 18 16 16 13 9 5 2 2 7 8
17 7 3 3 7 3 4 5 4 2 4 8 8 3 5 3 2 5 1 8 13 17 17 18 17 17 17 14 13 13 11 9 8 7 4 7 7 8 9 10 15 15 11 8 5 5 7 8 7
7 6 3 10 8 3 4 9 3 3 3 7 3 5 3 3 6 5 4 7 10 16 17 17 17 17 13 13 13 12 11 10 11 7 7 9 9 9 10 11 13 12 10 8 9 9 8 7 5
7 4 7 5 10 6 4 7 6 4 5 3 3 2 3 4 6 6 7 8 10 14 17 16 14 14 14 14 12 12 12 12 11 8 10 10 9 9 11 11 12 12 12 11 10 8 6 5 3
7 3 7 5 7 8 4 9 7 7 3 3 3 3 2 1 8 9 9 10 10 12 14 14 13 15 14 12 11 12 14 15 11 11 12 11 10 10 9 10 11 12 11 11 10 7 5 4 3
8 3 6 9 9 3 6 5 5 4 4 3 4 5 7 7 10 12 14 13 13 14 15 16 14 14 14 13 12 13 14 14 13 13 13 12 11 10 10 9 9 11 11 10 8 6 4 4 3
6 5 9 5 6 5 9 6 5 3 1 3 3 4 8 10 12 16 18 17 17 17 17 17 16 16 16 15 14 13 15 13 15 15 15 14 12 11 10 10 10 11 11 10 8 7 5 4 3
6 5 5 5 9 9 9 5 6 5 3 4 1 4 7 8 14 17 17 16 16 14 16 17 17 19 18 17 15 15 17 15 15 16 16 15 14 14 14 13 13 13 13 13 10 8 6 4 4
4 5 8 4 10 6 5 5 3 7 6 2 2 6 6 6 12 15 17 16 15 15 16 16 17 18 19 18 17 17 18 18 17 17 18 18 17 16 16 15 14 14 13 12 11 9 7 6 5
3 3 8 6 5 4 4 4 5 10 11 9 11 11 7 4 6 12 15 16 16 17 17 17 16 19 20 20 19 19 20 20 18 19 21 21 20 18 17 17 17 16 15 14 12 11 10 8 7
10 7 5 8 9 3 5 5 6 4 6 12 16 19 17 15 11 10 13 16 20 20 21 20 19 18 20 21 20 19 19 19 20 21 22 22 23 21 20 18 19 18 16 15 14 13 12 10 9
8 4 3 8 5 3 3 5 6 21 22 25 25 21 20 19 17 18 16 16 18 21 23 25 24 23 23 23 23 23 20 20 20 21 23 24 24 23 22 21 21 20 18 18 18 16 15 13 11
5 3 4 2 9 8 5 6 4 4 10 15 18 21 22 26 27 27 25 25 23 24 24 26 29 28 28 27 26 26 25 23 22 23 23 24 26 25 24 25 24 22 22 20 20 18 17 15 14
2 3 5 3 9 3 9 2 4 2 4 11 16 20 21 21 25 25 28 29 29 27 28 28 28 32 31 31 30 30 28 27 25 25 25 25 26 27 27 28 26 25 25 24 22 22 20 17 15
9 4 3 6 2 2 2 6 9 20 13 15 18 21 24 25 24 19 22 25 25 26 28 28 31 31 31 33 34 34 34 34 32 29 29 27 27 28 29 29 29 29 29 28 26 25 23 20 18
7 5 4 3 1 1 4 4 11 17 18 20 25 27 29 28 26 25 25 25 26 26 26 27 29 31 34 35 36 36 36 34 37 36 34 30 29 29 28 28 30 32 34 32 29 28 28 25 22
6 5 4 1 3 1 4 10 16 12 9 12 16 18 19 18 17 16 16 18 23 27 28 28 28 29 30 35 40 41 40 39 35 36 39 36 33 31 32 30 31 33 35 36 34 32 32 29 27
3 5 3 2 1 2 6 5 4 3 4 14 16 9 2 6 10 10 10 10 9 12 18 24 29 30 31 32 32 40 42 41 39 39 38 38 39 38 35 33 32 33 37 38 36 35 35 33 31
4 3 5 4 3 1 4 4 4 3 6 6 17 24 22 21 20 19 19 18 14 7 6 11 16 25 34 32 32 33 39 43 45 45 41 39 39 41 41 36 35 35 35 39 38 38 37 36 36
2 3 5 3 4 1 2 2 4 1 3 5 6 17 19 20 21 21 20 18 15 12 9 7 9 13 17 31 35 34 35 33 33 36 39 39 41 41 42 40 38 36 36 38 38 40 41 40 41
5 4 6 4 2 0 1 2 3 1 0 1 2 15 16 20 22 22 19 16 13 10 9 8 7 8 10 15 24 30 34 34 36 34 31 33 38 39 40 41 43 40 37 38 39 41 43 42 42
2 3 2 2 2 3 3 1 6 3 3 4 2 13 16 21 25 26 25 22 19 17 15 14 11 8 8 8 12 21 26 30 35 35 34 34 32 34 35 35 41 44 42 40 41 41 43 43 43
2 1 3 3 3 1 2 5 3 3 7 5 9 12 15 22 25 26 23 22 21 21 19 18 16 16 12 11 11 12 14 19 27 31 31 33 34 33 32 33 35 38 39 42 42 41 40 42 42
4 1 2 6 2 1 2 5 6 2 4 3 14 21 22 24 27 27 22 21 23 23 22 20 20 18 18 16 15 15 15 17 19 21 25 28 30 32 33 36 37 35 37 41 41 42 41 39 40
2 5 3 2 3 3 3 4 3 4 5 3 10 16 16 21 25 23 19 22 24 24 22 16 15 15 16 17 17 16 15 15 16 18 20 22 25 29 32 32 34 35 36 39 42 42 41 39 36
2 1 4 3 1 3 1 4 5 7 5 4 10 19 14 23 22 19 17 17 17 21 17 11 9 7 5 8 11 12 13 15 16 19 22 23 25 27 29 30 29 30 32 32 36 38 36 35 35
2 4 4 3 4 1 1 5 1 5 6 7 16 16 16 21 21 19 17 13 14 15 13 10 11 12 12 14 17 20 19 18 18 21 21 21 22 23 23 23 23 23 25 26 28 30 31 31 33

GFSSGP_850_spd_048.txt.gz
Wind_Speed
10 7 3 1 5 5 6 3 2 3 4 2 4 6 2 8 4 2 1 11 14 20 19 19 17 17 17 16 14 13 11 8 6 7 9 7 5 2 2 10 10 10 13 12 12 5 6 5 3
11 7 3 2 6 8 8 6 4 4 3 7 3 6 6 2 2 3 3 11 18 18 18 18 18 19 19 16 14 12 9 6 6 3 7 7 4 6 15 12 10 9 11 16 9 4 4 3 3
13 11 7 4 7 12 6 6 7 2 4 5 1 2 2 2 2 2 2 11 20 17 17 17 19 18 19 18 14 13 9 7 7 4 5 7 7 11 16 14 12 13 19 12 5 2 3 4 8
10 7 3 9 13 14 10 3 5 5 1 3 6 3 1 2 1 2 4 11 18 16 16 17 19 18 17 15 13 11 9 7 8 6 7 8 9 12 16 15 12 13 12 8 3 0 3 7 8
12 9 9 13 19 12 10 5 6 2 4 4 6 1 1 2 1 4 5 11 16 15 15 17 19 17 16 15 13 11 9 8 8 5 6 7 9 11 13 15 14 13 9 6 4 3 6 7 7
12 12 11 16 18 16 13 8 7 7 4 5 4 3 1 1 3 5 7 11 13 14 15 15 17 16 16 15 13 11 11 10 8 7 5 8 8 9 10 13 15 13 10 7 6 7 7 6 5
18 11 18 19 18 17 13 12 16 12 10 9 3 4 3 2 6 6 8 11 12 13 14 14 15 17 16 14 10 11 12 11 10 6 7 8 8 9 9 13 14 12 10 9 8 8 6 4 3
15 10 19 17 18 18 12 11 8 10 7 3 2 4 5 2 8 8 9 10 11 13 14 14 13 14 13 13 13 12 12 12 11 7 9 10 9 9 10 10 11 11 11 10 9 7 5 4 3
8 9 16 22 20 14 10 11 7 5 9 7 4 3 4 5 5 10 12 12 13 13 14 14 14 13 13 12 12 12 14 14 11 10 11 11 9 10 10 11 11 11 11 10 8 6 5 4 3
14 14 20 10 11 12 12 13 11 8 10 9 7 4 7 6 7 12 14 14 14 15 15 14 14 13 14 15 13 12 13 15 14 12 13 12 11 10 10 11 11 12 11 10 9 7 6 4 4
16 15 10 8 11 6 13 11 8 9 9 9 9 2 2 6 9 12 13 13 13 13 15 17 16 15 17 16 13 12 13 13 14 14 15 14 13 12 12 11 13 12 12 10 11 9 8 7 6
9 15 8 6 6 7 12 9 8 11 5 8 8 1 1 2 7 12 13 15 14 16 16 16 16 16 17 16 17 14 15 15 15 16 17 16 15 14 13 12 12 12 12 12 11 10 11 10 7
14 6 10 7 7 6 7 9 10 11 9 7 8 9 6 4 5 10 13 15 15 16 17 18 17 18 19 20 18 18 17 17 17 18 19 18 17 16 15 14 14 14 14 14 14 14 13 11 10
15 6 13 12 7 5 7 9 6 8 11 12 14 15 13 12 10 9 12 14 16 16 17 17 17 18 18 22 23 22 19 17 19 21 22 22 20 20 19 17 17 16 16 16 16 16 15 14 12
5 14 11 9 11 10 7 14 13 18 18 17 17 15 13 13 13 15 14 14 14 15 15 18 19 19 21 21 22 24 22 21 19 22 21 23 23 23 22 20 18 19 18 18 19 19 19 17 16
13 6 9 9 17 6 9 14 2 9 11 17 17 17 17 19 21 21 20 20 18 19 19 18 19 22 24 24 23 23 24 23 23 23 24 23 24 26 24 22 20 19 19 22 22 22 21 19 18
14 10 18 4 10 12 17 8 7 9 8 10 10 11 12 14 16 22 25 25 27 26 25 26 25 24 23 28 29 28 26 27 26 27 26 26 26 28 27 25 23 21 21 24 25 25 23 22 21
18 15 12 13 6 9 9 14 6 9 8 13 16 17 16 15 17 16 16 17 21 24 26 27 27 26 27 24 29 32 31 31 30 30 30 30 29 29 28 28 26 24 25 27 29 28 26 25 23
10 15 9 7 4 5 11 11 11 14 17 18 20 20 19 18 15 14 18 20 23 25 26 26 25 27 26 24 30 34 37 36 36 37 37 35 33 31 30 30 30 29 30 30 31 30 30 29 27
13 13 10 5 3 4 4 9 13 13 15 11 12 14 14 10 8 6 10 15 19 22 25 27 28 28 28 28 26 34 36 40 42 41 39 38 38 37 36 34 33 32 33 32 32 35 35 32 32
9 11 9 3 5 1 7 7 5 5 8 8 8 4 5 5 6 6 7 5 2 8 14 21 27 32 33 33 30 26 27 32 40 42 41 39 38 41 41 40 37 37 36 36 37 38 38 37 36
10 3 7 6 4 3 3 2 4 8 9 9 11 11 10 9 8 7 7 8 8 6 4 4 10 18 27 32 34 32 30 32 36 40 43 44 44 43 42 45 43 40 39 38 39 40 40 40 40
5 7 7 4 2 3 3 4 6 10 9 7 7 7 6 7 8 9 8 8 7 7 6 6 6 7 12 18 26 33 30 28 27 26 30 35 40 45 44 42 43 45 44 41 39 42 43 44 44
13 10 8 4 1 3 3 4 7 9 8 8 3 4 4 6 8 9 9 9 8 8 8 9 9 9 10 11 15 21 29 29 26 26 28 30 33 36 38 40 41 41 46 46 42 42 43 46 45
6 8 3 3 4 3 2 4 2 8 6 7 2 2 3 6 8 10 10 10 12 13 13 12 12 13 13 13 13 13 18 24 25 25 27 27 29 34 33 33 36 38 40 45 47 45 43 43 45
4 3 2 4 4 3 2 5 3 4 6 6 2 2 3 5 8 10 10 12 13 16 17 16 16 16 16 16 15 14 14 15 20 25 27 24 26 27 29 32 32 33 35 38 43 47 44 44 42
6 4 1 4 2 2 4 4 3 6 12 5 1 1 1 5 8 8 8 9 12 17 17 16 14 14 15 15 15 15 15 15 17 18 20 22 24 28 29 29 33 31 32 34 38 43 44 45 43
2 8 3 0 4 4 4 4 4 14 13 4 4 5 4 6 8 8 8 9 9 14 14 11 8 7 8 9 10 11 12 12 14 16 19 21 23 23 26 27 28 30 31 32 33 36 40 41 40
4 3 2 2 1 2 2 2 2 14 15 5 9 7 6 8 9 10 9 8 7 9 11 9 9 7 7 8 9 10 13 14 14 14 16 20 22 24 26 26 25 25 26 26 27 29 31 35 36
1 2 4 3 4 1 2 0 2 6 6 6 11 7 7 8 8 9 8 7 5 5 5 7 9 11 12 12 13 14 15 17 19 21 20 19 21 22 20 22 22 20 21 22 23 23 25 27 30

GFSSGP_850_spd_051.txt.gz
Wind_Speed
9 5 5 5 6 6 11 5 1 5 5 3 2 6 3 9 6 2 3 5 12 16 17 17 16 16 14 13 12 10 10 7 6 7 5 3 1 2 3 6 7 9 10 11 8 5 6 5 2
7 7 6 7 7 10 10 9 7 4 5 3 3 5 5 4 5 4 4 7 15 16 15 15 15 16 15 13 11 9 8 5 5 1 4 3 2 5 9 9 10 12 9 12 5 4 6 4 5
11 10 12 5 11 13 10 7 7 5 3 1 3 3 3 5 5 4 4 13 17 15 14 15 16 17 15 11 9 9 7 5 4 2 5 5 7 13 11 8 8 10 14 8 1 4 5 6 7
8 9 11 10 14 16 15 6 5 8 3 2 1 4 5 5 2 4 9 16 16 15 13 13 16 17 17 13 11 9 7 6 6 1 7 7 10 14 12 10 9 11 10 5 1 4 5 7 8
15 13 10 14 19 15 12 8 8 7 4 3 3 7 5 5 7 9 11 15 14 14 13 13 17 16 16 13 11 9 7 6 7 2 8 7 9 12 12 12 12 10 8 3 0 2 5 7 7
16 19 10 17 18 18 12 12 10 8 4 1 4 3 8 7 8 9 11 13 12 13 12 13 17 16 14 13 12 10 8 7 7 3 7 7 8 7 9 12 11 10 7 4 2 5 5 5 5
20 13 18 21 17 17 17 16 12 12 11 6 2 8 11 8 6 9 11 10 11 12 12 12 14 14 15 14 12 10 9 9 7 6 4 8 8 8 8 10 12 10 8 5 6 6 5 3 3
21 12 22 21 17 18 15 14 11 16 13 3 3 5 8 6 4 6 14 11 10 11 12 12 12 15 15 14 14 11 10 10 9 5 4 7 9 8 9 11 11 9 8 7 7 5 3 2 2
12 14 17 23 23 18 12 11 15 8 12 7 7 3 3 4 3 7 9 12 15 11 12 13 12 12 12 12 12 13 12 11 11 7 7 7 7 9 10 11 10 10 9 8 7 5 3 2 2
15 14 23 18 18 9 14 13 14 9 13 13 10 4 1 5 5 8 9 9 12 13 12 12 13 12 13 12 11 12 11 14 13 9 9 9 8 8 8 10 11 11 10 9 8 7 5 3 2
18 19 19 16 4 3 12 16 15 13 12 15 14 12 4 5 6 8 10 9 11 14 17 15 12 13 13 12 11 9 11 10 10 12 12 11 11 13 13 12 13 13 12 11 11 10 8 5 7
13 26 16 11 5 3 11 14 13 14 7 6 5 5 4 5 6 9 11 11 11 12 14 16 16 13 14 12 12 11 12 12 13 15 15 13 13 12 11 10 12 12 11 10 13 8 8 11 9
17 11 16 6 7 9 15 16 13 14 9 5 6 6 5 5 6 8 11 12 13 13 13 15 16 16 13 15 13 14 14 15 14 15 16 16 15 14 13 13 12 12 13 12 12 12 12 12 11
13 17 14 14 11 9 11 14 12 13 12 12 11 12 10 10 10 8 11 13 14 13 13 14 16 16 15 17 16 14 14 14 15 16 17 20 18 17 16 15 15 14 15 15 16 15 14 12 12
7 17 8 17 15 7 10 15 18 18 12 13 14 14 14 15 15 16 14 13 13 14 14 14 14 16 18 17 20 18 16 15 16 16 18 20 23 21 19 17 18 17 17 16 16 16 16 15 15
8 12 14 14 13 9 12 13 17 25 21 23 21 20 20 20 19 19 18 15 14 13 13 15 16 16 17 18 24 21 19 18 18 17 17 20 21 22 22 22 21 19 19 19 18 18 19 18 18
13 12 18 12 18 11 14 8 13 12 10 14 16 17 17 18 17 19 20 20 19 19 18 18 17 18 19 19 23 25 23 25 19 18 19 20 21 22 24 24 23 21 22 24 22 22 21 21 21
19 20 18 18 10 15 17 15 7 7 10 15 15 15 15 16 16 15 15 16 17 18 18 19 19 19 20 21 21 29 27 27 27 22 25 24 24 26 27 27 24 23 25 28 26 25 25 24 22
11 18 13 10 7 9 14 13 14 13 17 17 18 18 18 18 15 13 11 13 14 15 17 17 18 20 20 22 23 29 34 31 30 32 29 26 29 27 28 30 27 26 29 30 28 27 26 27 23
9 14 12 4 9 7 10 11 9 13 17 19 16 15 16 14 12 9 8 7 11 14 16 17 18 18 20 24 26 26 30 36 37 36 36 35 33 35 34 34 33 32 32 32 31 31 30 30 29
11 12 13 6 9 8 4 12 13 3 4 4 5 9 8 6 5 3 1 2 2 4 11 17 22 25 26 28 27 28 25 26 28 33 38 41 43 41 36 39 37 36 36 36 36 36 36 35 36
12 6 5 7 10 7 7 3 11 10 7 6 6 6 6 6 5 3 1 2 3 3 2 3 6 11 18 26 30 29 25 27 28 30 28 31 35 37 38 39 38 38 37 40 40 39 41 38 39
6 10 7 4 5 3 7 5 8 12 11 9 7 7 6 4 2 2 2 3 5 5 5 6 6 6 9 12 18 24 31 34 29 28 28 28 28 33 37 37 37 40 40 42 41 40 42 44 39
13 13 7 3 1 4 9 7 10 11 13 10 8 7 4 2 1 2 3 4 5 8 9 10 10 9 10 11 13 15 20 23 23 26 27 26 26 29 31 32 32 37 40 40 42 44 45 45 44
7 13 5 4 4 3 3 5 4 9 10 10 8 7 4 0 2 4 5 6 7 9 10 11 11 12 12 12 12 12 15 16 19 22 25 26 27 30 33 34 33 33 33 37 38 42 44 46 46
8 10 4 6 6 6 4 6 1 10 9 9 4 4 2 1 2 4 5 6 7 9 11 13 13 14 12 11 11 11 10 12 13 14 18 22 25 26 24 28 32 32 31 30 34 40 39 43 46
3 4 5 2 3 2 6 4 6 7 9 8 4 4 3 2 3 4 6 7 8 9 10 9 9 8 7 9 8 9 9 11 13 14 15 17 17 20 22 24 25 30 29 28 30 35 38 38 40
6 9 2 2 4 5 6 5 4 13 16 9 7 2 2 3 4 5 7 7 6 7 7 7 7 7 7 7 7 7 8 10 11 11 12 13 14 16 17 18 26 25 28 26 26 30 34 36 37
4 4 3 3 2 3 2 3 6 16 16 11 2 1 2 3 3 5 6 6 5 5 5 5 5 6 7 8 8 9 10 11 12 13 15 17 17 19 21 22 24 23 25 26 23 23 26 28 31
6 6 9 3 4 1 3 2 1 14 13 5 4 2 2 2 3 4 5 5 4 5 4 4 5 7 9 11 12 12 13 14 14 14 15 17 19 21 21 22 21 21 21 19 18 19 20 23 25

GFSSGP_850_spd_057.txt.gz
Wind_Speed
9 4 2 7 3 4 3 5 2 4 4 4 9 8 6 3 3 5 17 14 11 15 23 20 20 18 16 16 15 13 12 10 7 3 5 3 4 8 11 13 15 13 10 9 9 8 7 7 9
8 3 3 2 3 1 5 5 5 4 7 7 4 5 8 3 9 16 13 13 12 13 23 22 20 18 17 15 12 11 10 6 2 2 6 7 12 12 13 15 15 13 10 7 9 9 10 12 11
6 1 3 3 3 5 5 3 6 7 11 7 2 2 6 3 10 16 15 15 10 18 23 20 20 19 17 14 11 11 8 5 6 9 11 14 13 12 14 16 13 12 8 5 7 9 12 14 15
2 1 3 1 5 11 5 6 4 5 7 5 3 7 9 3 8 12 24 15 11 14 19 20 19 18 16 13 11 10 5 7 9 10 11 15 12 13 13 12 13 10 6 3 6 9 12 13 13
6 4 2 3 8 9 3 10 9 4 7 3 5 4 8 8 12 27 21 15 11 11 14 15 18 18 15 15 14 10 6 4 9 10 11 13 11 11 11 13 13 10 5 2 5 8 10 11 12
12 4 2 6 9 9 4 9 8 5 7 5 11 5 6 11 20 26 21 15 7 10 11 10 17 17 18 15 13 11 8 5 8 9 11 12 11 11 10 10 12 8 5 3 6 8 8 8 10
16 5 4 8 9 13 6 11 8 6 2 1 3 5 13 16 19 20 16 14 13 11 8 10 17 19 17 15 12 11 8 6 6 6 6 9 9 10 11 10 8 7 5 4 6 6 6 6 7
15 11 14 10 15 18 15 15 16 12 2 3 7 5 7 21 22 21 22 15 12 10 6 8 18 18 17 14 13 12 10 9 5 3 6 6 7 8 10 12 9 8 6 6 7 6 5 5 6
13 4 9 10 14 15 23 7 4 11 7 5 11 19 16 19 23 22 21 19 11 8 6 4 10 12 16 16 15 13 13 10 8 7 7 7 7 7 8 9 10 10 9 9 8 6 5 5 6
9 7 17 20 25 10 10 10 12 2 5 12 21 16 10 11 19 22 23 23 19 11 8 4 3 4 10 12 10 8 9 10 9 8 8 8 7 7 8 9 10 10 10 10 10 9 7 6 7
13 14 10 23 30 15 7 19 21 4 2 4 20 17 12 8 9 15 21 22 19 20 12 7 5 6 7 10 8 9 11 12 11 11 8 10 11 10 9 9 9 10 11 10 11 10 9 9 9
7 13 21 12 16 14 14 12 17 4 6 9 11 18 15 9 5 6 9 16 22 20 22 18 13 10 9 9 13 12 9 10 9 10 10 9 11 11 8 8 10 12 12 12 12 12 11 12 11
10 10 17 20 10 19 16 4 1 3 9 12 20 19 13 8 3 2 2 6 12 19 22 22 22 19 16 17 15 14 10 8 5 8 8 6 11 13 12 12 11 12 12 14 13 13 11 14 14
15 18 6 9 10 5 2 4 3 3 6 10 8 6 9 10 7 3 6 2 9 11 14 22 24 23 22 19 17 13 13 9 10 10 11 10 13 15 16 17 15 13 13 12 16 12 12 14 15
9 10 3 8 9 2 4 4 7 11 6 3 4 6 7 8 10 10 5 4 7 7 7 5 12 23 23 22 21 17 17 16 14 14 16 17 18 18 20 21 20 18 16 16 15 15 15 18 18
5 7 5 8 10 5 7 6 7 18 11 14 7 8 9 9 12 14 15 14 7 6 10 11 14 11 13 21 22 20 20 20 20 20 19 19 20 20 24 25 24 22 21 22 21 20 21 22 25
4 5 8 6 14 7 4 4 11 16 21 19 16 15 15 15 15 13 14 15 14 14 12 9 9 13 14 13 13 21 21 25 22 21 20 21 23 22 21 23 25 26 26 27 27 27 27 29 31
13 9 14 9 6 7 7 6 8 10 16 26 22 20 18 21 19 12 11 14 19 18 21 20 17 15 15 14 13 17 18 22 23 27 27 25 27 27 27 26 25 27 29 31 32 32 31 31 31
8 4 11 8 6 7 10 7 12 17 7 11 16 16 12 7 8 14 16 17 18 18 20 24 25 23 16 14 17 20 23 25 26 26 27 28 30 28 30 31 30 29 31 32 32 35 35 36 33
6 9 7 1 9 10 10 10 11 13 11 19 19 16 14 9 3 7 13 15 18 19 19 19 20 23 23 22 23 23 24 24 25 27 29 28 28 32 33 33 34 33 35 36 35 34 39 39 38
5 7 5 5 3 4 4 5 7 9 12 18 13 13 11 10 6 6 6 9 11 14 20 23 24 27 28 30 31 31 31 30 29 25 24 26 27 27 29 36 33 35 34 36 39 38 40 41 41
5 4 2 15 6 4 6 5 7 11 8 7 9 7 8 9 12 10 7 5 6 8 8 9 11 13 18 23 28 29 29 31 31 29 25 20 20 23 23 22 26 35 37 38 38 36 42 42 47
5 7 6 4 5 4 2 1 6 7 6 6 10 10 12 10 10 7 4 6 6 5 5 5 6 7 9 9 9 12 17 21 24 28 31 26 20 20 22 24 25 25 26 29 35 36 39 41 40
1 8 8 5 3 1 6 6 4 6 11 5 9 16 14 12 8 6 5 5 6 7 8 8 9 9 10 12 13 13 13 13 14 14 17 23 30 30 24 23 26 26 25 24 26 31 36 38 38
3 6 2 3 1 5 3 5 7 7 6 10 13 18 15 13 11 9 7 6 7 8 9 9 10 11 11 13 15 15 15 16 16 15 15 15 18 22 21 20 21 24 28 27 25 27 30 33 37
4 5 5 6 4 4 3 7 5 7 16 23 25 23 18 14 13 10 7 4 5 9 10 10 9 9 10 11 12 14 15 16 15 16 16 16 16 17 22 25 24 25 24 24 24 28 27 27 31
4 2 4 3 2 3 4 4 5 5 7 15 20 22 18 14 11 8 5 4 7 10 10 8 6 7 7 6 7 10 12 14 15 16 16 16 18 18 19 21 25 28 27 26 22 20 26 25 25
2 0 3 2 2 4 4 4 4 8 9 8 10 17 15 16 12 9 8 7 9 9 9 7 6 5 4 3 4 5 6 8 10 13 14 16 16 17 18 19 21 22 22 22 24 25 25 25 24
3 1 1 2 4 4 1 5 3 13 10 9 12 16 18 16 14 11 8 7 7 8 10 9 8 6 5 4 5 6 7 9 10 12 13 16 17 17 17 18 18 18 19 21 25 26 22 22 22
1 5 4 4 4 1 3 5 7 9 9 15 15 16 15 16 13 10 8 6 7 9 11 12 10 9 7 7 8 10 10 10 11 11 11 11 12 14 16 16 16 17 18 18 18 19 17 18 17

GFSSGP_850_spd_060.txt.gz
Wind_Speed
6 5 4 1 3 4 3 6 2 2 2 3 4 12 10 5 2 4 17 15 9 18 22 22 21 19 18 16 16 16 13 12 10 7 6 4 5 10 15 16 14 10 9 9 8 7 8 11 11
5 4 2 1 4 2 5 4 5 5 8 10 11 11 7 2 4 13 22 11 8 17 24 23 21 19 18 16 15 14 13 10 5 3 6 8 11 13 16 16 13 9 7 8 8 9 11 14 12
4 2 2 3 3 5 4 3 6 4 5 6 5 11 5 3 8 18 12 16 13 19 23 24 21 18 18 16 12 10 9 6 7 11 11 11 12 14 16 14 13 8 5 7 9 12 14 14 14
6 3 2 3 6 6 3 5 8 4 4 7 11 6 6 2 12 8 15 15 13 22 23 21 20 19 17 15 12 10 6 7 12 14 15 14 13 13 15 13 11 7 4 6 9 11 13 14 15
10 5 3 1 6 4 6 14 15 3 2 7 8 3 5 8 9 11 18 14 11 22 22 21 20 18 16 14 12 9 7 6 12 16 16 14 15 13 12 11 10 7 3 5 8 10 11 12 13
9 5 2 3 8 4 9 16 16 4 3 10 12 8 4 14 16 17 16 13 8 16 18 18 20 18 15 14 12 11 7 7 7 12 15 12 13 12 11 9 11 7 4 4 7 8 9 10 10
13 6 5 1 5 6 4 21 8 6 5 4 16 5 12 21 19 18 15 14 10 13 13 14 20 19 18 16 14 11 8 8 6 7 8 10 13 13 12 11 10 7 5 5 7 7 8 8 9
6 8 7 5 6 5 7 23 13 7 4 11 13 7 8 25 24 18 17 15 13 12 8 11 19 21 20 18 15 12 10 8 8 6 6 6 7 9 12 11 11 9 7 7 7 7 7 7 8
13 4 13 11 11 3 15 11 14 13 7 10 5 14 24 26 22 20 23 21 18 13 8 8 19 20 18 15 14 14 11 9 7 5 7 7 7 8 7 10 10 9 8 8 9 8 6 7 8
11 10 14 16 19 4 11 13 20 9 4 9 15 17 25 26 22 23 23 23 20 14 11 8 12 14 17 16 15 14 10 10 8 7 8 9 9 8 7 7 9 10 9 9 10 8 7 7 8
11 15 6 17 12 4 7 23 21 15 4 12 22 23 23 24 23 23 21 18 16 14 13 10 8 9 12 14 13 11 9 10 11 10 11 10 11 11 10 10 10 10 10 11 12 11 9 8 9
6 11 23 6 7 6 4 19 20 20 7 13 14 19 21 20 21 24 24 23 20 16 16 15 12 11 9 9 10 8 8 9 11 10 12 12 12 11 9 8 9 10 11 12 12 13 12 11 12
2 14 22 14 11 17 10 20 25 28 1 4 22 19 15 13 13 14 16 21 21 20 16 15 15 15 12 11 9 9 9 9 9 8 12 12 11 11 11 10 9 9 11 13 14 15 15 15 15
11 5 12 14 15 23 20 19 26 16 13 17 20 16 12 11 10 11 12 12 20 22 22 18 16 17 16 15 12 13 12 11 11 9 8 11 11 10 11 12 11 11 12 13 13 14 15 16 15
6 9 4 16 12 9 25 17 19 23 6 9 12 14 12 10 9 8 8 7 6 7 12 22 23 22 21 17 17 17 15 14 14 13 11 11 13 13 14 15 16 15 15 15 16 15 17 19 19
5 6 5 5 11 9 13 11 18 24 17 11 8 8 10 11 11 10 7 9 7 9 11 13 14 27 27 23 22 21 19 18 17 16 16 15 16 16 18 19 20 19 20 20 20 20 20 21 22
3 6 7 7 15 6 7 4 9 12 9 15 13 11 10 10 11 11 12 14 13 11 11 12 14 16 20 22 26 24 22 23 21 21 20 19 20 20 21 22 22 22 24 25 25 25 26 25 26
12 12 11 12 9 6 8 6 4 8 5 17 20 16 15 13 16 17 18 19 18 18 15 14 15 14 14 14 15 19 20 23 24 25 25 24 25 24 26 26 26 25 26 27 28 30 30 31 31
9 7 10 4 5 5 6 4 10 13 8 8 17 21 16 11 9 12 15 18 19 20 19 17 17 20 20 20 20 20 21 21 23 25 26 29 30 30 29 28 30 29 30 29 30 31 33 34 36
10 5 6 1 5 5 6 12 9 11 9 15 13 15 18 13 11 12 14 16 18 20 21 21 18 16 17 19 21 24 24 25 26 26 27 28 30 30 31 31 31 31 34 34 33 33 35 36 37
1 6 4 4 1 1 3 6 6 8 13 21 21 22 20 15 14 14 13 12 13 15 16 19 21 23 23 23 22 23 25 26 26 26 28 28 27 28 27 27 29 29 34 35 34 35 37 38 39
1 6 7 6 6 6 3 5 7 7 10 9 21 18 18 17 14 15 14 13 13 12 14 17 21 23 25 27 29 29 29 29 29 28 28 29 30 30 30 27 23 22 22 25 29 30 33 36 40
5 5 7 4 6 5 2 0 6 1 9 9 15 18 16 16 18 16 12 11 11 10 11 11 11 12 13 14 17 19 20 24 29 31 33 33 32 28 23 23 24 24 22 21 23 24 26 28 31
1 6 8 5 3 1 5 6 5 6 7 6 9 18 21 21 19 14 10 8 10 10 9 9 9 11 12 13 15 15 15 15 16 17 17 19 20 22 26 28 27 24 22 23 23 23 24 25 26
4 6 2 1 1 5 3 4 12 6 6 7 12 25 24 20 18 13 11 9 9 9 9 9 11 12 13 15 16 17 18 18 19 18 17 17 17 18 19 22 20 20 22 23 24 22 21 22 25
4 2 5 5 4 4 4 7 7 6 11 16 28 29 23 19 16 14 11 9 10 9 8 10 10 10 11 13 15 16 16 18 19 19 19 18 18 19 20 19 21 24 25 25 24 24 24 22 24
4 4 3 5 1 3 5 6 8 1 2 12 22 25 21 19 18 15 12 10 9 9 10 10 9 8 9 9 10 10 12 14 15 16 17 17 17 18 19 20 20 20 23 26 26 26 24 24 23
3 2 2 2 3 4 4 5 5 4 7 8 10 20 23 20 18 15 12 10 10 10 11 10 9 8 8 8 7 8 8 9 10 11 13 14 15 16 17 18 19 19 19 20 22 23 23 24 25
3 3 2 3 4 3 2 5 4 8 8 12 13 24 22 19 19 16 13 10 10 10 10 9 9 9 10 9 8 8 9 10 11 13 14 15 15 16 16 16 16 17 18 19 19 21 23 24 26
1 5 4 3 4 1 3 5 3 7 8 14 19 23 19 20 19 16 12 10 11 12 12 11 11 12 12 10 10 10 11 11 12 13 14 14 13 11 12 13 13 13 14 14 15 16 16 16 14

GFSSGP_850_spd_063.txt.gz
Wind_Speed
2 4 3 2 3 4 3 6 3 5 1 2 3 3 7 6 2 4 19 14 22 22 23 22 20 17 15 13 14 12 11 11 9 4 6 5 7 11 14 12 9 8 8 8 6 7 10 10 8
1 2 2 1 4 3 4 4 5 5 1 15 12 6 6 3 2 12 23 18 14 21 23 22 20 18 17 15 15 13 12 11 6 3 7 9 11 14 15 12 8 6 8 8 8 8 11 10 8
5 3 2 3 3 5 4 3 5 8 5 6 5 8 4 3 5 22 13 16 18 20 22 21 20 19 17 16 13 9 9 8 5 7 9 10 12 14 14 11 7 4 7 9 10 10 11 10 8
9 4 4 4 5 5 4 3 6 9 4 6 13 6 5 3 14 10 15 18 17 19 22 22 20 18 17 15 11 8 6 4 10 13 10 12 12 13 12 10 6 4 6 8 10 10 11 10 9
14 5 3 1 5 4 4 8 15 6 10 3 6 5 3 11 9 10 17 15 16 23 22 20 19 17 17 13 10 8 5 6 9 15 12 12 13 12 11 9 7 5 6 7 8 9 9 9 8
5 8 3 4 5 4 6 8 14 4 8 4 7 7 3 8 11 18 15 12 14 21 22 21 18 17 15 13 11 9 7 6 7 11 13 14 13 12 10 9 8 5 4 5 6 7 7 7 6
10 5 6 3 3 4 2 13 5 10 8 3 14 4 7 11 17 19 15 13 14 18 18 18 19 17 14 12 12 12 8 7 7 9 5 7 12 12 11 10 9 6 4 5 6 6 6 6 6
7 5 8 5 5 4 4 11 10 13 5 8 10 6 7 18 21 22 17 14 14 16 14 15 19 18 16 15 14 10 9 7 7 7 7 6 4 6 7 9 8 7 6 6 7 6 6 6 7
7 4 14 12 9 3 4 7 13 16 12 7 6 13 20 22 21 22 21 18 17 15 12 13 18 19 18 15 13 11 10 7 6 5 6 8 8 7 8 8 7 7 5 5 6 6 6 6 8
13 8 12 9 3 2 4 8 12 13 24 6 11 13 27 24 21 23 25 22 21 16 13 12 18 20 17 16 14 13 11 9 8 7 7 8 8 9 10 10 11 9 7 7 7 7 7 6 8
5 20 7 8 6 2 6 7 9 13 7 9 7 28 25 23 21 20 22 19 16 13 13 12 15 18 18 18 15 13 11 9 9 9 8 9 10 10 10 10 10 9 9 9 9 10 9 9 9
10 18 22 7 8 7 4 8 10 8 12 24 19 21 23 22 22 21 22 21 19 16 13 13 14 14 13 15 14 12 11 9 9 9 10 12 11 11 10 9 8 8 8 10 11 12 13 12 12
5 14 20 15 13 6 2 3 6 24 20 22 19 19 21 22 20 19 19 19 19 18 16 16 15 14 13 11 11 11 10 8 7 9 11 12 11 10 11 9 10 8 9 10 12 14 15 15 15
9 9 17 16 11 7 2 5 4 23 13 23 9 20 17 18 18 19 21 20 20 18 17 15 17 16 15 13 12 10 9 7 8 8 8 10 10 9 10 11 12 12 10 9 11 12 15 15 16
8 7 9 13 14 5 6 3 6 37 28 27 9 14 13 14 17 18 16 17 19 20 17 17 15 15 17 15 13 13 10 10 12 11 11 11 11 11 12 12 13 12 13 12 13 15 16 17 18
5 4 5 7 17 7 14 10 17 21 28 26 14 10 12 14 11 11 13 13 13 13 17 18 20 20 18 18 17 16 15 15 15 15 15 15 14 14 15 16 17 14 16 17 18 18 20 21 20
2 5 5 8 18 10 13 5 19 33 30 31 26 15 13 13 12 11 12 12 13 13 16 16 18 19 20 24 22 21 20 20 19 18 18 18 18 18 18 20 19 18 19 21 23 24 24 25 26
14 9 9 9 16 12 20 6 12 23 27 32 36 32 18 15 13 14 13 14 16 16 16 18 21 21 19 20 25 24 25 25 23 22 22 21 22 22 23 23 23 23 24 26 27 28 28 29 30
6 5 10 3 8 15 12 6 5 14 20 25 34 29 26 19 14 15 19 18 18 19 19 18 18 18 19 22 24 23 23 24 23 23 24 26 26 26 28 28 28 28 30 29 29 30 32 32 32
6 6 6 2 6 11 6 9 9 15 15 21 20 18 24 19 14 11 13 16 19 19 18 17 18 20 21 22 24 26 25 25 25 25 26 26 28 30 31 31 30 29 29 30 31 31 33 33 33
2 6 5 5 4 3 3 4 6 12 15 22 22 18 14 20 18 16 15 16 16 16 17 17 18 18 19 20 22 23 25 27 27 27 28 30 31 31 32 32 33 32 32 31 30 30 31 32 32
3 3 5 6 6 4 5 4 6 7 12 9 28 27 23 18 18 17 17 17 17 16 17 17 18 19 22 23 25 26 27 27 27 28 28 29 29 30 31 31 31 30 30 29 26 21 22 23 26
2 3 5 1 3 2 2 1 5 1 7 16 20 29 26 23 24 22 20 18 16 16 16 16 18 19 19 19 18 19 20 23 25 26 27 29 30 32 34 34 32 29 29 27 25 22 21 22 23
5 6 7 5 3 3 5 5 5 6 7 5 19 29 24 25 25 23 20 18 16 14 13 13 14 15 14 14 14 14 14 14 15 16 17 17 18 19 20 22 25 29 29 26 25 24 22 21 21
3 5 2 1 1 4 2 4 11 6 6 6 8 18 25 26 27 25 21 17 14 13 12 11 10 11 13 14 15 16 16 17 17 18 18 18 18 18 17 17 17 20 20 22 24 22 22 21 21
3 4 5 6 4 3 3 8 6 7 8 15 18 18 25 27 25 22 18 14 13 11 9 9 9 10 11 12 14 15 16 16 17 17 18 18 18 19 20 19 18 17 17 19 18 18 18 20 22
3 2 3 5 3 3 5 7 8 8 7 5 11 20 28 27 24 20 16 13 11 9 8 8 9 10 11 11 11 11 12 12 14 15 15 16 16 17 17 18 18 18 18 18 18 18 19 19 17
3 2 2 3 2 4 4 5 7 4 8 4 8 22 28 24 21 19 15 12 10 9 9 9 9 9 9 10 10 9 9 9 10 11 12 13 14 15 16 16 17 17 18 17 17 18 18 19 19
3 2 3 3 4 4 2 5 5 5 8 7 9 25 26 23 21 19 16 12 11 10 10 10 9 9 10 10 11 10 10 10 12 13 14 14 15 15 14 14 15 15 15 15 16 17 17 18 20
7 5 7 4 4 1 2 6 2 6 7 12 15 24 24 21 20 19 16 14 12 12 12 11 11 11 12 13 13 13 12 12 12 12 13 13 13 12 11 12 13 12 12 12 12 13 13 13 12

GFSSGP_850_spd_066.txt.gz
Wind_Speed
3 3 1 1 3 4 2 5 2 3 1 3 3 4 5 4 4 4 13 20 25 26 25 22 19 16 14 12 11 11 10 9 8 7 6 7 11 13 11 11 10 10 9 6 5 6 7 6 5
3 3 3 4 4 3 4 4 3 3 4 8 6 8 4 2 3 9 25 17 23 24 25 22 19 16 14 13 12 12 12 10 4 5 8 10 13 13 11 9 8 10 10 9 7 7 8 6 4
2 2 3 4 4 5 4 2 4 9 10 6 1 5 3 2 5 22 13 25 24 22 23 21 19 17 15 14 13 10 8 6 4 6 9 11 13 13 11 7 6 9 10 9 9 9 8 6 5
7 2 4 4 5 5 3 3 5 13 4 5 3 5 5 9 15 13 15 20 22 22 22 21 20 18 15 14 10 6 3 1 5 10 11 12 12 12 9 7 6 7 8 9 9 9 8 7 7
20 4 3 3 4 3 1 6 9 5 7 1 4 3 4 12 9 10 14 18 20 21 21 21 19 17 15 13 8 5 3 4 6 11 11 12 13 11 8 6 6 6 7 8 8 8 8 7 6
3 5 3 5 4 3 4 5 6 7 5 1 4 6 4 10 8 14 15 15 16 22 22 19 17 16 14 11 8 6 5 5 7 7 11 11 12 11 9 8 7 6 6 7 6 6 6 5 4
12 3 7 6 4 3 2 4 4 6 7 3 7 3 4 11 15 18 15 14 18 21 21 17 16 15 13 11 9 7 6 6 8 8 5 8 10 10 10 9 7 5 5 6 6 5 4 4 4
17 4 6 5 5 4 1 2 5 9 3 5 1 4 6 19 23 20 17 16 18 20 18 18 17 15 14 11 10 8 7 5 7 7 6 7 5 3 2 4 3 1 0 1 2 3 4 3 5
20 2 9 9 7 3 4 3 5 3 12 4 4 3 5 25 24 21 20 19 20 20 18 16 16 16 14 13 12 10 8 6 5 5 6 7 6 6 6 6 6 4 3 3 4 3 3 4 6
8 11 8 4 3 5 5 6 8 8 13 11 21 4 18 24 25 24 23 22 21 20 17 16 17 18 14 13 10 7 7 7 5 4 4 6 7 7 7 8 8 7 6 5 5 6 6 5 6
6 18 4 1 10 7 4 4 6 8 4 10 23 12 10 22 24 23 23 20 18 17 14 14 17 19 16 13 11 9 8 7 7 6 7 7 8 8 8 8 8 8 7 7 7 7 7 8 8
5 14 15 1 6 3 1 1 6 6 3 17 21 12 12 19 22 22 21 17 18 15 10 11 15 18 17 15 13 11 9 7 6 8 9 8 9 8 8 8 7 7 7 7 8 9 10 10 11
3 8 19 12 7 7 4 6 3 21 20 16 19 7 15 16 17 17 17 15 15 15 12 12 12 14 14 13 13 12 9 7 7 8 9 9 9 8 9 8 7 7 8 8 8 9 11 12 13
9 7 18 15 16 9 3 5 6 24 19 15 19 16 11 17 17 18 20 19 19 15 13 12 12 11 12 11 10 9 9 7 8 7 7 7 7 7 8 8 9 9 9 8 8 9 10 12 14
3 7 6 11 9 4 8 6 7 22 22 26 22 18 9 9 15 20 19 19 17 15 13 14 12 13 14 12 11 10 10 10 8 8 8 9 9 9 9 10 10 9 10 11 11 11 13 14 15
5 6 5 5 13 5 10 7 10 18 20 21 21 21 13 11 13 12 13 14 14 14 14 14 15 14 15 15 14 14 13 13 12 11 11 12 13 12 13 13 12 11 12 14 15 15 17 18 18
5 6 6 5 20 10 10 3 14 8 17 18 25 25 20 12 11 11 14 13 12 12 13 14 15 16 16 16 17 16 17 17 16 16 15 15 16 16 17 17 16 14 15 17 18 20 21 23 23
10 6 3 6 14 9 13 6 9 15 11 20 27 28 26 23 16 13 15 17 18 16 16 17 17 16 16 16 17 19 20 20 19 19 19 18 19 20 21 22 22 22 21 22 23 25 25 26 28
8 6 6 2 6 5 11 3 6 14 9 21 31 30 27 28 24 17 16 16 17 19 19 20 20 20 21 21 21 22 23 22 22 22 22 22 22 23 24 24 25 26 27 26 25 25 27 28 28
8 7 5 2 4 9 6 9 9 15 19 27 29 31 32 34 28 23 17 19 20 20 21 20 20 20 20 22 22 23 24 25 24 24 26 27 28 27 28 29 29 29 29 28 27 28 29 29 29
3 8 6 6 5 2 6 5 7 9 18 26 34 42 39 25 25 23 19 18 20 20 18 18 18 19 20 21 21 22 24 26 27 28 28 29 29 30 30 30 31 30 31 30 30 30 28 27 25
3 5 6 8 5 4 3 4 9 10 12 10 28 36 38 24 18 22 21 19 19 18 17 17 16 17 18 19 21 22 24 24 24 24 24 24 24 25 26 27 27 28 29 29 28 27 26 23 22
2 5 6 3 4 3 1 1 5 5 16 24 29 29 37 31 23 22 23 21 20 19 17 16 16 16 17 18 19 20 20 22 22 22 23 25 26 28 29 29 30 29 29 28 27 27 26 24 22
6 6 7 5 3 2 6 5 5 6 12 3 14 32 42 37 28 25 24 23 21 19 16 14 14 14 15 15 15 15 15 15 15 15 15 16 16 16 17 19 20 21 22 24 27 26 25 23 22
4 5 3 2 2 4 1 6 11 5 6 6 9 14 20 30 27 29 29 25 21 18 15 14 13 14 13 13 13 13 14 14 15 16 17 17 17 18 18 19 19 19 19 20 20 21 23 24 22
2 4 5 5 3 3 0 6 5 5 9 14 18 18 15 20 27 30 28 24 18 14 12 11 10 9 10 11 12 12 13 13 14 15 16 17 17 18 19 19 20 19 19 18 18 19 18 19 20
4 2 3 6 2 3 4 6 8 10 8 8 11 11 13 21 28 30 25 20 16 12 10 9 8 8 9 9 10 10 11 11 11 12 13 13 13 14 15 16 16 17 16 16 16 16 17 18 19
4 4 3 3 1 3 4 5 6 6 7 7 5 10 15 23 26 24 21 18 15 13 11 9 8 8 8 8 8 9 9 10 10 10 11 12 12 13 14 15 15 16 16 15 15 14 15 16 16
2 2 2 2 4 4 2 5 6 5 7 8 9 12 19 25 26 23 20 17 14 12 11 10 9 8 8 8 9 10 10 10 11 11 12 13 13 14 14 13 13 14 14 14 13 13 13 14 13
2 4 5 3 4 1 2 7 2 6 8 8 8 10 21 24 23 22 20 18 15 13 11 10 10 10 10 11 12 12 12 12 12 12 12 12 12 12 11 11 12 12 12 12 11 11 11 10 10

GFSSGP_850_spd_069.txt.gz
Wind_Speed
6 7 6 5 2 2 2 3 2 2 1 3 2 4 4 3 4 2 15 26 26 27 26 24 20 17 15 12 10 9 9 7 9 9 10 12 14 13 13 13 13 11 9 7 7 8 8 7 6
5 8 5 3 4 3 2 1 1 4 5 1 3 7 3 2 3 7 26 21 27 27 25 23 20 17 15 13 12 11 11 10 8 11 12 14 14 13 12 11 12 12 11 9 9 9 8 7 6
3 6 4 3 3 5 3 3 2 9 9 7 2 3 3 3 5 22 19 26 29 25 25 21 20 17 15 14 13 13 8 4 4 11 13 14 14 13 8 9 12 12 13 13 12 11 9 7 7
5 3 4 2 4 3 4 2 2 9 4 6 2 5 4 5 19 13 19 30 29 26 23 20 19 17 15 13 11 7 5 2 2 12 13 14 13 12 7 9 10 11 12 13 12 11 10 9 9
12 4 2 3 4 1 2 1 3 4 6 3 2 4 4 12 11 15 19 24 24 26 22 21 19 16 14 13 9 6 5 6 8 12 14 12 12 11 8 8 8 10 10 11 11 10 10 9 9
6 3 3 6 4 2 2 1 2 4 5 4 1 4 4 9 11 18 20 22 22 24 22 21 18 15 14 12 9 7 6 7 9 8 11 12 11 8 8 7 7 7 7 8 8 8 7 6 6
10 5 9 2 5 1 4 3 3 3 3 4 3 3 2 13 14 20 20 20 21 22 22 21 17 14 13 10 8 7 7 8 8 7 10 10 8 7 8 7 5 5 5 4 5 4 3 2 2
14 9 5 5 8 5 2 4 3 5 2 2 3 2 1 14 20 21 20 20 21 23 21 19 16 15 13 11 8 7 7 7 7 7 5 8 9 6 6 4 4 4 4 4 3 1 1 1 2
17 4 13 7 8 4 1 2 3 3 5 9 11 5 6 17 23 21 20 20 23 23 21 19 17 14 13 11 9 8 7 7 7 6 5 4 4 4 4 5 5 3 2 2 2 2 2 3 3
8 9 15 14 4 4 3 1 3 4 9 4 17 7 6 20 22 22 22 22 23 23 21 18 16 15 14 12 9 8 7 6 5 4 3 5 5 5 5 5 6 5 4 3 4 5 4 5 6
10 12 7 13 12 12 6 2 2 5 4 7 13 17 8 17 19 18 18 18 21 21 20 19 18 17 15 11 9 7 5 6 5 5 5 4 5 6 6 6 6 6 7 6 5 6 6 6 7
9 10 16 9 13 14 5 5 1 2 5 7 13 19 9 18 19 19 17 15 18 18 16 16 16 18 17 13 10 8 6 5 5 5 6 5 6 6 6 6 6 6 6 6 6 6 7 8 9
6 10 22 11 9 8 8 3 3 4 6 7 9 15 1 12 15 16 15 16 15 16 14 13 14 17 16 14 12 10 7 6 6 5 5 6 6 6 7 7 6 6 6 6 6 7 8 8 10
14 5 15 15 13 7 2 3 5 2 1 7 9 16 11 6 14 15 17 18 17 15 13 13 11 13 14 12 10 9 8 7 6 5 4 4 4 6 5 6 7 7 7 7 7 7 8 8 10
8 10 4 11 11 5 1 12 10 9 13 14 17 13 12 7 8 14 17 18 16 15 12 12 11 11 11 10 9 8 8 8 7 5 6 6 6 5 6 7 7 7 8 9 10 10 11 11 12
5 5 8 6 16 3 11 25 9 13 13 16 21 15 12 10 7 8 13 16 17 17 16 14 14 13 12 11 10 10 10 10 9 9 9 9 9 9 10 10 9 9 11 12 13 13 14 15 16
5 6 6 7 17 7 8 9 10 7 17 16 21 22 16 14 7 6 9 11 15 17 17 17 16 15 14 13 13 14 15 15 13 13 13 12 13 13 14 15 14 13 14 16 16 17 18 20 21
10 6 5 9 12 8 11 5 4 4 11 22 23 23 22 20 14 8 8 11 14 14 15 15 15 14 14 14 15 15 17 17 16 16 16 16 16 17 18 18 18 18 19 20 21 23 22 23 24
7 7 8 4 10 8 10 7 6 12 12 17 27 26 27 25 17 13 12 13 15 16 16 15 16 15 15 16 16 17 17 16 17 18 18 19 20 21 21 22 22 21 22 23 24 25 25 25 24
8 7 4 3 12 6 8 10 9 13 13 18 23 32 33 30 25 19 19 18 19 20 20 19 19 19 19 19 19 20 19 19 20 21 22 23 24 25 26 26 26 26 26 26 26 27 28 28 26
2 7 4 6 4 2 6 6 10 7 18 20 22 33 31 29 30 22 19 22 20 21 21 21 21 21 20 19 20 21 21 22 22 23 25 26 27 27 27 28 29 29 29 30 29 28 27 28 25
4 5 6 10 5 4 6 5 11 14 12 15 26 28 39 34 32 22 18 22 22 21 21 21 20 19 19 18 18 19 20 20 21 22 23 24 24 24 24 24 25 26 27 27 27 26 25 25 25
3 6 6 4 4 4 0 2 4 5 16 19 23 28 31 31 30 29 20 22 22 21 20 20 19 18 18 18 18 19 20 21 22 22 24 25 25 25 26 26 28 28 29 28 28 27 26 26 25
7 7 7 4 2 2 5 7 2 4 11 7 21 26 35 34 38 37 29 25 24 23 22 20 18 16 16 16 17 18 18 18 18 17 16 16 17 17 18 18 19 19 19 19 19 19 22 24 22
4 5 2 2 1 4 1 3 9 8 7 7 13 27 32 37 43 40 34 31 29 25 21 18 15 14 14 15 15 15 15 15 15 16 16 17 17 17 18 19 19 20 20 20 20 19 19 19 20
3 4 4 6 5 3 2 4 5 6 9 9 14 15 15 15 27 33 38 35 31 26 21 16 13 12 13 13 12 12 13 13 14 15 15 16 16 17 17 18 18 18 18 18 18 19 18 16 15
3 2 3 5 2 1 2 4 9 6 6 9 14 12 14 17 21 28 34 32 29 24 18 14 13 12 11 11 11 10 10 10 11 12 12 12 12 13 13 13 13 13 13 14 15 15 16 16 16
2 6 2 2 1 3 2 4 4 3 6 6 10 14 14 12 15 23 29 28 23 18 15 14 12 11 11 10 10 9 9 10 10 10 10 11 12 12 13 13 13 14 14 14 13 14 14 15 16
2 2 4 3 2 2 1 4 5 5 4 7 12 11 9 11 16 23 26 24 20 17 15 13 11 10 9 9 9 10 10 11 11 12 12 13 13 13 13 13 14 14 14 13 13 12 12 13 14
2 4 4 3 4 1 1 5 3 4 6 8 10 6 3 11 18 21 21 20 18 17 15 13 12 11 10 11 11 11 12 12 13 13 13 13 13 13 12 11 11 11 12 11 10 10 10 9 9

GFSSGP_850_spd_072.txt.gz
Wind_Speed
7 9 9 7 5 5 10 5 1 3 4 1 2 4 7 3 6 2 16 22 22 24 21 21 18 16 14 11 9 8 7 9 9 9 12 14 14 13 13 13 12 9 8 8 10 10 9 8 7
7 10 9 3 6 10 10 5 7 2 3 3 2 4 6 5 4 7 22 23 25 24 22 21 20 17 15 11 9 10 9 10 10 12 14 14 13 12 12 13 13 12 11 11 11 11 9 8 9
8 10 7 5 7 13 10 7 3 1 5 5 4 1 1 3 3 17 12 25 26 23 22 21 20 17 14 12 13 13 10 7 9 13 15 15 13 10 11 12 13 13 14 13 12 11 10 9 10
4 4 3 7 13 6 3 6 1 1 4 6 1 4 2 2 9 9 21 27 25 23 21 22 21 18 14 14 12 8 5 4 8 13 15 15 14 8 9 11 12 12 13 13 13 11 10 10 11
4 5 8 9 12 6 5 3 2 2 3 3 2 3 3 5 5 14 20 25 24 22 20 23 20 18 16 13 10 6 5 8 12 13 14 14 13 9 8 9 10 10 11 12 12 11 10 10 10
7 5 10 14 14 6 5 1 1 4 3 3 3 4 5 7 11 20 20 22 22 22 20 21 18 17 16 12 8 7 8 10 10 11 12 13 11 9 7 7 8 8 8 8 8 8 7 7 7
15 8 14 6 10 6 3 2 1 4 2 5 1 4 2 8 13 19 21 19 21 20 20 20 18 16 15 12 8 7 9 10 10 11 11 11 9 6 7 6 5 5 6 6 6 6 5 5 5
14 9 18 11 8 6 3 1 1 3 4 2 2 3 6 4 16 20 23 21 20 19 19 18 17 16 15 12 9 8 9 10 10 7 9 11 8 7 7 5 4 3 2 2 3 2 2 2 2
22 10 14 20 14 7 4 4 1 1 4 5 7 1 4 8 18 19 19 20 19 19 18 17 16 16 14 11 10 9 8 9 8 8 5 4 4 3 4 5 4 3 2 1 2 1 1 2 3
11 12 21 19 10 13 8 4 2 3 8 5 8 6 2 15 19 19 20 21 22 22 18 17 15 15 14 13 11 9 8 7 7 6 5 5 5 5 5 5 5 5 4 3 3 4 4 4 5
8 15 15 22 12 14 9 6 1 8 6 7 10 9 10 15 19 18 19 20 22 22 22 16 16 15 14 12 11 10 9 8 8 6 5 5 5 6 6 6 6 6 6 5 5 6 6 7 7
12 25 25 15 20 17 12 9 2 1 7 5 7 9 11 15 16 14 16 15 18 22 21 18 15 16 14 11 12 10 8 8 7 7 7 6 6 6 6 6 7 6 5 6 6 7 8 9 9
17 17 19 15 16 17 13 5 2 4 3 2 4 11 4 13 14 12 14 11 14 16 19 18 17 16 17 14 11 10 9 8 8 7 6 7 7 6 7 7 7 6 5 5 6 6 7 8 9
17 11 23 17 17 13 14 13 5 6 5 3 2 8 8 3 8 13 14 14 14 16 15 15 15 15 16 15 13 10 9 9 9 7 5 5 5 6 7 6 7 6 6 7 7 7 7 7 9
9 14 14 22 19 7 10 12 18 21 8 9 6 3 5 4 3 9 10 12 15 15 14 14 13 14 15 14 12 11 11 10 8 7 6 6 5 5 6 7 6 6 8 8 10 10 11 11 11
9 16 10 18 23 7 12 21 27 24 13 18 16 9 4 4 2 4 10 12 15 15 17 15 15 14 14 13 12 11 10 10 9 9 9 8 8 8 9 9 8 9 10 11 12 12 13 14 14
12 11 20 8 17 8 16 12 10 15 16 19 19 13 7 8 3 3 5 11 16 18 19 19 17 15 14 14 14 13 13 13 13 13 12 11 12 12 12 13 13 13 14 15 16 16 16 17 16
18 15 18 14 13 12 15 13 3 6 20 25 23 16 12 12 9 6 4 8 14 20 21 20 18 17 16 16 17 16 17 17 17 17 16 15 16 16 17 17 17 17 18 19 19 20 19 22 22
15 12 14 11 10 14 13 13 13 11 15 19 29 28 21 18 18 11 9 6 10 15 17 18 18 17 18 18 18 17 17 16 16 17 18 18 19 20 20 21 20 21 21 21 22 23 24 24 24
16 16 13 8 14 13 12 18 14 17 20 18 19 29 32 27 22 21 15 10 12 15 17 17 17 18 18 18 18 18 17 17 17 18 19 21 21 22 23 24 25 26 26 25 25 25 25 26 25
15 17 15 11 11 8 8 13 15 16 18 17 20 24 28 32 28 22 21 13 14 17 18 19 20 20 21 21 21 21 21 21 20 20 22 22 23 24 25 26 27 27 28 28 28 28 27 25 25
13 10 13 15 13 6 11 4 11 16 17 21 28 29 25 22 23 26 26 15 14 20 20 20 20 21 21 21 20 20 19 19 20 20 21 22 23 24 24 24 24 25 25 26 27 27 28 27 26
5 11 10 10 9 4 8 5 4 6 20 22 24 25 25 19 22 27 27 17 12 19 22 21 21 21 19 18 18 18 18 19 20 22 23 24 25 25 25 26 26 26 27 28 28 27 27 27 26
14 12 9 4 4 6 11 11 6 7 12 13 22 25 28 25 21 24 25 23 21 20 23 22 20 19 18 18 18 18 18 19 20 21 21 21 21 20 20 20 21 21 21 21 22 22 22 22 23
9 17 4 4 5 5 2 9 11 8 8 6 8 15 24 25 26 22 27 28 26 24 24 22 21 20 19 18 17 18 19 20 20 20 19 19 19 20 21 21 22 22 23 23 23 23 22 21 20
14 10 4 6 5 4 3 6 2 5 4 4 8 13 10 13 18 20 22 23 25 26 26 25 23 20 17 16 16 17 18 18 18 18 19 19 20 21 21 21 21 21 21 21 20 20 20 19 16
6 4 3 4 1 2 3 4 10 3 6 4 5 7 12 13 16 18 23 29 28 29 29 25 21 18 16 15 15 15 15 16 17 17 17 18 18 18 17 17 16 16 16 16 16 17 18 17 15
3 10 3 1 4 4 3 4 4 7 6 6 6 6 9 11 13 17 22 21 26 30 27 22 19 16 14 13 14 14 14 14 14 15 15 15 15 15 15 15 15 15 15 15 15 16 16 16 16
4 4 1 0 2 1 1 2 2 8 6 5 7 7 5 4 7 9 14 16 23 24 23 20 17 15 14 14 13 13 13 13 14 15 15 15 15 15 16 15 15 15 14 14 14 14 14 14 15
2 6 12 5 5 1 3 3 4 5 4 2 6 7 6 1 4 9 15 21 24 23 21 18 17 15 14 13 13 13 14 14 15 16 16 16 16 15 15 15 14 14 13 13 12 12 12 11 11

GFSSGP_850_spd_075.txt.gz
Wind_Speed
7 4 5 4 5 7 14 9 2 8 6 2 3 6 4 9 9 5 21 16 22 21 21 20 17 14 11 8 7 5 6 8 9 12 14 13 14 13 13 11 10 9 10 10 10 11 10 10 11
4 5 6 8 7 13 13 11 12 10 6 1 2 4 5 9 11 15 19 21 24 22 22 20 18 16 12 9 7 8 10 10 11 14 14 13 12 12 13 13 13 12 13 13 12 11 11 11 12
7 9 11 5 10 16 15 10 9 6 3 1 2 3 3 7 7 21 13 24 25 21 21 20 19 17 13 10 10 10 10 10 10 14 15 15 9 10 12 13 14 14 15 13 12 11 11 11 12
7 10 12 11 16 21 10 12 5 7 5 3 6 5 5 6 11 10 19 25 23 21 19 21 19 17 14 14 14 10 7 7 11 14 15 16 8 9 11 12 14 14 14 13 12 11 11 12 12
10 15 11 15 18 17 3 9 3 3 9 13 1 4 5 4 4 13 22 24 22 21 19 21 19 17 15 14 11 7 5 9 13 14 15 15 9 8 10 11 12 12 11 11 10 10 10 10 10
14 18 12 17 20 9 8 5 5 1 4 11 5 4 6 2 10 17 22 22 21 20 18 21 19 16 16 14 9 7 10 13 13 13 13 13 8 7 8 9 10 10 10 10 9 8 8 8 8
16 13 19 22 18 9 9 5 6 1 5 5 6 8 5 6 14 16 20 20 20 18 18 18 18 16 15 12 9 8 12 12 13 12 12 10 8 4 8 6 7 7 6 7 6 6 5 5 5
15 9 21 17 15 10 8 6 5 4 6 2 2 8 6 7 16 20 18 19 20 16 19 17 16 15 15 12 10 9 13 12 11 12 12 11 7 5 6 4 3 4 3 3 3 3 3 2 2
11 4 16 12 19 11 8 7 4 2 3 4 3 4 4 7 16 23 22 25 19 19 20 18 17 15 14 9 10 9 11 12 10 9 6 7 2 3 2 3 2 1 1 1 2 1 1 1 2
9 5 22 21 14 13 13 5 7 3 6 5 5 3 2 12 17 20 19 21 22 21 20 19 18 17 14 11 9 7 8 10 8 6 6 6 6 6 8 4 4 4 4 4 4 4 4 3 4
12 11 15 17 8 10 14 11 3 1 2 6 5 4 7 13 19 18 15 16 18 18 17 17 16 17 18 13 10 8 6 7 8 9 8 7 7 7 6 4 5 6 6 6 6 5 4 4 6
10 27 16 12 8 13 14 10 7 6 8 3 5 4 10 17 17 17 14 14 17 16 19 15 16 16 15 13 12 10 9 8 7 8 8 7 5 6 5 5 5 6 5 4 6 5 7 7 7
24 17 24 27 9 14 14 14 10 4 3 1 4 7 6 12 13 16 17 14 16 17 22 16 15 15 15 14 14 11 10 10 8 8 8 7 7 5 5 6 6 6 6 6 6 6 6 6 6
19 18 21 17 11 18 18 13 21 18 8 4 1 6 5 8 12 16 15 14 16 14 15 17 17 15 16 15 14 12 10 8 9 8 7 8 7 6 7 6 6 6 6 6 6 6 6 6 7
5 20 9 16 14 11 18 15 23 27 12 7 5 1 4 3 8 9 9 12 14 14 14 14 14 15 16 15 14 12 11 10 10 9 8 7 7 6 6 6 6 6 7 7 8 8 9 9 9
10 17 13 17 21 9 17 20 20 32 23 11 13 10 3 1 2 4 8 9 11 11 14 14 13 12 14 13 14 12 11 11 10 9 8 8 7 7 7 7 7 8 8 9 9 9 10 10 10
11 13 18 17 19 10 14 10 8 25 27 22 19 16 11 6 3 2 5 9 10 13 14 14 14 13 14 13 12 11 12 11 10 9 9 9 9 10 10 9 10 10 11 11 12 11 12 12 14
14 15 19 13 16 18 13 11 1 14 26 34 28 21 17 12 8 5 4 6 11 11 13 15 16 14 13 13 12 12 11 12 11 11 11 11 11 11 13 13 13 12 13 14 14 15 15 16 16
16 17 19 20 10 14 17 15 14 12 17 27 32 29 24 19 11 8 5 7 8 13 16 15 16 17 15 15 14 14 13 13 13 14 15 15 14 14 15 16 15 15 17 17 17 18 19 19 19
17 19 11 3 10 13 16 15 14 17 22 25 24 35 34 28 19 13 9 9 7 8 12 14 15 14 15 14 15 13 12 12 11 12 14 16 18 19 20 21 21 20 20 22 22 21 22 21 18
17 18 14 13 9 13 9 15 15 17 22 22 24 25 34 34 28 22 16 16 14 12 14 16 17 18 17 18 18 19 18 17 16 17 18 18 19 21 22 23 24 24 25 25 25 26 24 24 24
11 13 14 11 13 7 15 6 17 17 17 20 26 21 24 29 30 26 24 19 20 14 18 17 19 19 19 20 21 20 18 15 15 17 18 19 20 21 22 22 24 24 24 25 24 24 23 20 24
10 8 9 9 12 5 9 6 13 9 17 18 22 21 21 19 17 20 18 23 24 19 17 20 19 19 19 19 19 19 19 19 19 18 19 20 22 23 24 24 24 25 25 25 25 25 25 24 24
9 11 8 4 7 8 14 10 9 10 11 13 16 19 23 21 20 16 20 21 26 25 15 17 19 19 17 17 17 17 16 16 16 17 18 20 21 23 22 22 21 20 21 21 21 21 22 22 21
16 16 5 5 4 6 1 10 12 1 4 4 2 12 18 22 23 21 20 23 25 26 20 17 18 18 18 17 16 16 15 16 16 18 19 19 19 20 21 20 21 22 23 23 23 23 24 23 21
14 17 4 5 7 10 5 6 6 4 4 3 6 10 11 9 15 20 24 24 21 26 24 21 21 22 18 18 17 15 16 18 19 20 20 19 19 20 21 22 22 23 23 22 22 21 20 20 19
9 4 4 3 5 0 7 6 10 4 8 7 8 5 6 9 10 12 14 17 19 24 24 24 24 21 21 20 17 16 16 17 18 18 18 19 20 20 20 19 19 19 19 19 18 18 18 18 17
4 9 4 1 4 5 5 5 3 8 7 6 5 4 3 4 7 8 11 14 18 23 22 22 21 21 19 17 17 16 16 16 17 17 18 17 18 18 18 18 18 18 18 18 18 18 18 17 18
4 4 4 3 2 3 2 3 8 8 7 8 10 11 10 6 4 6 7 11 16 16 20 21 21 20 18 17 15 15 15 15 15 16 17 18 18 18 18 18 18 18 18 17 17 17 16 16 16
5 12 12 5 5 2 4 2 4 10 4 4 5 6 9 7 4 3 6 11 15 18 18 21 20 17 15 14 13 14 14 15 16 17 18 18 19 18 18 18 18 18 17 16 15 15 14 13 13

GFSSGP_850_spd_078.txt.gz
Wind_Speed
9 2 3 4 2 4 6 9 4 6 2 16 13 9 3 17 7 8 24 20 19 24 24 21 18 15 13 10 8 8 10 11 14 15 15 15 14 14 12 11 10 11 12 12 14 14 13 15 18
9 6 7 5 4 6 8 13 11 9 11 6 7 10 7 5 5 27 24 21 22 25 25 23 19 16 13 10 10 12 13 14 16 16 13 13 14 15 14 13 13 15 15 14 15 14 15 16 18
10 7 8 4 4 9 8 10 9 9 2 2 3 4 11 6 14 17 24 28 21 24 24 24 21 16 13 11 13 14 14 15 16 16 16 11 14 15 16 16 16 17 15 15 15 15 15 15 16
6 7 10 7 10 13 14 4 10 10 6 4 3 11 4 14 7 12 23 27 22 23 22 22 20 16 13 14 15 14 14 16 16 16 17 9 13 15 16 17 16 16 15 15 15 15 15 15 14
9 10 6 8 15 10 6 14 2 3 11 8 10 6 7 5 9 19 25 24 20 22 20 21 18 16 15 16 14 12 12 15 17 16 17 11 13 13 14 15 15 15 14 14 14 13 13 13 13
7 9 7 12 14 15 7 10 7 5 5 13 9 9 4 4 7 19 24 22 23 22 19 20 18 16 16 14 10 9 12 15 17 17 16 12 9 11 12 12 13 12 12 11 11 11 10 10 9
6 6 11 15 11 11 9 5 4 7 7 9 10 6 4 1 14 17 21 22 22 19 17 21 19 16 16 12 9 10 15 15 15 16 14 12 11 11 11 10 10 10 9 9 8 7 6 6 6
10 3 13 13 15 6 8 5 4 10 4 5 4 5 13 7 19 21 21 22 19 15 15 20 18 17 15 11 9 12 15 16 15 15 14 11 7 9 9 8 7 6 6 5 5 4 3 3 3
14 5 10 19 2 6 10 4 1 4 10 9 6 5 14 14 22 26 19 20 17 16 16 15 16 15 14 11 9 12 14 14 14 14 11 7 6 6 5 5 4 3 2 2 2 1 1 1 2
8 4 12 12 12 12 11 8 8 4 12 16 17 10 8 18 20 19 22 18 19 19 17 16 12 15 14 9 10 9 11 11 10 9 10 9 3 1 2 1 2 2 2 2 1 2 2 3 3
11 11 11 4 10 17 15 8 2 6 8 14 12 5 8 13 23 18 21 23 9 14 18 18 19 16 16 11 8 6 7 9 7 4 8 11 11 9 8 5 3 4 3 4 4 3 4 4 4
6 16 22 9 9 6 5 13 6 19 14 11 14 4 8 14 18 25 21 22 21 17 18 17 17 17 17 13 14 6 3 6 8 11 7 12 11 7 4 3 5 4 3 4 5 6 6 9 8
14 11 21 16 5 6 12 12 8 17 13 12 14 7 7 16 20 24 24 21 21 21 20 18 17 17 17 16 17 12 10 9 9 9 11 8 6 6 7 7 7 5 4 5 5 6 6 7 7
24 22 15 17 14 2 8 9 14 11 11 13 10 10 5 13 14 25 22 20 22 21 24 17 19 17 17 16 17 15 11 8 10 10 11 12 9 9 9 8 7 7 6 6 6 6 7 7 8
14 15 4 10 13 4 3 18 9 14 10 11 8 9 8 3 16 17 17 20 19 19 14 26 19 19 18 17 16 16 12 9 11 11 9 9 10 8 7 6 5 5 6 6 7 8 10 11 11
8 3 8 9 7 4 8 10 9 15 15 11 7 6 7 4 3 8 10 13 17 19 18 20 21 19 18 19 17 17 13 14 10 8 8 7 7 6 6 6 6 6 7 9 9 9 10 11 11
11 8 16 16 19 4 6 11 17 26 22 18 12 7 8 9 7 5 11 14 10 13 16 17 16 15 16 17 14 15 13 12 11 10 9 9 8 8 8 7 7 8 10 11 12 12 12 13 13
10 8 9 11 12 9 13 18 5 27 23 22 13 13 14 8 7 7 5 12 16 14 16 17 20 18 17 17 16 15 17 14 13 11 10 10 9 9 10 11 10 11 12 13 14 14 14 16 17
10 11 13 10 10 14 13 8 5 5 12 12 19 20 18 20 13 14 9 7 11 17 16 16 18 18 18 18 17 16 16 15 18 18 15 13 13 13 13 13 11 11 13 15 15 17 18 20 21
2 11 4 3 8 2 11 12 12 11 15 23 24 27 30 29 20 18 13 9 9 11 18 19 17 18 19 19 18 17 17 15 11 12 16 20 20 19 19 19 19 18 18 18 18 19 20 20 19
8 11 13 6 6 10 8 9 10 15 19 23 25 26 27 34 37 22 19 15 13 9 13 17 18 17 16 18 18 20 17 16 16 16 16 16 14 15 17 18 20 20 21 21 22 24 25 26 25
8 17 13 16 7 4 8 3 12 15 14 14 18 22 23 24 35 34 23 22 21 18 14 18 20 21 21 21 21 18 17 18 17 18 19 17 14 15 17 18 20 20 21 22 23 23 22 20 21
5 13 4 7 8 1 6 2 6 12 9 9 13 21 22 20 21 34 32 28 24 24 22 17 20 21 21 20 20 19 18 18 17 16 16 16 16 17 18 20 21 22 22 22 22 21 22 22 21
5 7 9 2 3 2 6 3 5 5 9 8 14 22 26 22 17 15 20 23 26 25 23 22 22 21 20 20 19 18 17 17 17 17 15 16 18 19 20 21 21 20 20 19 19 19 19 19 21
7 7 3 2 1 3 1 5 9 1 6 2 6 3 7 25 23 22 19 21 25 26 25 22 21 22 20 20 19 18 17 15 15 15 15 16 18 21 22 19 18 19 20 20 21 21 21 21 21
6 5 4 4 3 4 2 2 5 4 12 10 6 1 7 8 6 25 23 25 24 26 27 23 21 21 21 19 19 17 16 16 16 15 16 18 18 20 20 19 19 20 20 20 20 19 18 19 19
2 3 1 4 4 4 4 5 3 6 5 4 4 5 1 6 9 9 9 23 27 24 25 26 23 21 20 20 20 15 19 17 14 17 18 18 18 18 18 18 18 18 18 18 18 17 17 17 19
4 2 2 3 1 1 4 4 3 5 6 8 9 12 7 2 7 9 9 11 18 21 21 24 25 25 24 21 19 18 16 14 16 17 16 16 17 17 17 17 17 17 17 17 17 17 17 16 18
2 2 2 1 3 0 2 1 7 9 9 9 9 9 5 4 3 8 13 17 17 20 22 22 24 24 25 24 20 18 16 14 14 14 15 15 17 18 19 19 18 18 17 17 17 17 16 16 17
6 2 7 3 3 1 3 4 3 9 8 12 9 3 3 3 3 4 8 12 18 19 18 21 24 24 22 20 18 16 14 14 14 14 15 17 17 19 19 19 19 18 17 17 16 16 15 14 15

GFSSGP_850_spd_081.txt.gz
Wind_Speed
10 8 4 2 2 3 3 6 3 3 2 2 19 4 6 13 2 2 22 25 25 28 27 23 21 18 16 12 11 12 15 18 18 17 18 16 15 14 14 13 13 11 13 15 16 18 20 21 22
12 8 6 2 3 3 5 6 6 4 4 5 12 5 14 4 6 22 26 17 25 31 28 24 22 19 15 13 13 15 18 19 18 17 18 18 16 15 13 14 14 16 17 17 18 19 20 21 21
14 9 6 4 4 6 5 9 9 14 14 5 9 8 5 5 15 13 18 21 29 30 28 26 22 18 15 15 16 17 19 19 18 17 18 18 18 17 17 17 18 18 18 18 18 18 19 19 20
10 7 5 3 8 7 3 5 8 21 20 8 14 5 3 7 4 14 22 21 30 30 28 25 22 18 16 17 18 19 20 19 18 18 17 18 19 19 19 19 19 19 18 18 18 18 18 17 17
9 5 3 4 8 4 4 7 16 0 10 10 23 6 6 6 16 27 21 20 28 28 27 25 21 18 17 18 17 18 20 20 19 18 17 18 18 19 18 18 18 17 17 16 16 16 15 15 14
6 8 4 5 5 7 4 14 20 4 13 14 13 14 7 11 14 19 18 16 22 26 25 24 20 19 19 17 15 16 19 20 20 18 15 16 17 18 17 16 16 15 14 13 13 12 12 11 11
6 3 5 7 5 5 5 6 5 2 8 2 19 6 13 18 20 10 19 14 21 19 23 22 20 20 20 14 13 15 18 19 19 18 14 14 13 15 14 14 13 12 11 10 9 9 8 8 7
19 4 4 4 9 5 4 4 7 7 3 4 7 8 7 33 30 10 16 22 21 18 18 20 19 19 17 13 12 17 18 18 18 18 14 13 12 13 12 12 11 10 9 7 6 5 4 4 4
19 5 7 5 4 4 8 3 4 5 10 8 5 14 26 31 28 12 22 23 20 15 14 20 18 18 15 12 12 17 18 18 18 16 12 10 10 10 9 8 7 6 5 4 3 2 1 1 1
8 7 7 1 2 5 7 4 5 5 14 9 16 17 24 22 20 18 19 27 23 17 16 15 16 17 14 11 11 15 14 17 16 13 12 10 9 7 7 5 4 3 3 3 2 1 2 2 2
9 9 1 6 5 9 8 4 3 9 4 9 16 18 26 28 22 27 21 22 24 17 15 14 11 15 13 10 11 12 13 13 14 12 9 7 6 2 3 2 2 3 3 3 2 2 1 2 4
5 12 6 6 9 9 3 6 5 8 9 11 9 13 24 33 33 27 20 21 21 19 16 18 14 13 13 9 10 9 9 12 12 12 11 7 5 6 5 5 4 2 3 2 3 2 3 4 6
11 7 10 5 7 13 7 4 6 13 16 12 10 9 17 26 31 31 31 28 23 16 19 19 17 17 16 14 11 8 4 7 7 8 9 9 13 10 8 6 4 4 3 4 4 3 5 6 6
13 10 10 10 4 6 6 2 2 12 14 15 13 9 14 18 22 26 26 25 21 20 20 21 19 16 16 16 17 13 11 7 10 11 12 13 11 10 8 7 7 6 5 5 6 5 6 6 7
14 9 5 8 12 4 10 7 3 13 14 13 14 11 11 18 19 23 23 20 20 21 21 22 23 20 19 18 18 16 16 14 13 12 10 13 14 11 9 9 7 6 6 6 6 6 8 9 10
8 3 6 9 8 4 4 9 15 10 14 12 15 13 11 9 11 18 19 21 23 25 22 22 21 21 23 19 18 21 16 15 15 12 11 8 10 10 9 8 7 6 6 6 7 8 9 10 10
8 5 9 6 8 5 11 4 12 7 16 14 10 8 8 11 9 8 16 18 22 21 26 24 23 23 22 22 22 20 19 17 16 12 11 10 5 7 7 7 7 7 8 9 10 10 11 11 12
8 6 10 9 10 8 5 5 4 4 12 18 14 11 6 11 9 8 8 18 21 21 19 19 22 23 23 20 20 21 22 19 15 14 11 11 10 8 7 7 7 9 10 11 12 13 12 14 17
5 5 7 9 14 8 8 6 7 6 15 20 17 16 16 10 9 12 7 9 19 19 18 20 23 23 22 22 22 21 25 21 19 17 18 16 13 11 12 12 11 12 12 13 15 16 17 18 20
4 3 2 5 17 7 13 9 8 13 10 18 25 24 22 22 13 18 14 11 13 18 22 22 25 24 24 23 22 22 21 20 20 20 17 16 15 16 16 18 15 15 17 16 17 18 20 21 19
3 3 4 8 9 2 4 4 4 7 19 26 28 27 27 29 26 18 21 17 14 15 20 24 23 23 24 23 24 26 24 23 19 18 18 20 24 24 21 18 17 18 17 18 20 21 22 23 23
3 7 4 8 4 4 3 1 14 15 16 11 23 26 26 26 28 30 26 24 20 16 16 20 25 26 26 25 26 23 23 21 20 20 20 19 18 18 18 17 18 18 18 19 21 22 23 22 21
5 9 8 9 6 5 3 3 6 6 11 16 20 27 25 24 24 23 31 35 28 22 19 19 18 23 24 24 26 24 23 24 23 22 21 20 18 16 16 17 18 19 20 21 21 21 21 20 19
8 2 9 6 2 1 5 4 4 4 15 6 9 29 26 25 22 21 20 34 33 28 25 23 20 20 23 24 25 25 25 24 23 22 20 18 17 17 17 17 19 20 20 20 19 19 19 19 19
1 6 3 2 2 4 4 4 7 3 5 9 12 20 19 27 26 23 18 20 37 32 28 25 24 22 23 24 24 24 23 22 21 20 19 19 17 17 17 18 19 19 19 19 19 20 20 21 21
7 4 4 4 3 3 0 5 5 4 5 13 15 14 7 4 8 23 20 18 20 26 24 23 24 23 23 24 24 24 22 20 19 18 17 17 17 18 19 19 19 19 20 20 20 19 19 19 19
5 3 2 4 2 4 3 5 6 4 6 5 6 6 3 2 3 4 7 19 22 22 22 23 27 26 23 23 24 22 21 21 19 17 16 15 16 17 17 18 19 19 18 18 18 18 18 18 18
3 3 3 3 1 3 3 3 4 5 6 7 8 11 7 1 1 1 3 8 13 24 23 20 23 25 23 24 24 22 22 19 18 17 15 13 14 17 18 17 17 19 19 18 18 18 18 17 18
3 2 2 3 4 3 2 5 6 8 9 9 8 9 7 6 8 2 5 7 11 18 22 23 23 26 27 25 24 22 21 19 18 15 12 14 17 19 18 18 19 18 18 18 18 18 18 17 18
2 2 1 4 3 1 4 3 3 8 9 16 9 5 4 3 5 5 5 7 12 17 19 21 21 25 26 25 23 20 20 18 16 19 27 20 19 18 17 18 18 18 18 18 18 18 17 16 17

GFSSGP_850_spd_084.txt.gz
Wind_Speed
10 9 7 6 3 3 4 6 4 6 5 1 10 3 7 7 1 3 13 29 29 31 28 25 22 20 19 16 17 17 17 18 18 20 20 20 19 18 18 16 12 11 16 18 20 21 22 22 21
12 12 9 4 3 5 12 5 8 5 17 11 6 6 8 2 4 13 26 21 26 30 28 25 23 22 18 16 17 19 19 19 19 20 19 17 15 14 13 12 15 17 20 20 21 21 21 20 18
12 13 8 4 4 8 11 10 11 8 23 24 8 6 3 4 13 20 8 26 30 31 28 26 23 20 18 18 20 22 20 19 20 20 19 18 17 16 16 19 20 20 21 21 21 21 20 19 17
7 9 4 3 9 7 6 6 11 5 4 20 24 5 4 10 5 11 19 28 32 30 27 24 23 19 18 20 21 23 21 20 20 20 20 20 20 21 21 21 21 21 20 20 19 19 18 17 15
11 5 3 3 7 4 6 9 6 5 31 8 21 9 5 13 9 19 18 28 30 28 26 24 20 17 19 20 22 23 22 21 18 20 20 21 21 21 21 20 20 19 19 18 17 16 15 14 12
9 6 4 6 5 6 6 17 9 10 11 16 12 17 6 10 20 21 19 22 27 28 26 23 19 17 20 19 20 23 23 23 19 19 20 20 21 20 19 19 18 17 16 16 15 14 13 11 9
7 4 5 7 4 6 6 9 11 8 11 4 27 8 13 10 13 25 21 15 24 26 25 23 20 19 19 18 18 21 22 22 20 18 18 19 19 19 18 17 16 15 13 12 12 11 10 9 7
14 4 4 5 6 8 5 6 4 12 5 17 13 10 12 35 22 17 18 16 22 24 23 22 22 23 19 16 17 20 21 21 19 17 15 16 16 17 15 14 13 12 10 9 8 7 6 6 5
18 5 12 6 9 4 6 4 2 6 15 8 12 21 30 36 32 26 16 20 22 21 22 21 21 22 17 15 17 20 21 20 20 16 14 14 14 14 13 12 10 9 7 6 5 4 4 3 3
8 7 12 4 1 2 2 4 6 5 7 5 13 21 36 43 42 40 25 25 28 27 24 22 22 21 17 14 17 20 20 19 18 15 14 12 13 11 10 8 8 7 6 5 4 4 3 2 1
4 10 7 3 3 2 2 1 3 12 3 6 19 33 37 40 39 42 43 30 28 24 20 22 20 20 17 15 17 18 18 18 17 15 14 13 12 10 8 5 6 6 5 5 4 4 3 2 1
4 8 17 3 8 4 4 11 5 4 6 13 23 35 42 37 38 38 31 30 18 21 18 17 16 18 15 13 14 15 17 17 17 15 13 11 11 8 4 5 4 4 5 4 5 4 3 1 2
10 8 21 8 7 8 8 8 3 12 12 11 16 24 31 31 32 33 30 34 33 6 13 18 18 14 16 12 13 14 14 14 14 13 12 9 8 5 5 5 5 4 4 4 3 3 2 2 4
19 10 18 22 5 8 8 6 3 8 10 11 11 14 21 26 28 26 28 22 17 19 28 20 22 15 14 12 12 12 10 8 11 12 10 10 8 8 7 8 7 5 4 4 4 4 4 4 6
7 9 6 13 17 3 8 2 3 7 8 13 9 8 15 22 28 24 26 22 22 25 25 21 22 22 18 16 13 12 12 10 10 8 9 11 13 13 11 9 7 6 5 5 6 6 6 7 9
9 6 7 6 16 4 6 4 3 5 8 12 10 7 8 16 21 29 24 21 24 26 30 29 27 21 20 19 16 15 14 15 14 12 10 12 14 15 12 11 9 8 7 7 7 7 9 10 10
3 3 9 4 6 5 7 5 12 7 10 7 12 11 8 8 11 18 25 29 28 27 27 29 28 19 20 20 20 21 18 17 17 16 12 11 11 12 11 10 9 9 9 9 8 9 10 11 11
6 6 3 6 4 5 10 6 5 9 10 11 10 12 11 12 7 7 15 22 27 24 24 25 26 24 20 25 25 23 23 24 21 18 13 14 12 6 7 6 5 8 10 10 11 12 12 14 15
3 10 8 6 10 5 6 10 7 14 16 15 16 14 11 12 11 8 8 16 22 24 25 27 27 26 26 26 23 23 26 25 23 20 17 16 15 13 11 10 11 11 11 12 14 16 16 17 19
3 10 7 5 12 9 10 14 9 16 15 16 21 22 19 14 11 12 13 10 18 21 23 22 26 24 25 24 26 23 25 29 21 19 20 22 21 18 16 15 16 16 15 15 17 17 18 20 19
5 9 6 7 12 10 6 5 7 9 18 14 19 27 26 21 20 15 18 16 13 15 22 22 23 22 25 24 25 25 24 24 24 24 22 19 18 18 18 18 20 20 20 22 20 21 22 23 25
5 5 2 13 12 3 2 2 7 9 10 9 19 24 27 25 23 26 23 22 19 15 14 21 23 23 24 23 23 25 26 26 22 23 21 22 25 22 22 24 24 23 21 20 21 23 24 25 25
3 4 5 6 3 3 8 4 5 5 10 9 16 30 30 27 24 23 29 27 26 20 18 16 21 23 25 24 26 25 27 26 26 28 29 25 24 22 22 22 21 20 20 21 22 23 24 23 22
3 3 8 7 3 0 6 4 5 4 7 6 14 26 31 29 26 21 19 21 27 29 24 21 18 18 24 27 29 28 26 26 27 27 28 27 25 23 21 20 20 20 21 22 22 22 22 21 21
2 4 2 2 1 3 3 3 8 5 4 7 10 23 26 29 25 23 22 20 18 28 32 27 24 22 21 24 26 26 26 28 29 27 27 26 24 21 19 18 18 20 20 21 21 21 22 22 22
3 4 4 4 4 3 4 5 5 2 2 2 9 13 9 6 12 21 24 18 18 16 34 31 28 26 25 25 27 28 29 30 28 25 25 23 21 20 18 18 19 19 19 20 20 21 21 21 21
3 1 2 5 2 3 3 5 6 6 6 8 12 11 7 3 2 1 8 19 15 13 23 30 25 24 24 25 26 27 28 27 26 25 23 21 19 16 17 18 20 20 20 21 20 20 21 20 20
4 3 1 3 3 3 2 2 3 2 3 3 6 10 8 5 3 3 2 4 12 18 22 26 25 23 23 25 25 24 23 22 23 19 19 19 17 17 17 19 19 20 21 21 21 20 21 20 20
3 1 3 3 3 3 2 4 5 8 7 8 6 9 9 8 8 4 2 5 7 14 23 23 21 20 21 23 22 22 22 21 22 23 20 19 17 14 23 26 22 21 21 21 21 21 21 20 20
1 2 2 4 2 1 3 4 5 8 8 13 10 6 5 4 7 5 5 5 7 10 14 17 18 18 19 21 22 21 21 22 24 20 20 20 20 24 25 21 21 21 21 21 21 21 20 20 19

GFSSGP_850_spd_087.txt.gz
Wind_Speed
13 11 8 6 1 2 4 7 3 7 3 6 3 4 4 5 2 3 6 27 33 32 29 24 20 17 16 14 16 17 19 23 24 23 23 25 24 21 19 16 12 12 16 18 19 19 19 18 16
16 11 10 5 3 6 11 5 7 7 16 24 6 7 2 2 4 6 20 21 31 31 28 24 20 19 17 16 18 16 18 22 23 23 23 21 20 18 15 12 12 18 19 20 20 19 18 16 16
13 10 7 4 4 10 17 11 13 6 21 15 2 6 4 2 4 18 11 25 29 30 26 24 21 19 15 17 18 18 19 20 22 21 19 18 16 13 10 17 21 21 21 20 19 18 16 15 16
6 7 7 3 7 9 4 15 3 8 10 17 15 3 2 2 6 11 16 28 30 28 26 24 22 18 16 17 20 18 18 20 20 19 18 17 15 15 20 22 22 21 20 19 18 17 15 13 14
12 8 9 7 8 4 5 6 22 12 9 17 24 15 3 7 7 13 19 28 30 27 26 24 21 16 18 19 22 18 18 19 20 19 19 20 21 22 23 22 21 20 19 18 17 15 13 10 9
7 10 6 11 17 5 4 16 6 16 33 16 15 12 6 12 16 19 20 29 28 27 24 22 18 16 18 20 23 22 18 16 19 21 21 23 23 22 22 21 20 19 18 16 15 13 11 9 7
7 6 11 14 18 4 8 11 6 11 19 20 30 17 13 18 20 19 21 28 25 24 23 20 17 16 16 18 22 22 22 16 17 19 20 21 21 21 20 19 18 17 16 14 13 11 9 7 5
9 3 9 11 13 10 7 6 5 12 7 24 31 10 10 34 7 18 22 24 23 23 21 19 16 17 17 16 18 21 21 18 16 16 17 18 18 18 18 17 15 14 13 12 10 9 7 6 4
13 8 9 13 15 6 11 5 5 8 15 12 19 11 17 32 26 9 22 23 22 21 20 17 16 17 16 14 16 19 21 19 16 14 15 16 16 16 15 14 12 11 10 9 8 7 6 5 4
9 6 8 7 3 7 5 5 10 7 6 3 11 12 28 34 31 19 26 28 22 22 20 18 17 18 15 13 16 20 21 20 18 15 14 15 14 13 12 11 10 9 8 7 6 6 5 4 3
7 11 12 21 2 4 8 2 4 9 4 8 21 26 42 37 30 28 37 26 21 19 20 18 16 17 13 12 17 20 21 20 18 15 13 14 13 12 11 9 8 7 6 6 5 4 4 3 2
8 20 13 21 5 2 5 3 2 1 3 11 25 31 43 42 37 42 40 33 23 17 14 18 17 16 14 12 15 18 20 21 19 17 15 13 12 11 8 7 6 7 7 6 6 4 4 3 2
12 12 11 15 10 12 7 5 2 3 6 14 25 36 45 42 34 36 40 34 32 28 25 17 21 20 15 13 14 17 18 19 18 17 16 14 12 9 6 7 7 6 6 6 5 4 3 3 3
3 15 24 12 14 10 6 4 2 1 5 16 25 35 35 40 38 32 37 31 34 37 20 20 17 17 18 17 14 14 18 17 17 16 14 12 11 9 7 7 7 7 5 5 5 5 5 4 4
15 14 7 10 7 3 10 2 4 9 7 14 17 23 27 29 30 34 31 31 32 31 19 25 13 19 23 20 16 15 14 15 16 14 13 11 11 9 8 8 7 7 7 6 5 5 5 6 7
7 3 9 3 7 3 12 5 2 9 5 8 11 15 27 30 28 29 27 27 28 28 26 20 21 18 26 22 20 17 16 16 14 13 9 10 9 11 11 10 9 9 8 7 6 6 7 8 9
3 3 3 3 10 3 4 3 5 12 10 4 5 9 11 20 24 24 27 29 26 31 32 28 24 16 24 17 22 20 21 18 17 16 14 11 10 12 13 12 10 10 9 9 8 9 9 10 9
5 5 6 4 8 10 6 8 11 15 8 8 4 3 6 11 12 20 25 27 25 25 25 29 29 26 30 27 27 25 24 21 21 19 17 14 10 10 10 10 9 9 9 10 10 10 11 12 13
7 9 5 6 11 10 8 4 11 18 16 12 9 7 7 9 8 9 19 26 27 28 31 32 30 30 32 31 27 22 23 26 26 23 20 15 14 13 10 8 8 8 10 10 11 12 14 15 16
7 8 3 6 12 4 4 8 7 10 13 14 15 14 14 13 11 9 9 14 21 25 29 31 32 31 31 30 30 27 19 28 31 22 21 19 20 17 15 15 15 16 16 14 13 15 17 18 18
2 7 5 6 8 3 5 5 8 7 16 18 19 20 22 19 14 10 9 9 11 18 23 27 27 26 29 31 30 28 29 29 31 29 24 22 20 22 18 15 17 18 18 17 17 21 22 23 23
4 2 5 16 6 2 5 4 5 10 9 15 20 23 25 23 19 15 13 12 13 11 15 21 23 22 25 26 26 26 34 29 30 26 22 21 17 19 18 17 20 19 23 22 22 23 23 24 25
4 4 3 8 7 2 6 2 5 7 11 21 10 26 25 26 24 22 20 20 22 17 14 15 21 23 24 23 26 31 30 28 25 23 24 23 20 22 23 21 22 21 22 22 21 21 22 23 24
5 8 11 6 2 1 7 5 4 3 9 9 10 24 23 22 20 21 17 17 22 22 20 20 19 20 21 24 25 27 26 25 24 24 25 23 19 21 21 21 22 20 20 20 21 22 22 21 22
2 2 3 2 2 1 4 5 7 7 5 5 9 21 23 20 19 21 19 19 16 18 19 25 24 21 21 23 24 27 28 27 25 25 23 23 20 22 25 26 21 19 18 19 21 21 21 21 22
3 1 3 3 2 3 3 4 4 3 4 1 3 2 4 5 7 13 19 17 15 15 17 25 28 28 25 23 23 24 24 25 21 24 22 21 23 26 24 20 19 17 18 19 20 20 20 21 20
4 3 0 5 3 3 2 4 6 3 6 10 15 13 11 8 6 3 3 16 18 15 15 17 28 28 25 23 22 22 23 24 24 24 22 22 22 20 18 18 16 15 18 21 22 20 20 21 21
1 1 4 3 3 2 2 3 3 1 2 5 6 10 10 9 7 5 3 1 8 13 14 12 20 23 21 20 19 21 22 22 21 21 21 19 17 16 15 12 12 24 31 29 26 24 23 24 22
4 3 5 3 3 3 2 4 4 5 4 7 6 10 12 12 9 7 4 2 2 5 10 13 18 20 19 18 18 18 18 19 20 20 19 18 15 15 21 25 24 33 31 25 25 24 23 23 22
0 2 3 4 2 2 3 4 5 3 4 6 7 6 8 9 10 10 9 10 9 7 6 9 14 17 17 16 16 17 17 17 18 20 22 20 20 22 22 20 28 24 23 23 23 22 21 21 21

GFSSGP_850_spd_090.txt.gz
Wind_Speed
11 13 10 4 1 2 4 7 4 6 6 7 5 3 3 3 2 3 2 19 34 31 27 21 18 16 13 11 16 20 21 20 19 21 21 20 21 19 17 16 12 12 15 18 19 20 19 18 18
11 11 7 4 3 3 8 6 9 9 14 12 12 5 2 2 4 2 14 17 33 30 27 22 19 17 14 12 16 20 23 22 21 22 24 24 21 18 15 12 13 16 18 19 20 18 19 19 18
12 8 4 3 4 7 7 7 10 4 15 14 3 5 2 2 3 10 8 23 32 30 26 22 20 18 15 16 16 19 23 22 21 22 22 21 17 13 11 14 18 20 20 20 19 17 18 18 17
7 7 6 5 11 11 5 6 8 7 11 14 16 11 0 0 3 6 16 28 30 28 25 22 20 17 14 16 16 17 21 21 21 20 17 15 12 11 18 20 21 21 20 19 17 16 16 16 15
10 5 6 8 16 8 5 8 16 7 14 15 25 13 1 2 9 8 21 29 29 27 25 22 19 15 14 17 17 15 18 20 19 19 17 15 14 19 22 21 21 20 19 17 15 14 13 12 11
6 6 6 14 13 24 5 20 11 14 19 20 17 16 5 4 7 14 22 28 28 27 24 22 18 14 15 20 17 15 15 17 18 18 18 18 22 23 22 21 19 18 17 16 14 11 9 8 8
5 4 16 14 18 16 7 15 7 9 14 14 11 10 4 13 15 19 22 28 27 25 23 21 16 13 16 21 21 16 11 14 16 18 21 21 23 22 21 20 19 17 16 14 12 10 7 5 3
8 4 14 15 15 20 14 17 9 21 22 24 26 8 7 17 19 23 24 26 23 24 21 19 14 14 14 19 21 19 14 13 14 17 18 19 20 19 19 18 17 15 14 12 11 9 6 4 1
10 7 12 19 18 12 13 12 11 11 13 15 31 18 25 21 26 22 26 23 22 22 19 14 12 14 13 15 19 20 16 13 14 14 16 16 16 16 15 14 14 12 11 10 9 7 5 4 2
9 10 18 10 10 5 19 17 12 8 10 10 22 22 28 21 24 11 15 22 22 21 21 15 12 13 13 12 15 20 19 16 14 13 13 14 14 14 13 12 11 11 9 9 7 6 5 4 3
8 13 13 9 21 13 11 8 9 8 7 15 26 31 33 32 42 23 14 14 23 25 22 19 17 12 9 8 12 18 20 18 16 13 13 14 14 14 13 11 9 9 8 7 6 6 5 5 4
7 18 19 16 20 3 7 4 4 10 3 12 29 36 37 39 38 31 27 31 29 29 27 21 18 15 11 7 9 17 20 20 17 15 14 14 14 13 11 9 9 8 8 7 6 5 5 5 3
15 8 14 20 19 21 24 6 5 3 3 11 27 35 38 35 38 42 33 22 28 28 23 15 15 17 13 10 9 15 18 20 19 16 15 13 14 12 10 9 9 8 8 6 7 5 5 4 4
7 16 16 10 18 13 10 4 3 2 6 17 30 41 42 40 41 42 43 39 36 29 22 18 14 11 13 13 12 13 16 18 20 18 16 15 13 13 10 9 9 9 7 7 7 6 6 5 4
19 3 10 6 13 9 10 5 4 14 2 13 24 32 35 32 37 40 43 43 42 32 23 28 16 30 17 12 13 14 14 16 18 17 15 15 13 12 11 10 9 9 9 8 7 7 6 6 6
6 4 8 2 12 16 12 8 3 20 10 8 7 27 35 36 34 31 38 35 29 26 26 18 15 18 27 20 18 16 17 18 16 15 14 13 12 13 13 11 9 9 9 9 8 7 6 6 7
4 3 5 4 7 15 11 6 2 17 18 14 8 6 25 30 28 28 30 32 22 22 25 25 26 20 29 28 18 18 19 21 20 19 16 13 10 11 13 12 10 11 11 9 8 8 7 7 7
6 5 5 5 1 6 8 7 5 11 17 14 11 3 8 28 21 23 27 26 24 23 25 29 23 22 26 23 14 21 15 27 23 23 20 17 14 13 13 13 12 11 12 9 8 8 8 8 10
7 7 7 4 2 4 6 5 9 13 15 13 10 5 6 12 17 27 27 24 27 24 29 35 29 30 27 24 29 21 33 29 26 25 24 23 21 16 10 9 11 11 9 7 7 8 10 11 13
7 12 6 9 6 5 7 6 4 8 9 11 10 8 2 9 12 11 20 29 30 28 33 36 37 32 29 29 34 33 29 31 31 33 24 25 26 23 20 16 14 15 13 11 11 12 14 15 15
2 6 6 7 7 5 1 3 2 3 14 17 14 12 8 8 10 10 9 12 23 24 27 25 27 30 32 32 32 31 27 26 29 33 27 25 26 23 21 21 20 15 14 14 16 17 17 19 19
3 4 5 15 6 2 2 4 3 9 8 10 23 13 12 12 12 11 10 10 8 10 22 27 31 32 32 33 33 30 35 37 35 31 29 27 28 25 22 24 22 16 16 17 19 21 20 21 19
3 3 4 5 6 5 2 2 3 5 6 11 5 16 16 14 16 18 13 10 10 11 10 14 24 25 27 26 28 29 36 32 26 23 27 27 28 23 17 19 18 13 16 18 23 21 19 18 18
0 6 8 7 3 2 5 3 4 5 7 3 5 16 19 17 17 19 18 15 14 16 19 16 13 14 20 22 22 23 24 22 22 18 20 24 20 17 14 15 13 10 20 21 18 17 18 18 18
4 3 3 3 2 2 2 2 6 6 6 3 4 11 15 16 16 17 17 16 14 14 22 20 17 15 14 16 19 20 21 21 20 20 21 21 21 19 17 14 13 14 17 15 15 17 18 18 19
1 4 1 4 3 2 2 2 4 4 7 2 4 6 9 11 13 14 15 15 12 15 15 19 19 21 21 19 19 18 19 20 20 20 20 21 20 17 14 17 17 17 13 10 11 17 19 19 20
1 3 2 5 3 3 1 4 4 4 7 11 15 19 18 15 11 6 2 12 16 14 11 14 15 20 24 21 19 17 16 17 18 18 19 17 17 17 18 23 17 12 7 9 23 22 19 19 19
2 1 4 4 2 4 4 2 1 5 5 5 8 14 15 13 12 10 9 8 2 9 11 12 11 13 16 18 18 18 17 17 15 15 16 19 20 20 19 16 13 11 16 28 31 29 28 24 20
3 2 4 4 3 3 3 3 2 5 2 5 7 14 16 17 16 15 14 11 8 6 3 5 7 9 12 15 16 16 15 15 14 14 14 17 17 17 17 16 16 18 19 31 28 28 23 20 20
2 2 2 4 2 2 2 3 4 3 5 10 9 12 13 13 13 12 11 11 10 9 8 5 5 8 11 13 15 15 14 13 12 12 13 14 16 17 17 16 17 13 22 22 20 19 20 20 19

GFSSGP_850_spd_093.txt.gz
Wind_Speed
11 13 6 5 3 2 11 9 2 9 8 15 3 2 2 1 2 1 6 15 33 32 28 24 18 16 14 13 19 20 17 18 20 23 22 22 19 18 15 17 12 16 18 19 21 20 19 20 19
13 10 5 4 5 8 12 10 17 9 12 22 10 8 3 2 3 4 6 15 33 31 28 23 19 17 14 15 21 22 18 20 22 23 23 21 20 17 16 13 16 19 20 21 20 20 20 19 19
11 8 6 4 7 19 11 8 13 5 10 16 9 7 8 3 2 3 4 19 32 30 27 23 20 17 14 17 22 23 21 20 22 22 22 23 19 17 13 15 19 20 21 20 19 20 18 18 17
7 6 6 9 15 16 14 6 11 10 5 11 22 8 8 7 3 6 9 25 32 29 25 22 20 16 14 18 21 25 22 21 23 24 23 20 16 14 14 20 21 21 21 19 19 18 17 15 14
9 3 6 10 19 8 10 19 9 15 14 13 29 15 13 10 8 9 16 28 30 28 24 22 20 17 15 17 19 23 22 20 20 20 17 15 12 16 20 21 21 20 20 18 17 16 15 13 12
5 5 7 17 20 20 16 16 26 14 13 17 16 24 27 32 10 13 20 30 30 28 24 22 20 15 16 18 17 20 22 21 19 17 16 14 16 21 22 22 20 19 18 16 14 12 11 10 9
6 7 16 18 20 20 17 21 16 20 10 15 14 16 17 31 30 15 21 31 31 28 26 24 20 16 18 20 17 15 17 18 19 19 17 18 21 22 22 21 20 18 17 15 12 10 8 7 5
9 4 17 14 16 22 20 13 26 15 21 14 23 10 8 38 29 18 26 34 32 30 27 24 18 17 22 22 18 15 14 15 17 20 20 24 24 22 22 21 18 16 14 12 10 7 4 3 2
13 7 12 19 21 17 14 15 37 18 13 16 20 12 17 34 33 22 25 36 31 30 28 23 17 17 22 24 21 16 13 14 16 18 20 22 21 20 19 17 16 14 13 11 9 7 5 3 1
12 10 18 12 17 11 11 15 18 12 21 14 19 8 20 35 29 18 19 38 34 29 28 22 16 18 21 25 23 20 13 15 16 17 18 18 18 18 17 17 15 14 12 11 9 7 6 4 4
11 14 14 18 27 16 10 9 17 16 15 18 24 27 34 29 27 14 13 11 25 26 25 23 20 19 19 20 23 23 19 16 16 16 16 17 18 18 17 16 14 13 11 10 9 8 7 6 5
12 19 22 19 22 16 13 6 10 22 31 18 26 39 36 28 25 24 13 11 8 25 26 25 22 19 18 16 17 22 22 19 16 16 15 15 15 15 15 14 12 12 11 10 9 8 8 7 5
15 16 18 28 27 16 16 11 6 17 35 34 23 36 40 32 22 18 23 28 18 17 25 25 23 21 17 14 14 18 21 20 16 15 15 15 15 14 13 12 10 11 10 9 9 9 8 7 6
3 13 22 18 21 17 9 16 11 9 21 32 24 37 44 35 17 20 36 38 30 24 23 20 18 16 16 13 13 15 16 17 18 17 15 13 14 14 12 10 10 9 9 9 9 9 8 7 6
13 10 17 18 13 6 6 10 9 14 17 29 31 31 40 30 26 26 36 40 29 31 18 20 19 15 11 8 9 13 17 17 17 17 17 16 15 13 12 11 9 10 10 9 9 8 8 7 6
6 11 6 10 8 4 8 12 6 6 3 18 22 30 33 40 45 42 42 37 36 31 31 25 19 15 17 14 10 11 13 16 17 17 17 16 16 13 13 12 11 11 11 10 9 8 8 7 7
7 2 7 4 13 7 3 3 9 4 8 8 5 15 30 31 34 37 46 39 34 37 30 16 17 24 15 20 20 15 12 13 15 18 19 17 15 14 14 13 12 12 12 11 10 9 8 7 7
7 5 3 5 7 9 8 7 21 6 9 9 11 8 23 34 30 40 47 42 39 37 22 22 13 13 14 17 23 20 15 18 15 18 20 20 19 16 13 12 14 14 14 12 10 8 7 7 9
4 10 9 7 7 7 11 6 17 7 6 8 12 12 12 19 20 17 27 34 36 33 22 23 25 20 10 33 24 19 14 23 19 22 23 24 23 21 18 15 16 17 14 11 9 8 8 9 10
5 9 8 10 5 8 5 8 17 5 1 2 6 12 11 16 18 12 14 25 28 29 33 23 24 27 25 24 30 24 22 19 24 22 23 22 23 24 26 18 17 17 15 14 9 8 9 12 13
3 6 6 7 6 7 3 3 6 2 3 3 2 4 6 12 19 27 32 33 31 28 26 27 33 31 31 29 25 29 26 15 25 29 27 29 24 26 27 23 22 22 21 14 13 12 14 14 14
4 1 7 14 7 3 2 5 4 6 5 1 5 5 2 6 12 14 18 28 26 26 24 28 36 39 33 30 27 28 28 27 27 27 23 23 30 27 24 21 23 24 16 12 9 9 15 18 18
2 1 9 9 3 6 2 1 1 2 7 3 5 9 6 4 8 12 14 13 12 12 13 18 21 28 36 31 28 27 27 26 29 30 31 25 26 30 37 23 21 21 17 18 18 11 12 19 17
1 5 7 3 3 3 2 2 3 1 3 3 6 11 8 9 7 9 10 8 6 8 10 10 10 13 20 22 23 25 26 25 30 34 25 23 25 18 16 14 17 16 17 16 11 7 17 15 16
7 3 3 2 3 2 3 3 3 8 5 1 11 13 11 15 16 11 10 11 9 10 11 14 14 11 12 15 19 20 21 20 19 21 21 22 23 21 17 14 13 13 14 14 15 15 12 9 14
3 2 2 4 3 4 2 4 5 6 8 9 9 1 5 12 6 7 10 13 13 13 12 11 16 16 15 14 13 15 16 15 15 17 17 18 18 17 18 18 17 19 20 15 13 8 9 11 13
3 3 1 5 3 4 2 1 4 10 15 15 16 17 18 18 15 11 4 7 14 13 12 11 13 15 14 16 17 14 14 14 14 14 15 16 16 16 16 17 18 19 16 14 14 10 13 16 17
1 2 2 3 3 4 2 2 2 6 6 5 8 13 17 19 19 16 15 12 5 6 7 6 6 8 11 11 13 13 12 12 12 12 13 14 16 17 17 19 19 18 18 17 13 16 16 18 19
3 2 4 4 3 3 3 1 2 3 0 4 5 16 20 21 19 19 18 16 13 10 5 1 2 4 4 7 9 10 10 10 10 11 11 12 16 20 22 22 21 21 20 16 15 16 12 21 20
0 2 3 3 2 4 2 2 4 4 4 8 10 14 16 16 15 13 13 12 11 11 9 7 3 2 5 6 8 10 10 11 11 10 10 11 14 18 20 22 22 20 17 16 14 12 15 18 17

GFSSGP_850_spd_096.txt.gz
Wind_Speed
4 6 5 6 8 8 22 22 14 18 16 25 7 5 7 9 6 3 6 9 20 24 26 26 20 19 17 15 17 18 17 18 23 22 22 22 20 18 16 16 15 18 20 20 19 17 20 19 18
5 5 6 8 11 19 17 19 20 16 17 14 16 6 5 7 4 6 2 10 22 24 25 23 20 18 16 17 20 19 19 20 24 22 23 22 20 18 18 15 18 21 21 20 20 20 19 18 18
6 6 10 6 15 23 20 20 18 21 16 13 16 11 3 8 7 4 5 10 24 23 24 23 22 18 17 20 23 19 22 23 24 24 24 23 20 18 18 18 21 21 20 20 20 20 18 17 17
6 6 9 13 26 23 26 19 19 23 13 17 18 7 15 20 10 7 7 14 25 25 23 23 23 19 18 23 25 21 22 24 24 24 23 22 19 17 18 22 22 22 20 19 20 18 16 15 14
8 6 12 20 28 26 20 25 18 18 22 16 19 14 17 30 18 12 11 21 25 24 23 25 22 19 18 23 27 25 23 25 25 25 25 21 19 17 23 23 23 22 20 20 18 16 15 13 12
8 9 13 22 25 25 24 20 30 22 16 21 21 18 18 34 31 12 14 23 25 25 25 24 23 20 19 21 28 26 25 28 28 25 21 18 18 21 24 24 23 22 20 19 17 15 12 11 9
14 11 21 25 23 27 23 30 28 22 25 20 21 21 10 31 37 44 21 24 26 25 24 26 26 21 20 21 26 25 25 25 24 22 19 17 21 25 25 23 22 21 19 17 15 12 10 8 7
12 9 23 23 21 26 24 28 37 28 27 22 26 18 15 32 25 32 41 25 28 28 25 29 25 23 23 23 21 24 24 23 22 20 18 21 25 25 24 23 21 20 17 15 12 10 8 6 4
15 9 18 24 25 19 26 23 31 26 25 22 22 28 13 20 29 28 29 33 27 26 25 27 24 22 22 22 22 20 21 22 23 22 22 24 23 23 22 21 19 17 15 13 11 9 7 5 4
17 14 25 21 19 20 22 24 29 27 30 27 22 20 16 18 31 26 16 31 35 32 29 26 23 24 25 22 22 20 20 20 19 21 23 19 20 19 19 20 18 16 15 13 10 8 6 4 3
13 21 20 22 27 24 19 24 24 14 22 32 22 22 19 23 30 26 26 8 38 32 31 28 22 24 26 24 24 22 17 17 18 20 20 17 20 22 20 19 17 15 14 12 10 9 8 7 6
18 24 27 29 27 21 19 24 29 21 28 28 27 15 20 23 30 23 12 5 12 24 32 28 25 24 25 23 23 21 19 18 17 19 21 22 20 20 18 15 15 14 14 12 11 10 9 8 7
20 20 23 29 29 26 21 24 23 22 21 24 31 24 21 23 28 24 13 16 27 17 28 28 26 26 26 27 23 21 20 19 19 19 19 19 19 18 17 16 14 14 13 12 12 10 10 9 8
10 19 25 25 25 24 25 23 20 20 7 15 24 27 24 30 26 25 21 20 29 17 19 30 31 27 24 24 26 27 22 20 18 18 18 17 16 17 16 15 12 12 13 13 11 11 10 8 7
12 17 15 20 26 19 23 22 22 20 14 15 22 32 27 34 27 22 15 26 37 21 18 23 24 24 21 19 20 25 25 23 20 18 16 15 15 14 14 12 11 11 11 11 11 11 11 10 9
3 9 11 12 20 24 16 19 21 4 7 16 18 35 29 38 36 23 13 23 34 33 21 28 23 24 22 18 16 18 22 22 22 19 19 17 15 14 13 13 11 11 12 12 12 11 11 9 8
6 8 12 11 20 10 17 10 7 6 11 19 19 26 26 36 37 22 27 34 35 32 30 32 25 22 22 19 17 14 15 18 18 19 20 19 17 17 15 13 13 13 13 14 13 12 10 8 7
7 11 4 6 13 15 12 12 6 10 16 22 13 21 27 37 45 25 32 34 34 32 22 37 24 26 25 24 23 20 15 13 14 16 16 18 18 18 17 15 16 15 16 16 14 12 11 8 8
12 13 1 4 10 13 13 9 10 13 12 23 17 13 23 23 25 25 26 34 33 36 36 28 21 23 22 24 24 21 20 16 18 14 13 17 19 18 18 18 17 18 19 16 14 13 11 9 8
15 12 6 3 5 5 9 10 8 9 12 16 8 11 19 23 17 15 29 36 39 41 36 26 24 19 15 13 20 18 20 18 14 16 12 15 20 21 23 22 21 20 20 19 16 14 10 8 8
12 12 8 4 6 3 5 5 6 11 14 27 8 11 15 25 23 16 13 25 30 29 33 24 29 26 20 16 19 18 21 10 12 16 11 11 16 17 18 21 30 24 23 22 22 18 15 10 7
8 7 12 9 5 3 3 1 4 8 13 16 16 13 16 16 24 13 10 17 17 17 25 30 21 24 23 27 26 21 22 19 11 10 11 13 14 17 20 21 20 19 28 24 20 13 8 9 7
1 7 10 8 5 4 9 2 8 5 12 12 10 12 12 15 16 22 26 29 28 23 22 24 25 25 25 28 28 26 20 15 21 19 15 23 24 22 18 22 21 23 26 22 16 13 11 9 6
8 10 9 5 2 2 8 3 7 9 8 2 7 6 15 13 13 15 11 16 21 18 20 21 23 26 28 33 30 33 30 26 30 32 26 27 24 21 21 12 4 20 16 6 13 24 31 27 27
2 11 4 3 3 3 3 1 7 11 5 3 4 7 12 12 12 9 9 7 8 11 12 13 14 14 16 23 25 31 27 25 26 27 28 31 33 28 23 19 19 19 20 22 22 22 18 21 24
1 3 3 4 4 4 2 6 7 9 6 7 12 7 8 5 6 6 3 9 10 9 8 7 11 14 13 12 13 15 16 21 22 21 22 26 23 23 23 26 25 20 21 20 22 21 19 15 14
2 2 3 7 6 6 2 5 12 9 11 15 18 15 11 11 8 5 5 8 7 6 5 4 5 12 15 13 14 12 14 16 18 19 19 18 18 18 22 22 23 23 23 22 23 22 19 15 14
3 4 2 1 4 5 5 8 6 10 12 14 14 16 14 16 14 15 14 9 6 3 2 1 2 6 10 11 12 12 12 12 13 14 14 14 16 18 22 23 24 24 25 25 25 24 17 16 15
2 2 2 3 3 4 6 5 6 5 6 11 14 16 15 14 16 19 20 19 15 11 7 4 3 1 2 4 8 10 12 12 12 13 12 12 14 18 22 23 24 25 25 25 25 21 18 17 16
3 5 4 2 4 4 5 5 5 3 7 11 13 14 12 17 19 18 17 15 14 12 9 8 7 4 2 3 6 8 11 11 12 11 11 12 14 17 21 24 25 26 26 25 23 19 17 16 15

GFSSGP_850_spd_099.txt.gz
Wind_Speed
6 6 6 9 8 9 22 24 23 19 22 24 16 7 10 10 4 3 2 6 9 21 23 25 20 20 18 15 14 16 18 22 23 21 20 18 18 18 16 17 19 17 21 17 16 18 18 18 18
8 6 9 13 12 17 18 22 25 22 18 15 13 11 9 9 1 3 3 0 14 21 23 24 22 19 18 16 16 18 19 22 23 22 21 21 19 18 19 16 19 20 21 19 19 18 17 17 17
7 5 11 6 17 22 20 20 20 22 22 18 15 20 8 8 4 3 2 1 23 20 21 22 21 19 17 17 18 19 20 23 24 23 23 22 20 18 18 19 21 21 20 20 20 18 17 16 16
6 8 11 14 23 24 28 23 17 19 23 29 19 14 7 10 7 5 3 5 22 21 21 23 21 20 18 19 20 19 21 25 25 25 24 23 19 19 18 22 22 21 20 20 20 18 16 15 15
9 11 13 19 28 26 20 23 31 19 24 31 24 25 17 14 16 4 4 3 19 19 23 23 21 19 18 21 20 20 22 25 25 25 25 23 19 20 22 23 23 21 19 21 18 16 14 13 12
11 10 16 20 27 24 23 31 27 28 27 28 29 27 29 17 17 17 10 8 21 23 23 22 23 19 19 23 22 20 24 26 26 26 25 23 21 20 24 23 22 20 20 19 17 14 12 11 10
15 13 22 26 25 24 22 27 26 25 30 24 30 23 30 18 19 26 20 19 23 20 22 21 24 21 20 23 25 20 24 26 27 27 24 21 20 22 24 23 21 19 20 18 16 13 11 9 8
15 12 28 25 22 28 25 27 30 32 28 34 29 21 20 19 25 28 32 38 19 14 20 22 22 23 20 22 27 25 25 26 29 26 22 21 22 24 24 22 20 18 18 17 14 11 9 7 5
15 13 20 25 26 24 25 25 31 31 33 35 32 31 23 14 16 31 32 27 35 43 33 22 25 22 20 18 27 27 25 26 22 21 18 19 24 25 23 21 21 19 17 15 13 10 7 5 4
15 16 26 22 21 21 26 29 30 30 30 33 33 33 24 11 12 25 32 26 44 35 43 37 28 25 23 20 24 27 28 24 21 20 19 19 19 19 16 21 20 18 16 14 11 8 6 4 1
21 22 22 24 27 30 29 27 31 29 26 30 32 30 18 17 22 26 25 27 19 30 47 52 32 31 31 24 22 20 23 21 19 19 19 16 17 20 20 21 20 17 15 12 10 8 6 3 6
22 25 26 28 32 30 22 31 27 31 28 29 34 32 19 26 22 24 29 23 18 19 30 35 38 35 32 30 26 21 20 20 20 17 20 18 17 18 14 16 17 14 13 7 7 5 6 7 7
21 20 26 28 27 28 30 26 28 32 31 28 25 25 13 14 27 22 24 20 15 8 19 24 32 30 27 29 28 25 21 20 20 22 20 18 16 16 15 13 14 12 11 11 10 9 8 6 6
16 18 20 27 27 25 25 28 32 29 33 32 19 26 22 23 19 23 23 23 20 16 26 8 28 28 26 25 21 25 25 19 18 19 19 17 15 15 15 13 12 12 12 11 10 8 8 7 7
19 18 18 22 23 24 26 26 27 34 32 25 22 25 24 26 14 19 28 27 21 18 25 23 8 24 25 25 20 19 19 23 21 17 17 16 16 16 16 13 13 12 12 10 10 8 9 8 8
13 9 13 18 22 25 24 25 26 33 31 30 20 22 21 27 15 21 28 22 29 34 27 22 17 22 19 18 26 23 23 16 19 18 17 17 16 16 16 15 13 11 11 11 9 9 9 8 7
13 13 13 17 21 19 22 18 24 32 18 14 18 21 20 25 17 25 24 19 30 31 26 32 32 26 22 17 17 17 23 26 23 19 19 18 18 18 17 16 14 13 12 11 11 10 9 8 8
8 9 15 13 8 21 19 19 11 15 11 7 8 15 19 25 21 26 29 20 23 30 27 40 36 30 27 18 19 17 17 18 20 21 22 20 20 19 20 16 14 12 12 11 11 11 10 9 9
15 14 14 12 13 19 19 19 20 15 13 12 5 11 20 19 25 30 33 23 26 29 26 42 34 32 27 17 19 19 18 19 18 19 17 18 19 18 17 17 13 14 13 11 12 11 12 12 12
13 14 15 4 3 10 14 15 14 11 15 11 5 8 12 17 18 12 34 28 28 32 33 39 31 30 20 18 20 18 17 15 15 18 18 17 16 16 17 17 16 15 15 15 14 13 14 15 11
13 14 14 5 4 8 4 8 9 6 12 13 10 8 12 20 21 12 10 25 30 32 33 36 29 23 17 14 17 16 18 17 16 14 16 14 15 17 17 16 17 20 21 19 18 18 21 15 13
12 15 5 4 5 2 8 2 6 11 9 8 6 7 13 20 17 12 7 21 30 34 38 28 23 22 23 21 17 18 13 14 12 15 16 15 14 12 16 18 17 17 17 22 24 23 20 17 11
6 3 4 12 11 4 9 4 4 7 3 4 9 17 17 25 21 14 8 6 8 11 28 17 22 23 23 23 20 18 15 13 16 17 16 16 16 11 12 12 13 18 20 16 18 25 30 13 14
13 9 10 10 11 1 5 2 3 6 6 7 18 21 17 22 23 14 20 17 13 14 16 19 21 21 22 25 23 23 24 18 19 22 20 18 19 18 20 20 14 16 23 19 7 2 21 30 24
10 9 3 3 2 3 3 1 6 9 3 5 17 19 20 22 19 17 12 16 18 17 15 17 22 24 26 28 29 27 29 30 30 25 25 27 30 26 23 24 25 21 14 19 14 21 25 28 25
2 2 4 2 1 1 3 6 4 10 10 18 18 17 20 21 19 14 11 7 9 10 13 13 13 14 14 12 14 21 27 25 26 29 25 24 26 22 30 30 28 23 22 20 19 24 23 21 19
1 4 7 3 6 4 4 3 12 16 15 17 22 19 19 16 18 16 14 10 9 11 12 11 10 12 13 12 11 12 13 17 20 22 23 25 21 21 21 24 29 32 31 26 26 27 24 22 20
5 8 4 3 1 5 5 8 5 11 13 12 13 13 21 18 15 11 8 6 7 7 8 6 5 5 8 11 12 12 14 13 16 17 19 19 19 18 19 20 28 28 27 26 27 27 25 24 22
1 3 4 3 3 2 4 4 6 11 12 15 15 17 16 17 15 16 15 15 12 12 11 9 7 5 3 4 5 8 11 13 14 15 16 16 18 17 20 20 21 26 29 30 29 27 26 26 23
4 7 6 1 4 7 10 6 6 11 13 17 17 18 17 16 15 14 15 14 15 14 12 10 7 5 3 1 3 6 8 10 11 13 14 15 16 18 19 20 25 29 32 30 29 28 28 27 24

GFSSGP_850_spd_102.txt.gz
Wind_Speed
8 1 4 8 4 5 12 12 14 18 14 30 25 9 2 8 4 4 2 9 6 13 12 21 20 18 16 15 14 14 17 19 19 18 17 15 16 16 17 17 17 20 14 16 16 18 19 19 19
4 2 6 8 6 11 12 14 18 16 25 29 13 8 4 1 8 8 8 7 12 16 11 21 20 19 17 15 13 14 17 19 21 19 17 17 18 18 18 18 18 20 14 17 18 19 18 17 17
5 3 6 4 9 15 10 12 12 18 24 28 9 7 7 3 5 6 1 6 13 16 13 20 19 17 17 15 14 16 17 20 21 20 20 19 19 19 19 18 19 21 17 20 18 18 17 17 16
3 5 9 7 15 18 22 16 21 20 22 25 21 5 3 6 5 6 3 9 17 18 16 17 19 17 15 14 15 17 19 21 22 22 22 22 20 20 18 20 23 21 20 20 18 18 17 16 15
7 7 8 12 17 18 14 21 31 21 25 21 25 10 9 15 8 5 3 9 16 20 18 17 17 17 15 15 15 17 19 23 23 23 23 22 20 20 20 23 22 21 20 19 18 17 15 14 14
7 5 8 14 18 17 17 29 28 23 24 28 16 18 17 18 20 18 14 12 15 19 20 19 17 17 15 15 16 18 20 26 25 25 24 23 19 22 23 24 22 19 22 19 17 15 13 12 11
5 8 13 16 16 17 16 27 18 19 25 25 26 11 24 18 22 21 19 14 21 20 16 18 21 18 15 15 17 17 22 26 26 25 26 23 20 22 23 23 21 18 21 18 16 13 11 10 9
9 5 14 16 14 21 19 27 28 22 21 35 32 12 13 11 11 18 23 23 23 25 27 26 20 20 17 17 19 16 24 26 25 25 25 22 21 23 24 23 20 17 19 17 15 12 10 8 7
10 6 12 15 17 18 23 20 31 31 31 28 33 29 19 8 13 19 24 27 27 28 25 20 14 16 14 19 23 18 23 26 27 28 24 23 23 25 24 24 21 18 18 17 14 11 8 5 4
9 9 13 12 15 16 20 21 23 26 29 27 27 33 24 15 11 18 23 26 30 32 35 32 32 22 7 17 27 25 26 28 30 29 23 24 25 27 25 24 22 18 17 17 13 9 6 4 4
17 18 14 20 27 26 20 25 31 24 20 26 23 25 33 20 15 13 26 31 30 26 27 50 51 31 29 28 30 34 28 30 32 28 22 19 25 25 23 25 23 21 18 15 11 8 6 4 2
16 23 23 22 23 23 19 28 26 30 27 30 28 26 25 27 25 29 21 25 28 32 24 22 45 47 39 26 36 40 34 27 21 21 24 20 23 24 24 22 22 17 15 13 10 8 7 5 8
15 16 24 24 24 27 26 24 24 31 29 31 33 27 22 26 2 14 24 24 26 25 23 19 28 46 29 31 38 37 34 26 26 20 26 22 23 24 19 19 19 17 13 10 7 6 7 8 5
12 21 21 22 27 27 21 22 25 31 31 32 34 31 25 22 20 9 22 26 25 26 18 13 16 33 28 30 35 26 28 26 21 22 24 26 22 24 18 16 17 15 15 16 13 10 8 5 6
18 17 19 22 19 20 22 23 21 27 33 32 32 31 28 25 22 21 21 25 29 27 19 19 15 16 11 30 30 30 29 28 31 31 30 27 25 27 26 23 21 19 16 14 12 10 7 7 5
7 13 13 9 14 21 18 25 18 26 29 33 31 29 23 28 19 21 20 16 21 23 22 27 25 26 25 19 29 33 28 30 28 34 31 26 24 25 24 21 18 15 13 12 11 12 12 13 12
9 7 12 14 14 13 17 23 18 28 27 28 32 21 18 30 26 22 22 26 23 18 23 21 27 24 27 26 18 24 29 29 29 24 26 26 24 23 21 19 16 14 12 12 11 10 12 10 10
9 8 13 16 4 12 15 20 17 18 23 27 17 17 21 29 27 22 18 27 19 24 26 23 16 18 32 24 21 20 20 22 25 24 23 24 23 22 20 19 15 13 13 12 11 11 12 12 8
18 18 18 18 11 5 16 14 16 5 22 21 21 20 16 22 22 19 19 23 26 23 25 27 24 36 35 28 25 22 19 26 23 22 21 21 19 19 21 19 17 14 12 10 10 9 12 11 12
17 18 19 15 9 8 8 14 12 15 23 20 18 13 13 12 16 17 16 22 23 21 24 26 37 37 34 29 24 20 21 20 19 21 20 20 20 18 16 18 16 15 15 14 12 13 13 15 15
11 16 15 8 10 7 6 12 16 6 7 9 12 14 12 9 15 15 9 24 24 24 32 26 31 29 33 26 12 16 15 17 19 18 20 19 18 18 18 18 17 17 16 14 17 17 19 19 19
11 6 14 5 2 4 12 2 3 6 12 12 15 16 12 18 18 11 4 11 33 25 30 30 33 22 31 16 14 14 15 15 15 18 20 20 17 16 16 19 16 17 16 16 18 20 23 22 18
7 11 14 9 8 3 7 3 1 5 5 9 7 15 13 20 15 11 5 8 24 30 26 24 25 21 21 17 13 14 12 11 12 13 13 15 13 14 15 17 16 17 16 17 20 20 25 26 21
10 9 10 9 7 3 3 2 2 4 4 5 9 16 22 24 16 10 9 12 18 29 26 17 21 18 16 13 11 14 13 12 11 13 16 14 16 17 17 18 17 14 12 11 15 17 20 21 12
6 5 3 3 1 2 1 1 1 7 5 2 11 17 24 22 16 14 22 19 20 25 20 20 17 13 13 15 14 18 18 19 20 20 20 18 25 23 22 21 19 21 18 13 6 5 13 20 22
3 3 3 4 3 2 3 6 6 9 14 21 23 23 27 26 16 15 14 14 20 23 18 13 12 10 10 6 14 22 26 24 24 27 24 20 23 28 26 25 28 24 19 17 21 24 24 26 24
2 4 5 3 5 1 4 1 11 11 9 19 20 21 24 21 17 16 16 14 12 11 10 10 10 9 7 8 8 9 11 15 17 14 21 29 33 23 21 21 24 29 30 25 26 25 23 24 21
6 8 4 1 5 4 3 5 4 8 10 15 14 18 17 19 18 15 17 14 12 9 7 5 5 5 6 8 8 7 8 7 8 14 16 16 17 21 24 25 25 25 30 35 32 30 28 27 27
2 4 3 2 3 2 3 3 5 10 10 14 12 19 20 22 22 21 21 18 14 13 11 9 7 5 5 4 5 6 8 8 10 11 12 15 17 20 21 21 20 19 19 26 29 31 28 28 25
4 6 5 1 5 6 5 4 7 7 9 17 17 21 24 23 23 21 19 18 17 15 14 13 12 9 7 5 4 3 4 6 8 10 13 15 15 17 17 19 19 19 19 27 32 31 31 28 28

GFSSGP_850_spd_105.txt.gz
Wind_Speed
8 9 5 3 2 2 4 7 9 12 5 9 23 12 4 2 3 4 13 12 10 13 15 20 21 21 19 17 17 16 17 17 16 16 14 13 16 15 16 19 19 16 16 15 16 18 20 20 22
6 8 1 2 3 2 6 7 11 10 19 27 30 18 3 3 8 14 14 10 10 11 14 16 21 20 19 17 16 16 17 18 18 17 16 14 17 16 17 19 19 14 14 15 17 19 19 19 20
3 5 0 3 4 8 5 5 14 18 23 22 11 6 2 5 14 14 9 9 11 12 13 14 21 20 18 17 15 15 18 19 20 19 18 17 18 18 19 19 19 15 15 17 18 18 18 18 17
4 1 3 1 7 9 12 11 20 10 29 27 14 2 4 9 9 11 10 7 4 13 14 12 19 18 18 16 14 14 17 19 21 21 20 19 19 20 20 20 20 16 18 18 18 18 18 17 17
5 2 2 4 9 8 7 16 23 14 14 23 22 5 6 9 9 9 8 6 6 12 13 15 18 16 16 14 13 15 17 19 21 22 21 21 21 21 19 21 22 18 20 19 18 17 17 16 16
2 3 2 8 10 8 8 26 21 15 20 27 18 6 7 16 16 13 11 8 7 10 14 15 14 15 14 12 12 15 18 20 22 23 23 23 21 21 21 24 22 22 21 19 18 16 15 15 14
2 1 4 5 6 8 8 22 13 15 13 19 21 7 17 20 19 16 16 12 11 16 20 20 18 14 12 11 12 15 18 21 24 24 24 24 22 23 24 23 23 25 22 19 17 15 14 12 12
2 1 3 4 7 10 10 17 14 18 19 25 19 4 10 11 18 20 16 14 16 17 21 22 21 19 17 12 13 14 18 22 25 25 25 26 24 25 25 24 22 24 23 20 17 14 12 11 10
3 2 2 4 7 8 16 12 31 20 16 27 24 24 23 12 15 18 19 20 20 21 23 23 26 24 18 14 13 14 17 22 23 24 26 27 24 26 26 25 23 23 23 19 16 13 11 9 8
5 4 6 5 4 6 17 16 20 19 24 20 32 24 10 8 14 18 20 21 21 23 24 27 29 27 21 14 13 11 17 24 27 27 30 28 24 27 26 26 22 21 23 19 15 12 10 8 7
5 4 3 12 22 23 19 20 21 15 16 15 21 31 25 20 15 19 18 18 20 22 25 26 28 18 20 8 3 11 19 28 29 31 33 29 27 29 29 28 25 22 22 21 16 12 9 8 8
6 11 14 15 20 21 17 22 20 23 21 28 27 31 27 20 12 19 22 21 24 27 24 29 26 28 41 43 35 27 28 32 36 34 32 26 26 32 31 29 27 26 23 19 14 11 10 8 7
9 7 14 20 22 22 27 23 23 30 36 33 34 31 30 23 18 12 13 19 20 21 22 24 29 24 25 29 36 26 33 37 39 36 32 25 28 33 30 30 29 24 20 17 15 13 11 9 7
6 16 20 22 22 23 20 22 23 21 27 35 35 34 29 27 24 18 14 16 20 18 19 24 23 26 25 27 42 27 38 39 37 33 34 27 27 29 28 25 23 21 20 18 16 14 10 6 9
13 9 10 12 16 10 21 18 25 26 27 32 33 34 26 26 27 22 15 20 21 21 20 22 21 25 20 24 44 29 40 36 37 25 25 28 25 25 25 25 26 23 21 17 14 12 13 11 8
4 2 4 3 3 9 8 18 18 18 24 27 33 34 31 28 26 24 14 20 21 21 23 22 19 22 23 23 34 31 38 36 31 28 32 29 28 25 27 26 25 23 20 19 17 15 14 13 12
3 2 4 9 3 7 7 13 11 24 23 24 27 29 33 27 21 25 20 24 22 17 20 24 19 28 25 18 28 31 31 34 33 33 31 35 31 29 29 25 23 23 21 20 17 16 15 15 15
1 4 7 11 5 12 19 21 17 18 17 21 16 24 26 27 25 24 21 22 25 26 23 18 23 27 27 21 22 28 27 38 35 36 37 34 30 29 29 27 24 22 21 19 18 17 16 13 12
6 7 14 17 16 12 12 18 16 12 12 12 17 21 25 24 24 23 20 23 21 22 20 21 23 26 26 30 27 37 33 31 32 32 39 35 29 28 27 26 23 22 21 18 16 16 16 15 15
12 15 18 18 9 4 11 13 11 8 8 11 17 21 28 19 17 17 20 24 26 25 23 21 29 24 29 29 33 35 24 23 29 29 29 29 27 27 26 26 23 21 19 18 17 17 16 16 18
13 11 10 12 7 11 12 9 6 4 10 17 19 19 23 16 13 17 21 20 23 24 21 19 27 30 32 28 26 20 18 17 24 22 23 27 26 23 22 24 24 23 21 19 19 19 19 19 20
12 8 9 8 2 3 3 5 2 3 6 5 16 16 11 15 13 19 16 16 23 22 17 19 22 33 30 24 24 25 27 28 24 25 29 26 25 25 24 22 23 22 21 18 18 18 19 20 23
7 9 11 13 8 2 6 5 0 7 6 7 8 15 14 10 18 11 8 4 7 24 28 25 21 30 23 18 20 21 18 19 21 18 17 19 21 23 22 23 21 19 18 20 21 21 20 26 26
7 8 12 6 3 5 0 3 1 4 6 6 3 12 14 17 16 9 5 5 5 19 24 29 27 20 23 16 16 15 14 14 12 9 13 21 21 18 19 22 18 23 22 23 17 17 18 27 28
6 2 3 3 4 2 2 0 2 12 14 9 7 16 16 18 15 15 11 9 9 27 24 29 21 15 20 13 8 11 11 8 8 10 14 17 19 19 17 15 18 18 19 20 20 20 23 22 18
5 2 2 4 4 2 4 5 6 17 9 18 24 18 27 21 22 22 13 21 30 30 22 23 19 9 11 11 15 12 12 13 15 15 21 24 23 26 25 27 27 20 23 24 27 25 25 22 20
2 4 4 3 4 2 2 0 7 18 14 21 17 25 22 21 18 14 13 22 23 23 20 20 18 12 15 8 6 14 16 16 19 18 21 22 28 21 15 16 20 22 25 26 26 27 29 23 21
7 5 1 2 3 4 4 4 5 11 12 14 13 17 20 21 20 21 20 20 17 13 9 8 8 8 8 6 5 7 8 8 9 11 12 16 20 28 29 26 21 26 28 28 33 31 29 27 25
2 4 4 2 3 1 2 3 5 10 11 13 11 18 21 24 23 25 24 22 21 20 18 15 13 10 8 7 6 7 5 6 8 9 11 11 13 17 18 23 26 26 26 26 33 35 35 32 31
3 5 2 3 3 3 3 4 3 8 7 17 15 20 24 24 23 24 22 22 22 21 20 19 16 14 12 9 6 4 3 1 2 4 7 9 11 12 14 17 19 21 22 24 23 25 28 33 33

GFSSGP_850_spd_108.txt.gz
Wind_Speed
10 8 6 6 3 3 4 6 4 5 2 6 13 7 10 15 5 4 16 11 10 13 20 22 23 22 20 19 18 18 17 17 17 16 14 14 15 14 16 18 17 19 15 17 14 16 19 20 20
12 10 7 3 4 2 5 4 5 7 6 15 17 15 5 4 1 10 15 14 11 15 16 20 22 21 20 18 18 17 17 17 17 17 15 14 17 16 19 18 17 16 13 15 16 18 22 20 19
12 13 8 4 3 6 4 4 9 9 14 15 9 13 9 6 9 19 12 14 14 15 14 14 22 21 19 17 16 16 17 17 18 17 16 16 17 18 20 19 15 14 14 16 18 19 20 19 17
8 5 4 3 7 7 5 5 4 8 13 6 13 7 8 7 14 14 14 13 14 14 15 13 21 20 18 16 15 16 17 18 18 18 18 17 19 19 20 21 16 15 16 18 18 18 17 17 16
7 3 2 3 6 5 3 8 8 9 11 10 19 7 16 8 10 14 15 13 13 15 16 15 19 16 17 16 15 14 17 19 20 20 20 19 19 20 21 20 18 16 18 18 18 18 17 17 15
5 3 1 4 5 4 6 15 4 5 14 12 9 7 8 15 11 13 16 15 14 15 17 16 16 16 16 15 14 14 17 19 20 22 21 20 21 22 21 20 20 18 19 19 19 18 17 16 14
4 3 4 4 3 4 5 6 3 1 5 7 14 7 7 12 15 16 16 13 15 15 17 19 19 17 16 14 14 14 17 19 20 22 23 22 21 22 21 21 21 21 21 20 18 17 16 15 13
3 3 2 5 5 7 5 6 8 12 8 11 9 2 8 19 16 17 18 16 15 14 15 17 20 20 19 17 14 14 16 19 21 22 23 23 22 22 23 23 22 23 23 20 18 16 14 13 12
4 2 4 4 6 3 8 8 7 9 12 14 6 11 9 12 7 15 17 19 19 17 15 18 20 22 22 19 18 16 16 18 21 23 24 23 22 24 26 24 27 26 24 21 18 15 14 12 12
3 3 7 5 3 1 9 8 17 9 15 15 15 13 13 13 6 14 19 20 21 22 22 20 22 23 25 23 20 16 14 17 21 24 25 25 26 27 28 25 23 27 25 21 18 15 13 12 11
3 4 4 4 10 14 12 17 14 8 11 11 16 23 22 18 14 11 20 19 22 22 22 21 22 22 22 24 21 16 13 17 22 25 27 30 30 26 26 25 24 24 25 22 19 16 13 12 11
3 6 11 6 16 16 12 18 20 22 23 29 33 28 25 20 15 13 12 21 23 23 24 24 22 23 20 24 17 13 8 14 24 29 31 33 33 29 29 30 28 27 28 25 20 16 13 13 12
4 4 13 21 18 19 20 18 19 25 30 32 34 38 30 26 20 16 15 13 19 21 21 22 23 25 26 31 28 29 27 24 27 35 34 35 34 31 31 32 29 28 27 25 21 17 15 13 11
4 10 16 18 24 20 19 22 17 23 20 26 30 33 33 23 22 19 16 16 13 19 20 20 24 26 28 28 26 30 31 31 33 35 37 38 35 31 29 35 33 31 27 24 21 18 15 13 11
10 8 11 15 11 7 10 10 13 30 26 31 34 34 35 31 21 22 19 19 16 17 21 20 22 23 24 26 27 30 31 34 31 31 43 40 35 30 34 36 36 31 25 24 21 19 17 15 12
3 1 4 4 3 8 9 9 9 18 21 27 33 34 36 33 26 25 21 20 19 18 21 21 22 24 24 23 25 27 39 38 31 42 40 40 32 27 31 32 32 27 26 25 22 20 18 15 15
2 3 4 7 7 5 6 11 5 15 17 24 27 30 32 31 27 24 22 21 19 18 22 17 22 25 25 23 20 25 30 37 40 36 33 32 32 26 25 28 30 29 28 26 23 20 18 18 17
2 4 5 9 5 9 14 19 18 21 16 23 27 27 28 29 26 19 25 23 25 21 22 17 18 25 20 18 16 28 33 34 34 30 32 31 31 32 32 31 28 30 29 26 23 22 21 20 18
4 7 12 15 15 11 9 13 20 20 15 14 25 29 28 29 28 23 24 23 22 24 23 21 22 21 22 23 20 24 37 37 34 29 27 31 32 29 26 29 29 28 27 26 24 23 22 21 17
9 13 17 16 11 6 10 19 18 17 9 19 23 24 27 29 27 22 24 24 20 19 22 21 23 21 24 21 23 22 28 31 30 30 32 35 37 30 31 33 31 29 28 26 24 25 23 21 20
12 12 14 9 10 7 9 10 6 4 4 12 16 17 13 16 20 19 15 17 23 25 23 23 21 21 23 25 25 30 30 31 35 30 31 32 31 31 32 33 32 30 27 26 25 24 24 24 23
11 7 15 12 8 5 3 6 4 5 6 5 12 14 16 14 17 16 17 19 21 24 25 23 20 23 28 24 27 34 36 38 33 31 30 30 33 32 33 31 30 30 28 25 23 24 25 25 24
7 4 6 8 12 9 10 5 4 5 6 6 8 20 18 16 15 16 12 15 21 21 25 25 20 24 30 28 26 33 32 26 27 30 27 27 29 30 31 30 29 28 27 27 24 24 22 22 22
8 8 11 8 5 5 2 5 2 3 6 9 9 17 17 13 7 8 10 16 19 16 26 25 20 19 27 29 19 31 25 25 26 24 24 23 24 25 27 29 27 25 23 23 21 21 22 24 27
2 4 3 3 2 3 4 4 3 13 16 13 10 3 10 9 9 7 3 5 9 14 20 24 18 22 24 20 14 15 21 27 24 22 21 23 21 20 21 24 23 21 24 25 28 27 32 28 27
4 2 2 4 3 3 1 5 5 19 10 10 17 13 15 17 18 17 23 17 28 26 31 30 26 30 25 16 11 15 11 10 10 9 11 12 16 21 30 25 20 20 24 27 27 28 28 29 28
1 3 2 3 3 2 3 3 5 19 13 18 15 20 22 27 21 22 27 30 36 33 35 31 26 18 9 14 1 5 3 8 12 12 10 15 17 19 22 25 26 25 25 26 27 27 34 36 32
5 5 2 1 3 2 5 3 6 11 13 14 13 18 23 24 25 23 25 27 26 21 20 21 22 20 13 10 10 11 8 10 12 15 15 17 18 20 24 24 26 25 23 28 27 26 29 31 25
1 3 5 3 3 2 2 3 7 7 10 12 12 21 24 25 26 27 27 24 20 17 16 15 13 11 8 5 4 3 2 4 6 8 9 10 11 10 14 20 27 29 29 30 34 32 33 35 29
4 4 4 2 3 3 2 3 6 9 8 13 19 19 20 24 25 26 26 26 24 22 20 19 18 16 13 11 7 6 5 4 2 3 5 6 7 9 11 13 17 20 23 24 24 25 29 31 36

GFSSGP_850_spd_111.txt.gz
Wind_Speed
11 12 11 7 4 4 3 6 3 3 2 5 11 3 6 9 5 5 7 10 11 16 23 25 25 23 22 21 20 19 18 16 15 13 11 13 13 12 15 15 14 14 16 16 13 12 17 16 15
12 14 10 4 4 3 5 4 5 7 5 17 11 9 5 4 9 6 16 12 10 14 19 22 23 22 21 20 19 18 18 17 16 15 14 13 14 14 17 16 18 14 16 12 15 17 18 17 15
13 15 7 4 4 5 5 5 6 8 16 11 6 11 7 5 8 5 13 13 15 17 19 20 22 22 20 19 18 18 17 17 16 16 14 14 16 17 18 18 17 14 12 13 17 19 17 15 13
9 5 4 4 7 7 5 4 3 5 4 8 10 7 9 10 9 6 9 12 16 19 20 20 22 22 19 17 17 16 17 17 17 16 15 15 17 18 19 18 13 13 13 15 18 17 16 14 11
11 4 3 2 5 5 3 10 6 3 5 6 9 5 11 8 9 9 12 13 14 18 19 19 21 21 19 17 16 16 16 17 18 18 17 17 17 19 21 18 14 14 16 17 17 16 14 12 9
4 3 3 4 5 4 4 12 1 4 1 10 4 8 6 16 6 6 10 13 13 17 21 18 21 20 18 17 16 16 16 18 18 19 19 18 19 20 20 18 15 16 18 17 17 16 14 13 10
5 3 4 3 3 3 4 4 3 1 3 3 7 5 8 10 12 5 12 13 13 16 21 21 22 21 18 19 17 16 16 18 19 20 20 20 20 20 20 18 17 17 19 18 17 16 15 13 10
5 3 2 4 3 5 2 3 3 2 3 2 4 2 4 18 17 5 13 15 14 16 16 18 22 22 21 21 19 17 16 19 19 20 21 21 21 20 21 18 18 18 19 19 18 16 15 13 10
5 2 3 3 6 4 5 7 4 5 9 6 7 5 5 10 12 9 10 17 17 17 18 19 19 19 21 21 19 18 18 18 19 21 22 22 23 23 22 21 20 19 21 20 19 17 14 13 11
3 3 6 4 1 2 8 5 12 6 11 9 12 17 15 14 11 10 10 13 17 19 21 21 22 21 21 23 20 19 19 20 21 22 23 24 24 23 24 23 21 22 23 21 19 17 15 14 12
2 4 3 4 6 8 7 14 11 6 10 10 10 12 19 21 17 14 11 11 15 19 25 22 23 20 22 21 20 21 19 19 21 21 22 25 25 26 27 25 24 26 28 24 21 18 16 15 13
1 5 5 5 9 10 8 9 13 19 22 29 32 34 29 26 23 19 16 12 12 18 23 21 24 22 20 20 18 22 20 13 16 21 24 27 29 30 29 28 28 29 29 26 23 20 17 15 14
2 3 10 14 19 19 20 16 16 23 31 35 38 35 34 28 26 23 20 18 15 15 19 22 23 22 21 20 20 20 16 18 13 15 24 29 32 35 31 30 30 30 30 27 25 21 18 16 15
3 10 15 15 20 15 13 15 9 21 25 26 28 33 32 29 24 21 25 22 17 14 17 18 22 23 22 22 24 22 23 25 23 25 26 31 34 38 35 31 32 31 31 29 26 23 19 16 15
7 7 7 10 6 5 4 5 10 28 24 30 31 32 34 33 27 23 23 26 21 17 16 19 20 23 26 27 29 29 27 29 34 30 31 35 39 40 40 34 33 34 33 30 27 24 21 19 18
4 2 5 3 3 6 6 7 12 17 20 24 27 30 32 32 30 26 22 27 26 21 20 21 22 22 24 26 28 29 28 29 31 31 31 32 39 41 42 38 34 35 33 30 29 25 23 21 19
2 2 3 7 2 3 6 9 6 19 18 24 31 34 32 31 29 24 23 23 28 23 21 24 22 23 26 27 28 27 27 28 31 38 31 35 40 50 47 40 34 35 34 30 29 26 24 22 21
0 3 4 7 5 1 12 22 24 31 22 27 30 32 32 32 28 24 21 23 27 27 23 24 25 21 23 27 28 26 27 26 28 39 39 33 41 38 32 27 30 32 33 30 29 28 24 23 19
1 5 14 14 13 10 15 18 22 27 18 21 28 26 25 25 25 28 23 21 26 26 30 26 26 24 24 26 28 26 29 29 29 34 37 35 32 25 23 24 27 29 32 31 30 26 24 24 20
8 11 15 14 8 5 13 18 20 18 13 20 23 20 22 22 25 25 24 25 25 25 30 29 28 25 25 24 22 22 24 22 25 31 31 33 34 41 27 31 31 31 34 33 30 29 26 24 23
10 8 14 13 13 12 11 11 5 4 4 6 9 13 15 18 16 13 19 22 24 27 30 29 29 27 23 19 21 23 21 18 24 34 30 31 29 31 29 26 29 36 33 33 31 28 28 29 24
10 7 11 11 8 4 6 9 4 5 8 6 13 12 16 19 19 15 16 22 20 27 28 26 25 22 19 17 22 25 26 21 23 29 31 27 31 31 31 33 29 28 31 29 28 28 29 27 25
7 4 7 9 11 8 8 6 5 6 8 10 13 18 18 17 16 14 17 18 22 22 25 25 24 21 18 18 22 27 26 29 29 29 27 28 25 27 29 25 26 30 32 32 30 30 29 27 26
7 9 12 10 5 5 1 6 4 5 12 13 12 20 21 15 16 15 15 14 19 21 23 23 23 18 16 18 25 31 31 28 30 33 35 29 28 27 28 27 26 30 31 32 31 30 26 24 23
4 6 4 4 1 4 2 4 3 16 22 9 9 11 11 6 6 7 12 15 15 15 18 19 18 19 19 21 26 28 27 33 27 26 31 28 27 24 21 23 25 27 28 27 26 26 25 23 25
3 2 2 4 2 3 2 5 4 15 10 14 15 11 16 15 15 14 7 8 11 15 13 19 23 15 15 20 18 12 29 18 19 19 17 16 17 16 15 15 17 18 19 19 21 24 29 32 33
1 4 2 3 3 2 3 1 2 18 15 16 20 19 17 24 24 29 25 21 27 18 17 25 26 25 24 14 12 9 8 12 15 11 10 7 10 13 20 20 23 20 19 22 26 30 33 31 30
5 3 2 2 4 2 3 3 5 14 13 13 12 16 20 24 25 33 28 34 35 38 32 30 26 26 23 14 11 11 8 3 8 7 8 9 7 11 13 19 19 25 29 25 24 28 35 32 33
1 2 3 2 2 2 3 3 6 8 10 12 14 18 19 22 24 25 26 26 29 28 23 21 20 20 21 18 14 8 9 9 7 10 8 11 13 12 11 13 18 23 26 30 33 32 28 31 35
3 4 2 2 2 2 1 3 4 5 9 11 12 11 18 22 23 25 28 28 29 27 25 24 21 18 15 12 9 9 9 7 6 5 5 5 5 6 6 9 13 17 20 21 21 21 24 28 29

GFSSGP_850_spd_114.txt.gz
Wind_Speed
11 13 11 7 4 4 2 6 1 2 3 3 6 4 3 6 4 4 10 4 3 13 21 23 25 23 21 21 19 18 17 15 13 13 12 11 11 10 11 11 14 16 15 11 11 15 15 15 14
12 14 10 4 4 2 5 3 6 3 3 10 3 4 1 5 7 9 6 6 6 10 18 22 24 22 21 20 19 18 17 15 13 12 12 11 12 12 14 12 13 15 16 12 13 15 15 15 15
13 14 5 4 3 5 5 5 4 4 7 5 3 3 2 6 8 8 7 10 8 14 17 20 22 21 20 20 19 18 17 15 14 12 11 12 12 14 14 16 14 14 13 11 15 16 16 15 13
9 5 4 4 5 5 4 3 3 3 3 8 7 3 2 6 10 10 6 10 11 15 16 19 20 20 19 18 17 17 16 16 14 13 13 12 14 15 16 17 14 9 11 14 16 16 15 14 13
10 4 4 1 4 5 3 4 1 2 3 5 7 5 7 7 13 8 4 9 12 16 16 17 19 20 19 17 16 16 16 16 16 15 15 14 15 17 18 16 11 11 13 15 16 15 13 12 11
5 3 3 3 4 5 5 11 4 1 1 4 2 7 5 9 9 2 4 6 9 11 15 18 18 19 18 17 16 16 16 16 17 17 16 15 16 18 18 16 13 13 15 16 15 15 12 10 9
6 4 4 4 3 4 4 3 2 3 1 2 2 2 6 8 14 5 6 6 10 11 14 16 18 19 19 18 17 17 17 17 18 18 18 17 18 19 19 17 15 15 17 17 16 15 13 11 9
5 4 4 4 3 5 3 3 2 0 2 3 1 4 4 8 13 11 5 8 10 11 14 17 17 20 20 20 20 19 18 19 18 19 19 19 19 18 20 18 17 16 18 18 17 16 14 12 10
5 3 3 5 6 3 3 5 2 3 6 4 5 9 8 10 10 10 5 10 14 14 16 17 18 18 20 19 19 18 17 18 19 18 19 19 21 19 21 20 17 17 19 19 18 17 15 13 11
4 3 8 2 2 2 5 0 8 5 6 5 16 17 16 17 17 13 11 7 10 17 19 20 19 18 21 20 20 19 19 19 21 20 20 21 21 21 22 21 19 19 21 21 20 18 17 15 13
2 4 2 2 5 4 6 10 2 3 6 11 8 10 14 20 23 23 16 12 10 11 19 21 21 20 21 20 20 19 18 19 20 21 21 21 23 23 22 24 23 22 23 24 23 21 19 16 14
1 3 3 4 3 8 6 9 10 18 15 29 34 31 29 28 28 29 26 18 14 14 15 20 24 22 23 22 20 18 18 18 20 20 21 23 24 25 26 26 26 25 26 27 25 23 20 18 16
1 3 8 8 18 19 16 15 13 17 32 32 31 30 28 27 27 28 30 27 19 16 16 18 21 22 22 23 22 19 18 16 14 14 15 23 24 26 28 27 27 26 26 30 28 25 22 20 18
2 8 13 12 15 11 8 9 4 14 21 24 25 28 27 26 25 25 26 30 26 20 17 19 21 22 22 22 21 20 20 20 16 17 16 17 19 26 29 29 28 29 28 30 29 26 24 21 19
6 6 7 3 2 4 2 6 8 22 16 19 24 27 25 24 24 25 26 28 30 26 20 18 20 23 24 24 22 23 25 23 20 23 23 20 22 27 32 33 32 34 31 30 29 27 25 22 21
4 3 5 2 1 3 4 8 8 16 14 20 26 33 32 30 30 27 24 26 27 30 27 21 20 24 24 26 26 26 30 28 27 28 27 28 27 29 36 35 34 39 35 33 32 29 27 25 22
5 2 2 7 2 3 3 11 7 18 25 28 35 35 35 33 30 29 22 24 26 31 32 26 24 25 25 25 27 30 35 33 30 30 29 30 30 32 38 38 38 40 43 38 33 31 29 26 23
3 4 5 6 5 2 7 24 20 32 23 26 33 36 35 34 30 28 24 23 23 28 35 29 27 25 25 25 28 29 30 31 30 31 32 34 34 35 33 43 44 43 40 36 34 31 30 28 24
3 8 12 13 10 8 12 20 21 27 19 21 30 32 35 33 21 19 21 22 24 28 34 35 30 27 28 24 25 28 30 29 30 28 31 33 32 33 31 39 47 45 38 29 30 31 30 28 23
6 8 9 11 4 3 12 21 22 19 15 18 23 25 28 27 21 19 23 27 27 32 28 33 33 30 29 29 26 26 24 25 26 26 28 34 30 33 28 36 36 31 24 29 33 30 31 29 24
5 6 6 10 13 7 9 9 5 3 5 9 10 15 18 20 23 21 19 18 27 30 29 32 33 32 31 30 26 24 24 25 23 26 20 26 27 29 31 28 23 28 35 40 33 28 31 28 24
4 7 11 12 7 4 4 7 4 5 10 6 18 23 18 19 19 20 18 15 20 23 27 30 31 32 31 27 26 26 25 24 22 19 19 23 25 28 34 33 27 17 21 32 30 27 31 28 27
7 2 6 9 13 10 7 4 5 5 7 13 19 23 22 18 19 15 14 13 17 22 27 33 32 30 28 27 25 23 23 23 21 18 17 21 22 26 32 36 27 32 25 27 34 35 35 32 31
5 7 8 4 4 3 1 4 4 8 15 16 16 17 14 12 7 12 15 16 17 20 22 28 30 29 26 24 21 19 21 24 25 24 23 22 19 22 30 33 29 26 24 28 31 33 32 32 33
2 4 4 5 1 4 2 4 3 12 19 9 5 8 13 21 17 10 12 18 17 18 21 22 24 26 23 19 19 21 25 27 28 27 24 28 25 23 18 23 29 24 22 26 25 27 28 27 28
2 1 1 3 2 5 1 3 2 13 22 16 9 14 22 32 22 12 2 5 14 16 18 21 21 20 20 16 9 17 23 21 20 26 15 27 32 25 21 18 16 19 21 23 25 23 25 26 27
2 3 1 3 3 3 3 2 2 17 19 18 23 22 24 18 24 25 15 10 2 10 14 17 17 14 10 16 14 10 12 15 10 16 14 11 13 16 18 18 16 15 18 23 25 28 27 25 28
5 1 2 1 3 3 2 1 5 13 14 15 14 19 21 14 26 30 34 21 16 11 13 12 16 21 26 19 20 18 17 18 14 11 10 7 7 5 7 13 17 19 21 22 20 20 23 27 28
2 2 4 2 1 2 3 2 4 8 8 9 14 16 15 19 29 31 34 35 33 32 31 29 30 32 28 24 18 15 14 14 11 10 7 6 5 5 6 8 10 15 17 17 22 25 27 29 33
4 4 3 2 2 1 1 3 3 6 5 9 11 11 15 19 22 25 28 29 29 31 28 27 28 31 28 18 15 15 13 13 12 10 7 3 1 2 3 5 6 8 10 12 16 20 19 21 20

GFSSGP_850_spd_117.txt.gz
Wind_Speed
13 12 13 7 3 2 2 4 1 2 3 1 3 2 1 2 3 1 15 4 4 10 17 23 21 18 16 16 17 16 14 12 11 10 10 8 8 7 8 10 11 13 11 12 16 14 13 14 13
14 13 9 4 3 2 3 2 6 3 1 6 1 0 2 0 4 8 6 7 4 9 17 21 22 20 18 17 16 16 14 13 11 10 10 9 9 9 10 12 13 14 10 7 15 14 15 15 15
16 14 4 3 3 4 2 2 4 1 5 3 2 2 2 5 4 8 7 7 5 7 15 18 21 20 18 18 17 16 15 13 12 10 10 10 10 11 14 12 15 14 11 7 13 15 16 14 13
12 7 5 2 4 3 2 2 1 2 2 6 4 3 4 11 10 11 8 6 6 5 13 17 20 20 18 16 17 16 15 14 12 11 10 10 10 12 14 15 14 12 10 10 13 15 14 13 12
11 5 3 2 3 3 3 2 1 1 3 4 4 1 1 1 13 10 6 1 3 7 13 16 18 19 18 17 16 16 16 15 14 13 12 11 11 13 14 18 11 9 10 13 14 15 14 12 11
4 4 3 3 5 2 3 6 2 2 1 3 2 5 2 2 8 6 1 4 4 4 10 14 15 17 18 17 17 16 16 15 15 15 14 13 12 14 16 15 11 10 12 15 15 14 13 11 10
5 2 3 4 2 4 2 0 3 4 4 3 2 2 2 4 8 9 2 4 6 8 10 13 13 15 18 18 18 17 16 16 16 16 16 15 15 15 16 15 12 11 14 15 15 14 12 11 9
5 4 3 2 2 4 3 2 2 1 3 3 4 4 3 4 6 8 4 5 6 9 11 14 15 15 18 19 18 18 18 18 17 17 17 17 16 17 16 16 14 12 14 15 15 14 13 11 10
5 3 3 4 6 2 3 4 1 1 5 4 5 8 9 11 12 9 5 4 9 11 13 16 16 15 17 19 19 17 17 17 18 18 18 18 18 18 18 18 16 14 15 16 16 15 14 12 11
4 2 7 2 2 2 4 1 6 4 3 7 15 19 20 21 21 18 14 9 6 11 14 16 17 18 17 18 18 18 17 18 19 20 19 20 18 18 18 18 18 15 15 17 18 17 16 15 13
2 3 1 0 1 3 5 6 2 4 6 16 16 19 16 19 20 24 22 17 12 10 13 17 19 19 19 17 17 17 18 16 18 21 20 21 20 19 20 20 21 18 17 20 20 20 20 18 15
3 1 1 2 1 5 5 8 7 16 19 27 23 25 28 29 29 27 26 24 20 17 13 15 19 21 21 20 21 19 17 16 16 18 21 21 21 22 23 22 22 21 20 21 22 22 21 19 18
2 1 3 7 13 16 16 17 12 15 33 30 29 28 27 23 24 24 24 27 27 24 19 18 20 23 25 24 22 21 19 17 16 18 20 20 22 23 23 24 23 24 23 22 24 25 23 22 20
1 4 10 9 10 9 7 9 2 13 16 16 18 20 20 21 21 21 20 23 28 28 26 20 22 23 26 27 24 23 20 19 17 18 16 16 16 17 21 23 25 25 25 24 24 26 25 24 23
1 4 5 1 3 3 2 7 9 14 17 19 22 23 22 27 26 25 23 24 24 28 29 27 21 23 25 26 24 24 22 21 21 19 17 16 17 17 21 24 25 27 26 25 24 27 28 27 25
3 3 3 1 4 3 2 7 5 9 12 18 23 32 38 42 30 28 26 26 25 28 29 31 25 24 25 28 27 27 25 24 24 25 20 22 22 22 23 26 28 30 30 26 26 26 29 28 27
6 1 3 8 4 2 1 10 8 22 34 31 25 34 37 38 32 27 26 26 27 26 30 31 30 25 26 28 29 29 29 28 29 32 27 25 25 26 26 27 30 33 32 32 33 29 28 29 28
2 2 2 6 4 5 12 24 17 28 29 30 31 30 35 35 35 31 28 26 25 25 30 30 33 29 26 28 29 30 31 30 32 35 33 29 27 27 28 28 31 35 38 38 37 30 29 30 31
1 2 6 6 9 5 8 19 20 25 23 27 27 26 28 31 26 21 22 21 23 25 27 32 33 34 30 29 31 31 32 32 34 35 33 30 29 31 31 32 33 34 39 41 36 36 36 33 32
1 3 6 9 6 4 11 23 22 15 12 11 16 18 20 25 22 17 18 19 21 25 29 33 33 36 33 29 31 31 31 32 31 31 30 30 31 33 33 32 34 34 37 43 33 35 37 33 30
3 4 4 7 6 9 7 10 5 3 6 11 13 21 30 25 21 18 18 19 20 26 33 34 35 34 34 31 30 30 27 27 28 29 30 28 29 32 30 28 31 31 32 35 38 34 36 38 35
3 8 11 9 7 4 2 6 5 5 9 9 24 26 28 22 18 18 19 20 20 22 25 31 34 30 33 32 30 31 31 29 27 24 20 20 20 21 24 25 28 30 31 30 34 35 40 38 40
6 1 5 6 11 8 3 5 5 8 13 18 23 26 20 16 16 18 19 18 13 15 19 23 25 28 31 32 30 29 29 25 22 20 20 17 15 18 23 24 26 28 28 25 31 35 38 35 35
4 5 6 5 3 4 4 5 3 6 10 16 20 12 14 19 17 14 13 16 16 15 19 23 25 29 28 29 28 28 26 23 22 23 21 19 16 17 21 23 25 29 31 25 26 32 31 28 27
3 4 3 4 2 5 4 4 3 12 16 15 10 16 16 22 19 13 8 14 18 18 18 21 19 27 28 27 29 27 22 22 20 23 22 23 22 23 20 24 25 32 36 32 30 30 32 30 33
2 1 2 3 2 4 2 4 2 13 18 24 22 22 24 21 28 20 3 5 9 15 14 12 17 20 21 23 20 22 25 26 25 25 26 25 22 21 22 17 13 19 30 31 19 27 29 27 26
2 2 0 3 4 3 2 1 2 14 14 20 23 23 25 29 31 25 14 10 7 7 4 12 13 15 18 21 24 20 19 22 30 29 24 18 19 24 19 18 12 12 11 14 17 16 17 19 22
4 2 2 2 4 4 2 2 5 11 12 13 13 20 27 32 32 32 28 20 18 11 11 16 15 17 19 23 17 14 9 17 17 18 21 15 11 6 6 9 12 13 14 12 15 19 21 25 27
2 2 3 3 1 2 4 2 2 6 7 10 14 17 19 25 30 36 40 35 18 7 14 14 18 23 19 13 22 21 18 20 18 15 12 12 8 7 5 3 15 14 13 14 16 21 24 26 22
2 4 2 1 1 1 1 2 7 7 6 11 13 15 17 20 25 30 34 34 36 34 35 32 28 32 26 24 23 24 22 22 21 18 14 11 7 5 2 1 1 3 7 13 12 11 12 16 24

GFSSGP_850_spd_120.txt.gz
Wind_Speed
14 13 14 9 5 4 6 4 1 6 7 5 1 3 2 5 3 3 4 4 9 5 13 18 15 14 14 15 14 13 11 10 9 8 8 6 5 5 5 6 8 12 12 13 11 12 9 10 11
16 15 10 5 4 6 5 3 7 4 4 1 3 3 3 4 3 3 2 6 4 6 13 15 17 15 14 13 14 14 12 11 9 9 8 8 7 7 7 8 10 9 5 12 11 11 12 13 12
17 16 9 4 4 6 1 3 5 4 3 2 5 1 0 2 4 6 8 7 1 6 13 15 18 17 16 15 14 14 13 11 10 9 7 8 7 8 9 9 11 11 5 7 10 12 13 12 11
9 7 2 5 8 2 2 6 6 6 3 3 2 5 4 6 6 10 8 5 3 5 11 15 19 18 17 16 15 14 13 12 11 9 7 8 8 9 12 11 13 11 6 5 9 13 11 10 10
11 4 3 4 6 2 3 6 7 5 3 1 2 3 2 2 8 8 6 2 6 5 11 13 18 18 16 15 15 14 13 12 11 10 10 9 9 11 13 12 13 8 7 8 11 12 10 10 9
4 2 4 7 6 4 3 4 4 6 4 2 3 3 2 3 6 5 1 1 6 6 9 11 15 18 17 16 15 15 14 14 13 12 11 12 10 11 12 15 12 7 9 10 11 11 10 8 8
3 3 3 2 3 4 3 1 9 7 8 6 1 3 4 6 2 4 3 1 4 8 9 11 12 16 18 18 17 16 16 15 14 14 14 13 12 12 13 15 13 9 10 12 12 12 10 8 7
3 1 4 4 4 4 3 2 1 4 6 4 3 5 5 6 4 2 3 3 5 8 10 14 14 14 15 18 18 17 16 16 15 15 15 15 13 13 13 15 14 10 10 12 12 12 11 9 8
5 3 4 1 3 4 2 2 1 3 6 5 6 10 6 8 10 9 6 4 7 9 12 14 15 16 15 16 16 17 16 16 16 16 16 16 14 15 16 16 16 12 11 13 14 13 12 11 9
3 4 3 2 1 1 1 3 3 4 6 11 14 16 16 17 17 20 19 14 8 10 12 14 15 18 16 17 18 17 18 17 17 18 16 17 15 15 16 17 17 14 12 14 15 15 14 13 10
2 3 4 2 1 3 4 8 5 7 10 18 16 14 14 15 17 23 24 23 20 14 14 16 17 18 20 19 17 18 18 17 18 16 17 16 18 17 18 18 18 18 16 16 18 18 17 16 12
3 2 2 2 2 3 6 7 10 14 19 14 16 18 20 22 22 21 26 28 27 24 19 16 17 20 21 22 20 20 19 18 18 18 18 18 18 19 18 20 19 19 20 17 15 15 15 17 18
4 4 3 5 6 11 13 19 16 22 23 21 20 19 21 21 21 20 21 25 29 31 27 21 20 21 23 24 23 23 22 20 19 18 17 19 18 18 19 22 21 20 20 20 17 16 16 20 20
3 3 5 5 5 8 8 12 4 8 7 10 11 14 17 19 20 18 19 23 24 28 32 28 25 23 24 26 26 25 24 22 21 21 19 19 20 21 20 19 20 21 22 24 21 21 18 22 22
1 3 3 3 2 3 4 11 11 15 10 13 13 16 18 20 22 25 23 26 24 23 27 33 32 27 27 26 29 29 26 25 23 22 21 20 21 20 18 19 19 20 20 24 23 22 22 23 21
1 1 2 3 2 1 2 8 2 4 11 17 26 26 26 26 26 27 27 27 30 29 28 29 34 33 29 28 29 32 30 26 25 23 24 22 20 19 19 21 20 21 23 24 25 24 23 27 28
1 2 2 4 1 2 5 9 8 15 27 27 27 28 28 28 25 24 26 26 26 27 28 31 32 35 32 28 29 32 33 31 27 28 27 26 22 21 22 23 23 23 28 29 30 28 26 27 28
3 2 3 6 0 8 14 21 17 23 25 27 26 26 26 27 24 23 22 25 29 29 29 31 30 34 31 28 28 33 34 34 31 31 31 32 27 23 25 26 25 27 29 31 32 33 32 29 29
2 2 6 9 7 10 11 18 19 24 24 21 17 18 19 20 20 22 23 23 26 29 29 31 30 32 33 28 27 31 36 35 35 35 32 33 34 30 28 28 27 28 31 32 33 33 35 34 34
0 4 6 9 4 6 15 24 21 12 7 11 14 17 20 24 25 23 20 20 20 21 24 28 30 31 33 30 28 26 31 33 33 35 34 33 33 33 32 30 29 29 29 32 33 34 37 36 38
3 6 4 6 12 12 13 11 2 1 8 10 17 18 19 20 24 23 20 19 20 22 22 25 29 32 32 29 30 26 23 29 33 34 34 34 34 33 33 32 32 31 32 34 35 35 36 40 43
4 2 6 7 9 5 8 7 7 7 9 19 25 24 21 20 20 20 21 20 20 23 23 26 28 36 31 29 26 31 30 27 29 30 33 35 31 29 30 33 33 31 29 31 33 31 33 36 39
2 2 8 11 12 10 5 5 4 10 11 17 25 27 16 16 20 21 21 20 21 21 22 21 21 30 30 30 28 29 31 29 21 23 26 22 24 25 26 26 26 25 26 29 32 31 27 38 39
9 10 9 2 2 4 6 6 2 6 11 12 21 24 23 22 23 24 23 17 18 20 19 17 18 22 23 24 26 27 31 29 29 28 23 23 23 21 21 23 22 25 25 29 30 27 29 30 36
4 4 3 2 3 4 6 6 3 11 12 12 16 21 25 23 22 26 23 19 12 15 19 19 20 23 24 24 26 27 28 28 27 25 25 24 23 22 20 20 21 25 23 29 30 29 31 30 31
4 3 3 4 3 6 3 4 2 10 12 15 15 21 25 24 28 25 14 4 8 16 18 18 17 17 20 21 22 23 25 27 25 24 24 23 24 23 22 20 21 23 19 27 34 30 26 29 30
3 4 2 4 5 4 1 1 4 13 10 17 18 18 24 32 31 26 19 14 9 10 5 10 11 10 14 16 17 18 21 23 27 29 25 25 23 25 25 22 20 19 14 16 18 26 26 29 24
6 1 4 3 3 4 2 1 5 9 11 12 12 17 19 27 30 31 26 19 14 11 9 4 7 8 10 15 17 21 23 26 30 26 24 24 23 21 18 19 19 14 12 11 13 15 14 20 25
4 3 5 3 3 3 4 1 3 6 7 10 9 14 13 13 21 28 34 23 15 13 4 4 2 5 6 7 12 12 7 14 22 21 20 18 17 14 9 8 11 13 13 11 12 13 15 18 20
3 4 4 3 2 3 3 2 5 5 7 8 11 10 9 9 12 15 24 31 33 30 31 29 25 22 19 13 21 18 20 13 17 19 21 18 13 10 11 7 6 9 14 15 12 16 21 24 23